GFSCGP_500_temp_003.txt.gz
Temp
-15 -14 -14 -14 -14 -15 -15 -15 -15 -15 -13 -14 -14 -14 -14 -13 -13 -14 -14 -14 -14 -14 -14 -14 -14 -14 -15 -15 -15 -15 -15 -15 -16 -16 -17 -16 -17 -17 -17 -17 -17 -17 -17 -17
-15 -14 -15 -15 -15 -15 -15 -14 -14 -14 -13 -14 -14 -14 -14 -13 -14 -14 -14 -14 -14 -14 -14 -15 -15 -15 -15 -16 -16 -16 -16 -17 -16 -16 -17 -17 -18 -17 -17 -17 -17 -17 -17 -16
-14 -14 -15 -14 -14 -14 -14 -14 -14 -14 -14 -14 -14 -14 -14 -14 -13 -14 -14 -14 -14 -15 -15 -15 -16 -16 -16 -16 -16 -17 -17 -17 -16 -17 -17 -18 -18 -17 -17 -17 -17 -17 -17 -17
-14 -14 -14 -14 -14 -14 -14 -14 -14 -14 -14 -14 -14 -15 -15 -14 -14 -13 -14 -14 -14 -14 -15 -15 -16 -16 -16 -16 -16 -16 -17 -17 -17 -17 -18 -18 -17 -17 -17 -17 -17 -17 -18 -18
-14 -14 -14 -14 -14 -14 -14 -14 -14 -14 -14 -14 -14 -15 -15 -15 -15 -14 -15 -15 -15 -15 -15 -15 -16 -16 -16 -16 -16 -16 -17 -17 -17 -17 -17 -17 -17 -17 -17 -18 -18 -18 -18 -18
-14 -14 -14 -14 -14 -14 -14 -14 -14 -14 -14 -14 -15 -15 -15 -15 -15 -14 -15 -15 -15 -15 -15 -16 -16 -16 -16 -16 -16 -16 -17 -17 -17 -17 -17 -17 -18 -17 -17 -18 -18 -18 -18 -19
-14 -14 -14 -14 -14 -14 -14 -14 -14 -14 -14 -14 -15 -15 -16 -15 -15 -15 -15 -16 -16 -16 -16 -16 -16 -16 -16 -16 -16 -17 -17 -17 -17 -16 -17 -17 -17 -17 -17 -18 -18 -18 -19 -19
-14 -14 -14 -14 -14 -14 -14 -14 -14 -15 -15 -15 -15 -15 -16 -16 -16 -16 -16 -16 -17 -17 -17 -17 -17 -17 -16 -17 -18 -18 -18 -18 -18 -18 -18 -18 -17 -17 -18 -18 -19 -20 -20 -21
-14 -14 -14 -14 -14 -14 -14 -15 -15 -15 -15 -15 -16 -16 -17 -16 -16 -16 -16 -17 -17 -17 -17 -17 -17 -16 -16 -16 -16 -17 -16 -16 -17 -17 -17 -18 -18 -18 -19 -20 -21 -22 -22 -23
-15 -15 -14 -14 -14 -14 -14 -15 -15 -15 -15 -15 -16 -17 -16 -16 -16 -16 -17 -17 -17 -17 -18 -18 -17 -17 -17 -17 -17 -17 -17 -17 -17 -18 -18 -18 -19 -20 -20 -21 -22 -23 -23 -23
-15 -15 -14 -14 -14 -14 -14 -14 -15 -15 -15 -16 -16 -17 -17 -17 -17 -17 -17 -18 -17 -17 -17 -17 -17 -17 -17 -18 -18 -17 -17 -18 -18 -18 -19 -20 -20 -21 -21 -22 -23 -23 -24 -25
-15 -15 -15 -14 -14 -14 -14 -15 -15 -15 -15 -15 -16 -17 -17 -17 -17 -17 -18 -17 -17 -18 -18 -17 -18 -18 -18 -18 -17 -18 -18 -18 -19 -19 -20 -20 -21 -22 -22 -23 -23 -24 -26 -27
-14 -14 -14 -14 -14 -15 -14 -14 -14 -15 -15 -16 -16 -17 -17 -17 -17 -17 -17 -18 -19 -18 -17 -18 -18 -18 -18 -17 -18 -18 -18 -19 -19 -20 -20 -20 -22 -23 -23 -23 -23 -24 -27 -28
-14 -14 -14 -14 -14 -14 -15 -15 -15 -15 -15 -15 -16 -16 -17 -16 -17 -17 -17 -18 -17 -18 -18 -18 -18 -17 -17 -17 -18 -18 -19 -20 -20 -20 -20 -21 -22 -23 -23 -24 -26 -28 -30 -30
-14 -14 -14 -15 -15 -15 -15 -15 -15 -15 -15 -15 -16 -16 -16 -16 -16 -17 -18 -18 -18 -18 -18 -18 -18 -17 -18 -18 -18 -19 -20 -20 -21 -21 -22 -22 -23 -23 -25 -27 -29 -31 -31 -31
-14 -14 -15 -15 -15 -15 -15 -15 -15 -15 -16 -16 -16 -16 -16 -17 -18 -19 -18 -18 -18 -18 -18 -18 -18 -18 -18 -18 -19 -19 -19 -20 -21 -22 -23 -23 -24 -25 -27 -29 -31 -31 -31 -32
-15 -14 -15 -15 -15 -15 -15 -15 -15 -15 -16 -16 -16 -16 -16 -17 -18 -17 -18 -18 -18 -19 -18 -18 -18 -18 -18 -18 -19 -19 -20 -20 -21 -22 -23 -24 -25 -26 -29 -30 -32 -32 -32 -32
-15 -15 -15 -15 -15 -15 -15 -15 -15 -16 -16 -16 -16 -17 -17 -17 -17 -18 -18 -19 -18 -18 -18 -18 -18 -18 -18 -19 -20 -20 -21 -22 -22 -23 -24 -25 -26 -28 -29 -31 -32 -33 -33 -33
-15 -15 -15 -15 -15 -15 -15 -15 -16 -16 -16 -17 -17 -17 -17 -17 -18 -18 -18 -18 -18 -18 -18 -18 -19 -19 -20 -20 -20 -21 -22 -22 -23 -24 -25 -27 -29 -29 -30 -31 -33 -34 -34 -33
-15 -15 -15 -15 -15 -15 -15 -15 -16 -16 -16 -17 -17 -18 -18 -18 -19 -19 -19 -19 -19 -19 -19 -19 -20 -20 -20 -20 -21 -22 -22 -23 -24 -25 -27 -29 -30 -31 -31 -33 -34 -34 -33 -33
-15 -15 -15 -15 -15 -16 -16 -16 -16 -16 -17 -17 -17 -18 -18 -18 -19 -19 -19 -19 -19 -19 -19 -19 -19 -20 -20 -21 -22 -22 -23 -24 -25 -26 -29 -30 -31 -32 -32 -33 -33 -33 -33 -33
-15 -15 -16 -15 -16 -16 -16 -16 -16 -17 -17 -17 -18 -18 -18 -18 -19 -19 -19 -19 -19 -19 -19 -20 -20 -21 -22 -22 -23 -23 -24 -25 -27 -29 -30 -31 -32 -32 -33 -33 -33 -33 -33 -33
-15 -16 -16 -16 -16 -16 -16 -16 -16 -17 -17 -18 -18 -18 -18 -19 -19 -19 -19 -19 -19 -19 -20 -20 -21 -22 -22 -23 -23 -24 -25 -27 -29 -30 -31 -32 -32 -33 -33 -33 -32 -33 -33 -33
-16 -16 -16 -16 -16 -17 -16 -17 -17 -18 -18 -19 -19 -19 -19 -19 -19 -19 -20 -19 -19 -20 -21 -22 -22 -22 -23 -23 -24 -25 -26 -29 -30 -31 -32 -32 -33 -33 -33 -32 -32 -33 -33 -33
-17 -17 -17 -17 -17 -17 -17 -18 -18 -18 -19 -19 -19 -19 -19 -20 -20 -20 -20 -20 -20 -21 -22 -23 -23 -23 -24 -24 -25 -26 -28 -30 -31 -32 -32 -33 -33 -33 -32 -32 -32 -33 -33 -33
-17 -17 -17 -17 -17 -18 -18 -19 -19 -19 -19 -19 -20 -20 -20 -20 -20 -20 -20 -21 -22 -22 -23 -23 -23 -24 -24 -25 -26 -27 -29 -30 -31 -32 -33 -33 -33 -33 -32 -32 -32 -33 -33 -33

GFSCGP_500_temp_006.txt.gz
Temp
-16 -16 -15 -15 -15 -15 -16 -16 -15 -15 -15 -15 -16 -15 -14 -13 -13 -14 -14 -14 -14 -14 -15 -15 -15 -15 -16 -16 -16 -16 -16 -17 -16 -16 -16 -16 -16 -16 -17 -17 -18 -17 -17 -17
-15 -15 -15 -15 -15 -15 -15 -15 -15 -15 -15 -15 -15 -15 -14 -14 -14 -14 -14 -15 -15 -15 -15 -15 -16 -16 -17 -16 -16 -16 -16 -16 -15 -16 -16 -16 -17 -17 -17 -18 -18 -18 -17 -17
-15 -15 -15 -14 -15 -15 -15 -15 -15 -15 -15 -15 -15 -15 -14 -14 -14 -14 -14 -15 -15 -15 -15 -17 -16 -17 -16 -16 -16 -16 -16 -16 -16 -17 -17 -17 -17 -17 -17 -18 -18 -17 -18 -18
-15 -15 -14 -15 -15 -14 -15 -15 -15 -15 -15 -15 -15 -15 -14 -14 -14 -14 -15 -15 -15 -15 -16 -16 -16 -17 -16 -16 -16 -16 -16 -17 -17 -17 -17 -17 -17 -18 -18 -18 -18 -18 -18 -18
-15 -15 -15 -15 -15 -14 -14 -15 -15 -14 -14 -14 -15 -15 -15 -15 -14 -15 -15 -15 -16 -16 -16 -16 -17 -17 -17 -17 -17 -17 -17 -17 -17 -17 -17 -18 -18 -18 -18 -18 -18 -18 -19 -18
-15 -15 -15 -15 -15 -15 -14 -14 -14 -14 -14 -14 -15 -15 -15 -15 -15 -15 -15 -16 -16 -16 -16 -16 -17 -17 -17 -17 -17 -18 -17 -17 -17 -18 -17 -17 -17 -17 -18 -18 -18 -18 -18 -19
-15 -15 -14 -14 -14 -14 -14 -14 -14 -14 -14 -15 -15 -16 -16 -16 -16 -16 -16 -16 -15 -15 -16 -17 -16 -17 -17 -17 -17 -18 -18 -18 -18 -17 -17 -17 -17 -17 -18 -18 -18 -18 -18 -19
-14 -14 -14 -14 -14 -14 -14 -14 -14 -14 -15 -15 -15 -15 -15 -16 -16 -16 -15 -15 -16 -16 -16 -16 -17 -17 -17 -17 -17 -17 -17 -17 -17 -17 -17 -17 -17 -17 -17 -18 -19 -19 -20 -20
-15 -15 -14 -14 -14 -14 -14 -14 -14 -15 -15 -15 -15 -15 -15 -15 -15 -15 -17 -16 -16 -16 -16 -17 -17 -17 -17 -17 -17 -17 -17 -17 -17 -17 -17 -17 -18 -18 -19 -19 -19 -20 -21 -22
-15 -15 -14 -14 -14 -14 -14 -14 -14 -15 -15 -15 -15 -15 -15 -15 -16 -16 -16 -16 -17 -17 -17 -18 -17 -17 -17 -17 -17 -17 -17 -17 -17 -17 -18 -18 -19 -19 -19 -20 -20 -21 -22 -23
-14 -14 -14 -14 -14 -14 -14 -14 -14 -14 -14 -15 -15 -15 -15 -15 -15 -16 -16 -17 -17 -17 -18 -17 -17 -17 -17 -18 -18 -18 -18 -18 -18 -19 -18 -19 -19 -20 -20 -20 -21 -22 -23 -24
-14 -14 -14 -14 -14 -14 -14 -14 -14 -14 -14 -15 -15 -15 -15 -15 -15 -16 -17 -17 -17 -18 -18 -18 -18 -18 -18 -18 -18 -18 -18 -18 -18 -18 -19 -19 -19 -20 -21 -21 -22 -23 -24 -25
-14 -14 -15 -15 -14 -14 -14 -14 -14 -14 -15 -15 -15 -15 -15 -15 -15 -16 -17 -17 -18 -18 -19 -18 -18 -18 -18 -18 -18 -18 -18 -19 -19 -19 -19 -19 -20 -21 -21 -22 -23 -24 -25 -26
-15 -15 -15 -15 -15 -15 -14 -14 -14 -14 -14 -15 -15 -15 -15 -15 -16 -16 -17 -17 -18 -18 -18 -18 -19 -18 -18 -18 -18 -19 -19 -19 -19 -19 -20 -20 -21 -22 -22 -23 -24 -25 -27 -29
-15 -15 -14 -14 -14 -14 -15 -15 -15 -15 -15 -15 -15 -15 -16 -16 -16 -17 -17 -17 -17 -17 -18 -19 -18 -18 -18 -18 -19 -19 -19 -19 -19 -19 -20 -21 -21 -22 -23 -24 -25 -27 -29 -30
-15 -15 -15 -15 -15 -15 -15 -15 -15 -15 -15 -15 -15 -16 -16 -16 -17 -17 -17 -18 -18 -18 -19 -19 -19 -19 -19 -19 -19 -19 -19 -19 -19 -20 -21 -22 -22 -23 -24 -25 -27 -29 -30 -31
-15 -15 -15 -15 -15 -15 -15 -15 -15 -15 -15 -16 -16 -15 -16 -16 -17 -17 -18 -18 -18 -19 -19 -19 -19 -19 -19 -19 -19 -19 -19 -20 -20 -21 -22 -23 -23 -24 -25 -28 -29 -31 -31 -32
-15 -15 -15 -15 -15 -15 -15 -16 -16 -15 -15 -16 -16 -16 -16 -17 -17 -18 -18 -18 -19 -19 -19 -19 -20 -19 -19 -19 -19 -19 -20 -20 -21 -22 -23 -23 -24 -25 -28 -30 -31 -31 -32 -33
-15 -15 -15 -15 -15 -15 -15 -15 -16 -15 -16 -16 -16 -16 -17 -17 -18 -18 -18 -18 -19 -19 -19 -20 -20 -19 -19 -19 -19 -20 -20 -21 -22 -23 -23 -24 -25 -27 -30 -31 -32 -32 -33 -33
-16 -16 -16 -16 -15 -15 -15 -15 -16 -16 -16 -16 -16 -17 -17 -18 -18 -18 -18 -19 -19 -19 -20 -19 -19 -19 -19 -19 -20 -20 -21 -22 -23 -23 -24 -25 -28 -29 -31 -32 -33 -33 -33 -33
-16 -16 -16 -16 -15 -15 -15 -16 -16 -16 -16 -16 -16 -17 -17 -18 -19 -19 -19 -19 -20 -20 -20 -19 -20 -20 -20 -20 -20 -21 -23 -23 -23 -24 -25 -27 -29 -31 -32 -32 -33 -33 -33 -32
-16 -16 -16 -16 -16 -16 -16 -16 -16 -16 -17 -17 -17 -17 -18 -18 -19 -19 -19 -20 -20 -20 -20 -20 -20 -20 -20 -21 -22 -23 -23 -23 -25 -26 -26 -29 -30 -31 -32 -33 -33 -33 -32 -32
-16 -16 -16 -16 -16 -16 -16 -16 -16 -16 -16 -16 -17 -18 -18 -18 -19 -19 -20 -20 -20 -20 -20 -20 -20 -20 -21 -22 -23 -23 -24 -25 -25 -27 -28 -29 -31 -31 -32 -33 -33 -33 -32 -32
-16 -17 -16 -16 -17 -17 -16 -16 -16 -16 -16 -16 -17 -18 -18 -19 -19 -20 -19 -19 -20 -20 -20 -20 -21 -21 -22 -23 -24 -24 -25 -25 -27 -28 -29 -30 -31 -32 -33 -33 -33 -33 -32 -32
-17 -17 -17 -16 -16 -16 -16 -16 -16 -17 -17 -17 -19 -19 -19 -20 -20 -20 -20 -20 -20 -20 -21 -21 -22 -23 -23 -24 -24 -25 -25 -26 -28 -29 -30 -31 -31 -32 -33 -33 -33 -33 -33 -33
-18 -18 -17 -17 -18 -17 -17 -17 -18 -17 -18 -19 -19 -19 -20 -20 -20 -20 -21 -21 -21 -21 -21 -22 -23 -24 -24 -24 -25 -25 -26 -28 -29 -30 -31 -31 -32 -33 -33 -33 -33 -33 -33 -33

GFSCGP_500_temp_009.txt.gz
Temp
-16 -16 -16 -16 -16 -15 -15 -15 -15 -16 -16 -15 -14 -14 -14 -14 -14 -14 -14 -14 -15 -15 -15 -15 -15 -15 -15 -15 -15 -15 -15 -15 -16 -16 -16 -16 -17 -17 -17 -17 -17 -17 -17 -17
-16 -16 -16 -15 -16 -15 -15 -15 -15 -15 -15 -15 -14 -14 -14 -14 -14 -14 -14 -15 -15 -15 -15 -16 -16 -17 -17 -16 -15 -16 -16 -15 -16 -16 -17 -17 -17 -17 -17 -17 -18 -17 -17 -17
-15 -15 -16 -16 -16 -15 -16 -16 -16 -15 -15 -15 -15 -14 -14 -14 -14 -14 -15 -15 -15 -16 -15 -16 -16 -16 -16 -17 -17 -17 -17 -17 -17 -17 -17 -17 -17 -18 -18 -18 -17 -17 -17 -18
-16 -15 -15 -15 -15 -15 -16 -16 -16 -15 -15 -15 -15 -15 -15 -15 -15 -15 -15 -16 -16 -15 -16 -15 -16 -16 -16 -17 -17 -17 -17 -17 -17 -17 -17 -18 -18 -18 -18 -18 -18 -18 -18 -18
-15 -15 -15 -15 -15 -15 -15 -15 -15 -15 -15 -15 -15 -15 -15 -15 -15 -15 -16 -16 -16 -15 -16 -16 -16 -17 -17 -17 -17 -17 -17 -17 -17 -18 -18 -18 -18 -18 -18 -18 -18 -19 -19 -19
-15 -15 -15 -15 -15 -15 -15 -15 -15 -15 -15 -15 -15 -15 -15 -15 -16 -16 -16 -16 -16 -16 -16 -16 -16 -16 -17 -17 -17 -17 -18 -18 -18 -18 -18 -18 -18 -18 -18 -18 -18 -18 -18 -19
-15 -15 -15 -15 -15 -15 -15 -15 -15 -15 -15 -15 -15 -15 -14 -15 -15 -16 -16 -16 -16 -16 -16 -17 -16 -17 -18 -17 -18 -18 -18 -18 -18 -18 -19 -18 -18 -18 -17 -18 -18 -18 -18 -18
-15 -15 -15 -15 -15 -15 -15 -15 -15 -15 -15 -14 -15 -15 -15 -15 -15 -15 -15 -16 -16 -16 -16 -17 -17 -17 -18 -18 -18 -17 -17 -17 -17 -17 -17 -17 -17 -17 -17 -18 -18 -18 -19 -19
-15 -15 -15 -15 -15 -15 -14 -14 -14 -15 -15 -14 -14 -14 -15 -15 -15 -15 -16 -16 -17 -17 -17 -17 -17 -17 -17 -17 -18 -18 -18 -18 -18 -17 -17 -17 -17 -18 -18 -18 -19 -20 -20 -20
-15 -15 -15 -15 -15 -14 -14 -14 -14 -15 -14 -14 -14 -14 -14 -14 -14 -15 -15 -15 -16 -17 -17 -17 -17 -17 -17 -17 -18 -18 -18 -18 -18 -18 -18 -18 -18 -18 -18 -19 -19 -20 -20 -20
-15 -15 -15 -15 -14 -14 -14 -14 -14 -14 -14 -14 -14 -14 -14 -14 -14 -14 -15 -15 -15 -16 -16 -16 -17 -17 -18 -18 -18 -18 -18 -18 -18 -18 -18 -18 -18 -18 -19 -19 -19 -20 -21 -22
-15 -15 -15 -15 -15 -15 -15 -14 -14 -14 -14 -14 -14 -14 -14 -15 -15 -15 -15 -15 -16 -16 -16 -16 -17 -18 -19 -19 -19 -19 -19 -19 -19 -19 -18 -18 -19 -19 -19 -20 -20 -21 -22 -23
-15 -15 -15 -15 -15 -15 -15 -14 -14 -14 -14 -14 -14 -14 -15 -15 -15 -15 -15 -16 -16 -16 -17 -17 -17 -18 -19 -19 -19 -19 -19 -19 -19 -19 -19 -19 -19 -19 -20 -20 -21 -22 -23 -24
-15 -15 -15 -15 -15 -15 -15 -15 -15 -14 -15 -15 -15 -15 -15 -15 -15 -15 -16 -16 -16 -17 -17 -17 -18 -18 -18 -19 -19 -19 -19 -19 -19 -19 -19 -19 -19 -20 -20 -21 -22 -23 -24 -24
-15 -15 -15 -15 -15 -15 -15 -15 -15 -15 -15 -15 -15 -15 -15 -15 -15 -16 -16 -16 -17 -17 -17 -18 -18 -18 -19 -20 -20 -20 -20 -19 -19 -19 -19 -20 -20 -20 -21 -23 -23 -24 -25 -27
-15 -15 -15 -15 -15 -15 -15 -15 -15 -15 -15 -15 -15 -15 -15 -16 -16 -16 -16 -17 -17 -18 -18 -18 -19 -19 -20 -20 -20 -20 -20 -20 -20 -20 -20 -20 -21 -22 -23 -23 -24 -25 -27 -29
-15 -15 -15 -15 -15 -15 -15 -15 -15 -16 -15 -15 -15 -16 -16 -16 -16 -16 -17 -17 -18 -18 -18 -18 -19 -19 -20 -20 -20 -20 -20 -20 -20 -20 -20 -21 -22 -23 -23 -24 -25 -27 -29 -31
-15 -16 -16 -15 -15 -15 -15 -15 -16 -16 -16 -16 -15 -16 -16 -16 -16 -17 -17 -17 -18 -18 -19 -19 -19 -19 -20 -20 -20 -20 -20 -20 -20 -20 -21 -22 -23 -23 -24 -26 -27 -29 -31 -32
-16 -16 -16 -16 -16 -15 -15 -16 -16 -16 -16 -16 -16 -16 -16 -16 -16 -17 -17 -18 -18 -19 -19 -19 -19 -20 -20 -20 -20 -20 -20 -20 -21 -21 -23 -23 -23 -24 -26 -27 -29 -30 -31 -32
-16 -16 -16 -16 -16 -15 -15 -16 -16 -16 -16 -16 -16 -16 -16 -16 -17 -17 -18 -18 -19 -19 -19 -19 -20 -20 -20 -20 -20 -20 -20 -21 -21 -23 -23 -24 -24 -26 -27 -28 -30 -31 -32 -32
-16 -16 -16 -16 -16 -15 -16 -16 -16 -16 -16 -16 -16 -16 -16 -17 -17 -17 -18 -19 -19 -19 -19 -20 -20 -20 -20 -20 -20 -21 -21 -22 -23 -23 -24 -25 -26 -27 -28 -30 -31 -31 -32 -33
-15 -16 -16 -17 -16 -16 -16 -16 -17 -17 -16 -17 -17 -17 -17 -17 -17 -18 -18 -19 -19 -20 -20 -20 -21 -21 -21 -21 -21 -21 -22 -23 -23 -24 -25 -26 -27 -28 -29 -30 -31 -32 -33 -33
-16 -17 -16 -17 -17 -17 -17 -16 -17 -16 -17 -17 -17 -17 -17 -17 -18 -18 -19 -19 -20 -20 -20 -21 -21 -21 -21 -21 -22 -22 -23 -24 -24 -25 -26 -27 -28 -29 -30 -31 -32 -32 -33 -33
-17 -17 -17 -17 -17 -17 -17 -17 -17 -17 -17 -17 -17 -17 -17 -18 -18 -19 -19 -20 -20 -20 -20 -21 -21 -21 -22 -22 -23 -23 -24 -24 -25 -26 -28 -28 -29 -30 -31 -31 -32 -33 -33 -33
-17 -17 -18 -17 -17 -17 -17 -17 -17 -17 -17 -17 -17 -18 -18 -19 -19 -19 -20 -20 -20 -20 -21 -21 -22 -22 -22 -23 -24 -24 -24 -25 -26 -28 -29 -30 -30 -31 -32 -32 -33 -33 -34 -34
-18 -18 -18 -17 -18 -17 -17 -18 -18 -18 -18 -18 -18 -19 -19 -19 -20 -20 -21 -21 -21 -21 -21 -22 -23 -23 -23 -24 -24 -24 -25 -26 -28 -28 -29 -30 -31 -31 -32 -33 -33 -34 -34 -34

GFSCGP_500_temp_012.txt.gz
Temp
-17 -17 -17 -17 -17 -16 -16 -16 -16 -16 -15 -15 -15 -15 -15 -15 -15 -14 -14 -14 -14 -15 -15 -15 -14 -14 -14 -15 -15 -15 -15 -16 -16 -16 -16 -16 -16 -17 -17 -17 -17 -17 -17 -17
-17 -17 -17 -16 -16 -16 -15 -15 -15 -15 -15 -15 -15 -15 -14 -14 -14 -14 -14 -15 -15 -16 -15 -15 -15 -15 -15 -15 -15 -15 -16 -16 -16 -16 -16 -16 -17 -17 -17 -18 -18 -17 -17 -17
-16 -16 -16 -16 -16 -16 -16 -15 -15 -16 -16 -15 -15 -15 -14 -14 -14 -14 -14 -15 -15 -15 -15 -16 -16 -16 -16 -16 -16 -16 -16 -16 -17 -17 -17 -18 -18 -18 -18 -18 -17 -17 -17 -17
-17 -17 -17 -16 -16 -16 -15 -16 -15 -16 -16 -16 -16 -15 -15 -15 -14 -15 -15 -15 -15 -15 -16 -16 -16 -16 -16 -17 -16 -17 -17 -17 -17 -17 -18 -18 -18 -18 -18 -18 -18 -18 -18 -19
-16 -16 -16 -16 -16 -15 -15 -15 -15 -16 -16 -16 -16 -15 -15 -14 -15 -15 -15 -15 -16 -16 -16 -16 -16 -16 -16 -17 -17 -17 -16 -17 -17 -18 -18 -18 -18 -18 -19 -19 -20 -20 -19 -18
-16 -16 -16 -16 -15 -15 -15 -15 -15 -15 -15 -15 -15 -15 -14 -15 -15 -15 -16 -16 -16 -16 -16 -16 -17 -16 -16 -16 -16 -17 -18 -18 -18 -18 -18 -19 -19 -19 -19 -19 -18 -18 -18 -18
-16 -15 -15 -15 -15 -15 -15 -15 -15 -15 -15 -15 -15 -15 -14 -15 -15 -16 -16 -16 -16 -16 -16 -16 -17 -16 -16 -17 -17 -18 -18 -18 -18 -18 -18 -18 -18 -18 -18 -18 -17 -18 -18 -18
-16 -16 -15 -15 -15 -15 -15 -15 -15 -15 -15 -15 -15 -14 -14 -15 -15 -15 -16 -16 -16 -16 -16 -16 -17 -17 -16 -17 -17 -17 -18 -18 -18 -17 -18 -18 -18 -18 -18 -18 -18 -18 -18 -18
-15 -15 -15 -15 -15 -15 -15 -15 -15 -15 -15 -15 -14 -14 -14 -15 -15 -15 -15 -15 -15 -15 -16 -16 -16 -17 -17 -17 -17 -17 -18 -18 -18 -18 -18 -18 -18 -18 -18 -18 -18 -18 -19 -19
-15 -15 -15 -15 -15 -15 -15 -15 -15 -15 -14 -14 -14 -14 -14 -14 -14 -14 -15 -15 -15 -15 -15 -15 -16 -16 -16 -17 -17 -18 -18 -18 -18 -18 -19 -19 -18 -18 -18 -18 -19 -19 -19 -20
-15 -15 -15 -15 -15 -15 -15 -15 -15 -15 -14 -14 -14 -14 -14 -14 -14 -14 -15 -15 -15 -15 -15 -16 -16 -16 -16 -17 -17 -18 -18 -19 -19 -19 -19 -19 -19 -19 -19 -19 -19 -20 -20 -20
-15 -15 -15 -15 -15 -15 -15 -15 -15 -15 -15 -14 -14 -14 -14 -14 -14 -15 -15 -15 -15 -15 -15 -16 -16 -16 -17 -17 -18 -18 -18 -19 -19 -19 -19 -19 -19 -19 -19 -19 -20 -20 -20 -21
-15 -15 -15 -15 -15 -15 -15 -15 -15 -15 -15 -15 -14 -14 -15 -15 -15 -15 -15 -15 -15 -15 -15 -16 -16 -17 -17 -18 -18 -19 -19 -20 -20 -20 -19 -19 -19 -19 -20 -20 -20 -21 -21 -22
-15 -15 -15 -15 -15 -15 -15 -15 -15 -15 -15 -15 -15 -15 -15 -15 -15 -15 -15 -15 -15 -16 -16 -16 -17 -17 -18 -18 -18 -19 -19 -20 -20 -20 -20 -20 -20 -20 -20 -21 -21 -22 -22 -23
-15 -15 -15 -15 -15 -15 -15 -15 -15 -15 -15 -15 -15 -15 -15 -15 -15 -15 -16 -16 -16 -16 -16 -16 -17 -18 -18 -18 -19 -19 -20 -20 -20 -20 -20 -20 -20 -20 -21 -21 -22 -22 -23 -24
-15 -15 -15 -15 -15 -15 -15 -15 -15 -15 -15 -15 -15 -15 -15 -15 -15 -15 -16 -16 -16 -16 -16 -17 -17 -18 -19 -19 -19 -20 -20 -20 -20 -20 -21 -20 -20 -21 -21 -22 -22 -23 -24 -26
-15 -15 -15 -15 -15 -15 -15 -15 -15 -15 -15 -15 -15 -16 -16 -16 -16 -16 -16 -16 -16 -17 -17 -17 -17 -18 -19 -20 -20 -20 -21 -21 -21 -21 -20 -20 -21 -21 -22 -22 -23 -24 -26 -27
-15 -15 -15 -15 -15 -15 -15 -15 -15 -16 -16 -16 -16 -16 -16 -16 -16 -16 -16 -16 -17 -17 -17 -18 -18 -19 -20 -20 -20 -21 -21 -21 -21 -21 -21 -21 -21 -22 -23 -24 -25 -26 -27 -29
-15 -15 -15 -15 -15 -15 -15 -15 -16 -16 -16 -16 -16 -16 -16 -16 -16 -17 -16 -17 -17 -18 -18 -19 -19 -20 -20 -20 -21 -21 -21 -21 -21 -21 -21 -22 -22 -23 -24 -25 -27 -28 -29 -30
-15 -15 -15 -16 -16 -15 -15 -16 -16 -16 -15 -17 -16 -16 -16 -16 -16 -17 -17 -17 -18 -18 -19 -20 -20 -20 -20 -20 -21 -21 -21 -21 -22 -22 -22 -23 -23 -24 -25 -27 -28 -29 -30 -31
-15 -15 -15 -15 -15 -15 -16 -16 -16 -16 -16 -16 -16 -17 -17 -17 -17 -17 -17 -18 -19 -19 -19 -20 -20 -20 -20 -21 -21 -21 -22 -22 -22 -23 -23 -24 -24 -25 -27 -28 -29 -30 -31 -31
-15 -15 -16 -16 -16 -15 -16 -17 -17 -17 -17 -17 -17 -17 -17 -17 -17 -17 -18 -18 -19 -19 -20 -20 -20 -21 -21 -21 -21 -22 -22 -23 -23 -23 -24 -24 -25 -27 -28 -29 -30 -31 -31 -32
-15 -16 -16 -16 -16 -16 -17 -17 -17 -17 -17 -17 -17 -18 -18 -18 -18 -18 -18 -18 -19 -19 -20 -21 -21 -21 -21 -22 -22 -23 -23 -23 -24 -24 -24 -25 -26 -28 -29 -30 -31 -31 -32 -33
-16 -16 -16 -16 -17 -17 -17 -17 -17 -17 -18 -18 -18 -18 -18 -18 -18 -18 -19 -19 -19 -20 -21 -21 -22 -21 -22 -23 -23 -23 -23 -24 -24 -24 -25 -26 -27 -29 -30 -31 -31 -32 -33 -33
-16 -17 -17 -16 -17 -17 -18 -18 -18 -18 -18 -18 -18 -18 -19 -19 -19 -19 -20 -20 -20 -21 -21 -22 -22 -22 -22 -23 -24 -24 -24 -24 -24 -25 -27 -28 -29 -29 -31 -32 -32 -33 -33 -33
-17 -18 -18 -17 -17 -17 -17 -18 -18 -18 -18 -18 -19 -19 -19 -19 -20 -20 -20 -20 -21 -20 -21 -22 -22 -23 -23 -24 -24 -24 -25 -25 -26 -27 -28 -29 -30 -30 -31 -32 -33 -33 -33 -33

GFSCGP_500_temp_015.txt.gz
Temp
-17 -17 -16 -17 -17 -16 -16 -16 -16 -15 -15 -15 -15 -15 -16 -16 -16 -16 -15 -15 -15 -15 -15 -15 -15 -15 -15 -15 -15 -15 -15 -16 -15 -15 -16 -16 -16 -16 -17 -17 -17 -18 -18 -18
-17 -17 -17 -16 -16 -16 -16 -16 -16 -16 -16 -15 -16 -16 -15 -15 -15 -15 -15 -15 -15 -15 -15 -15 -15 -16 -15 -15 -15 -15 -15 -15 -15 -16 -16 -16 -16 -17 -17 -18 -18 -18 -18 -18
-17 -17 -17 -17 -16 -16 -16 -17 -16 -16 -16 -16 -16 -15 -15 -15 -15 -15 -15 -15 -15 -15 -15 -15 -16 -15 -15 -15 -16 -16 -15 -16 -16 -17 -16 -17 -17 -18 -18 -18 -18 -18 -18 -18
-17 -17 -17 -17 -16 -17 -16 -17 -16 -16 -16 -16 -16 -15 -15 -15 -15 -15 -15 -15 -15 -15 -15 -16 -16 -16 -16 -16 -16 -16 -17 -17 -17 -16 -16 -17 -17 -18 -18 -18 -18 -19 -19 -19
-17 -17 -17 -17 -17 -17 -16 -16 -16 -16 -16 -15 -15 -15 -15 -15 -15 -15 -15 -15 -15 -15 -16 -16 -16 -16 -15 -16 -17 -16 -17 -17 -16 -17 -18 -18 -18 -19 -19 -19 -19 -19 -19 -18
-17 -17 -17 -17 -17 -16 -16 -16 -16 -16 -15 -15 -15 -15 -14 -15 -15 -15 -15 -15 -15 -16 -17 -16 -16 -16 -16 -16 -16 -16 -16 -16 -17 -17 -18 -18 -19 -19 -18 -18 -18 -18 -18 -18
-17 -16 -16 -16 -16 -16 -16 -16 -15 -15 -15 -15 -15 -15 -15 -15 -15 -15 -15 -15 -16 -16 -16 -16 -16 -16 -16 -16 -16 -16 -16 -16 -17 -17 -18 -18 -18 -18 -18 -18 -18 -18 -18 -18
-16 -16 -16 -16 -16 -16 -15 -15 -15 -15 -15 -15 -15 -14 -15 -15 -15 -15 -14 -14 -15 -15 -15 -15 -15 -15 -15 -16 -16 -16 -16 -17 -17 -17 -17 -18 -18 -18 -19 -18 -18 -19 -19 -19
-16 -15 -16 -15 -15 -15 -15 -15 -15 -15 -15 -15 -14 -14 -14 -14 -14 -14 -14 -14 -15 -15 -15 -15 -15 -15 -16 -16 -16 -16 -16 -17 -17 -17 -18 -18 -18 -18 -19 -19 -19 -19 -19 -19
-15 -15 -15 -15 -15 -15 -15 -15 -15 -15 -15 -14 -14 -14 -14 -14 -15 -15 -15 -15 -15 -15 -15 -15 -15 -16 -16 -16 -16 -16 -17 -17 -17 -18 -18 -18 -19 -20 -20 -20 -20 -19 -19 -19
-16 -15 -15 -15 -15 -15 -15 -15 -15 -15 -15 -14 -14 -15 -15 -15 -15 -15 -15 -15 -15 -15 -15 -15 -15 -16 -16 -16 -16 -16 -17 -18 -18 -18 -19 -19 -20 -20 -20 -19 -19 -20 -20 -20
-16 -16 -15 -15 -15 -15 -15 -15 -15 -15 -15 -15 -15 -15 -15 -15 -15 -15 -15 -15 -15 -15 -15 -15 -15 -15 -16 -16 -16 -16 -18 -18 -19 -19 -20 -20 -20 -20 -20 -20 -20 -20 -20 -21
-16 -16 -15 -15 -15 -15 -15 -15 -15 -15 -15 -15 -15 -15 -15 -15 -15 -15 -15 -15 -15 -15 -15 -15 -16 -16 -16 -16 -17 -17 -18 -18 -19 -20 -20 -20 -20 -20 -20 -20 -20 -20 -21 -21
-16 -16 -15 -15 -15 -15 -15 -15 -15 -15 -15 -15 -15 -15 -15 -15 -15 -15 -15 -15 -15 -16 -16 -16 -16 -16 -17 -17 -18 -18 -19 -20 -20 -20 -20 -20 -20 -20 -20 -20 -21 -21 -21 -22
-15 -15 -15 -15 -15 -15 -15 -15 -15 -15 -15 -15 -15 -15 -15 -15 -15 -15 -15 -16 -16 -16 -16 -16 -17 -17 -17 -18 -18 -19 -19 -20 -20 -20 -20 -20 -20 -21 -21 -21 -21 -22 -22 -23
-15 -15 -15 -15 -15 -15 -15 -15 -15 -15 -15 -15 -15 -15 -15 -15 -15 -16 -16 -16 -16 -16 -16 -17 -17 -17 -18 -18 -19 -20 -20 -20 -20 -20 -21 -21 -21 -21 -22 -22 -22 -22 -23 -23
-15 -15 -15 -15 -15 -15 -15 -15 -15 -15 -15 -15 -15 -16 -16 -16 -16 -16 -16 -16 -16 -16 -17 -17 -17 -17 -18 -19 -19 -20 -20 -20 -21 -21 -21 -22 -22 -22 -22 -22 -23 -23 -23 -24
-15 -15 -15 -15 -15 -15 -15 -15 -15 -15 -16 -16 -16 -16 -16 -16 -16 -16 -17 -17 -17 -17 -17 -17 -18 -18 -18 -19 -20 -20 -20 -21 -21 -21 -22 -22 -22 -23 -23 -23 -23 -24 -25 -26
-15 -15 -15 -15 -15 -14 -15 -15 -15 -15 -15 -16 -16 -16 -16 -16 -16 -17 -17 -17 -17 -18 -18 -18 -18 -19 -19 -20 -20 -20 -21 -21 -22 -22 -22 -23 -23 -23 -23 -23 -24 -25 -26 -28
-15 -15 -15 -15 -15 -14 -15 -15 -15 -16 -15 -16 -16 -16 -16 -17 -17 -17 -17 -18 -18 -18 -18 -19 -19 -19 -20 -20 -21 -21 -22 -22 -22 -23 -23 -23 -23 -24 -24 -24 -25 -26 -28 -29
-15 -14 -14 -15 -15 -14 -15 -16 -16 -16 -16 -16 -16 -17 -17 -17 -17 -18 -18 -18 -18 -19 -19 -19 -20 -20 -20 -21 -21 -22 -22 -22 -22 -23 -23 -23 -24 -24 -24 -25 -26 -28 -29 -30
-15 -15 -15 -15 -15 -15 -16 -16 -16 -16 -16 -17 -17 -17 -18 -18 -18 -18 -18 -19 -19 -19 -19 -19 -20 -20 -20 -20 -21 -22 -22 -23 -23 -23 -23 -24 -24 -24 -25 -26 -27 -29 -30 -31
-15 -15 -15 -15 -16 -16 -16 -16 -16 -16 -17 -17 -17 -18 -18 -18 -18 -18 -19 -19 -19 -19 -19 -20 -20 -20 -20 -21 -22 -22 -22 -23 -23 -23 -24 -24 -24 -25 -26 -27 -28 -30 -31 -32
-15 -15 -15 -16 -17 -17 -17 -16 -17 -17 -17 -18 -18 -18 -18 -18 -18 -18 -19 -19 -19 -20 -20 -20 -20 -20 -21 -21 -22 -22 -23 -23 -24 -24 -24 -24 -25 -26 -27 -28 -30 -31 -32 -33
-15 -16 -16 -16 -17 -16 -17 -17 -17 -18 -18 -18 -18 -19 -19 -19 -19 -19 -19 -20 -20 -20 -21 -21 -21 -21 -21 -22 -23 -23 -23 -23 -23 -24 -24 -25 -26 -27 -28 -29 -31 -32 -33 -33
-17 -17 -16 -16 -17 -17 -17 -18 -18 -18 -18 -18 -19 -19 -19 -19 -19 -20 -20 -20 -21 -21 -21 -21 -21 -21 -22 -23 -23 -25 -24 -24 -24 -25 -25 -26 -27 -28 -29 -30 -31 -32 -33 -33

GFSCGP_500_temp_018.txt.gz
Temp
-17 -17 -17 -17 -17 -16 -16 -16 -16 -16 -16 -16 -16 -17 -16 -16 -16 -16 -16 -16 -15 -15 -15 -15 -15 -15 -15 -15 -15 -15 -15 -15 -16 -16 -16 -15 -15 -16 -16 -17 -17 -17 -18 -18
-17 -17 -17 -16 -17 -17 -16 -16 -17 -17 -16 -16 -16 -16 -16 -16 -16 -16 -15 -15 -15 -15 -15 -15 -15 -15 -15 -15 -15 -15 -16 -16 -15 -15 -15 -15 -16 -16 -16 -17 -17 -18 -18 -18
-16 -16 -16 -16 -17 -17 -17 -17 -17 -16 -16 -16 -16 -16 -15 -15 -15 -15 -15 -15 -15 -15 -15 -15 -15 -16 -16 -16 -15 -15 -15 -15 -15 -15 -16 -17 -17 -16 -17 -17 -17 -18 -18 -18
-17 -17 -17 -17 -17 -17 -16 -16 -17 -16 -16 -16 -16 -15 -15 -15 -15 -15 -15 -15 -15 -15 -15 -16 -16 -16 -16 -16 -15 -15 -15 -15 -15 -16 -16 -16 -16 -17 -18 -18 -19 -19 -19 -19
-17 -18 -17 -17 -17 -16 -17 -16 -16 -16 -16 -16 -15 -15 -15 -15 -15 -15 -15 -15 -15 -15 -16 -16 -16 -16 -16 -15 -15 -15 -15 -15 -16 -16 -15 -16 -17 -17 -18 -18 -19 -19 -19 -19
-17 -17 -17 -17 -17 -17 -17 -16 -16 -16 -16 -16 -15 -15 -15 -15 -15 -15 -15 -15 -15 -16 -16 -16 -16 -15 -15 -15 -15 -15 -15 -15 -15 -15 -16 -16 -17 -17 -17 -18 -18 -18 -19 -19
-17 -17 -17 -17 -17 -17 -16 -16 -16 -16 -15 -15 -15 -15 -15 -15 -15 -15 -15 -15 -15 -15 -15 -15 -15 -14 -15 -15 -15 -15 -15 -15 -15 -16 -16 -16 -17 -17 -18 -18 -18 -19 -19 -20
-17 -17 -17 -17 -16 -16 -16 -16 -16 -16 -15 -15 -15 -14 -15 -15 -15 -14 -14 -15 -15 -14 -15 -15 -15 -15 -15 -15 -15 -15 -15 -15 -16 -16 -16 -17 -17 -17 -18 -19 -19 -19 -19 -19
-17 -16 -16 -16 -16 -16 -16 -16 -16 -15 -15 -15 -15 -15 -15 -14 -14 -14 -14 -14 -14 -15 -15 -15 -15 -15 -15 -15 -15 -15 -16 -16 -16 -17 -17 -18 -18 -18 -19 -18 -19 -20 -19 -19
-16 -16 -16 -16 -15 -15 -15 -15 -15 -15 -15 -15 -15 -15 -14 -14 -14 -14 -14 -14 -15 -15 -15 -15 -15 -15 -15 -15 -15 -16 -16 -16 -16 -17 -18 -18 -18 -19 -19 -20 -20 -20 -20 -20
-16 -16 -15 -15 -15 -15 -15 -15 -15 -15 -15 -15 -15 -15 -14 -14 -14 -14 -14 -15 -15 -15 -15 -15 -15 -15 -15 -15 -16 -16 -16 -16 -17 -17 -18 -18 -18 -19 -20 -20 -20 -20 -20 -20
-16 -15 -15 -15 -15 -15 -15 -15 -15 -15 -15 -15 -15 -15 -15 -15 -15 -15 -15 -15 -15 -15 -15 -15 -15 -15 -16 -16 -16 -16 -16 -17 -17 -18 -18 -18 -19 -20 -20 -20 -20 -20 -20 -20
-15 -15 -16 -15 -15 -15 -15 -15 -15 -15 -15 -15 -15 -15 -15 -15 -15 -15 -15 -15 -15 -15 -15 -16 -16 -16 -16 -16 -16 -17 -17 -17 -18 -19 -19 -19 -20 -20 -20 -20 -21 -20 -21 -21
-16 -15 -15 -15 -15 -15 -15 -15 -15 -15 -15 -15 -15 -15 -15 -15 -15 -15 -15 -15 -15 -16 -16 -16 -16 -16 -16 -17 -17 -17 -17 -18 -19 -19 -19 -20 -20 -20 -21 -21 -21 -21 -22 -22
-15 -15 -15 -15 -15 -15 -15 -15 -15 -15 -15 -15 -15 -15 -16 -15 -15 -15 -15 -15 -16 -16 -16 -16 -16 -17 -17 -17 -17 -18 -18 -19 -19 -19 -20 -20 -20 -21 -21 -21 -22 -22 -22 -22
-15 -15 -15 -15 -15 -15 -15 -15 -15 -15 -15 -15 -15 -15 -16 -15 -16 -16 -16 -16 -16 -16 -16 -16 -17 -17 -17 -18 -18 -18 -19 -19 -19 -19 -20 -20 -21 -21 -21 -22 -22 -23 -23 -23
-15 -15 -15 -15 -15 -15 -14 -15 -15 -15 -15 -15 -15 -16 -15 -15 -16 -16 -16 -16 -16 -16 -17 -17 -17 -18 -18 -18 -18 -19 -19 -19 -19 -20 -21 -21 -21 -22 -22 -22 -23 -23 -23 -23
-15 -15 -15 -15 -15 -14 -15 -15 -15 -15 -15 -15 -16 -16 -16 -16 -16 -16 -16 -16 -17 -17 -17 -18 -18 -18 -18 -19 -19 -19 -19 -20 -20 -21 -21 -21 -22 -22 -22 -23 -23 -23 -23 -24
-15 -15 -15 -15 -15 -14 -15 -15 -15 -15 -15 -16 -16 -16 -16 -16 -16 -16 -17 -17 -17 -18 -18 -18 -18 -19 -19 -19 -19 -20 -20 -21 -21 -21 -21 -22 -22 -22 -23 -23 -23 -23 -24 -24
-15 -15 -15 -15 -15 -14 -15 -15 -15 -15 -15 -15 -15 -16 -16 -16 -16 -17 -17 -18 -18 -18 -18 -19 -19 -19 -19 -20 -20 -20 -20 -21 -21 -21 -22 -22 -22 -23 -23 -24 -23 -24 -24 -24
-15 -15 -15 -15 -15 -14 -15 -15 -15 -15 -15 -15 -15 -16 -16 -17 -17 -18 -18 -18 -18 -19 -19 -19 -19 -19 -19 -20 -20 -20 -21 -21 -21 -22 -22 -22 -23 -23 -24 -24 -24 -24 -24 -25
-15 -15 -15 -15 -15 -14 -15 -15 -15 -15 -15 -15 -16 -16 -17 -17 -18 -18 -18 -18 -19 -19 -19 -19 -19 -19 -19 -20 -20 -21 -21 -21 -22 -22 -23 -23 -24 -25 -24 -24 -24 -24 -25 -27
-15 -15 -15 -15 -15 -15 -15 -15 -15 -15 -16 -16 -17 -17 -17 -18 -18 -18 -18 -19 -19 -19 -19 -19 -20 -20 -20 -20 -20 -21 -21 -22 -22 -22 -23 -24 -25 -25 -24 -24 -25 -25 -27 -28
-15 -15 -15 -15 -15 -15 -15 -15 -16 -16 -16 -17 -17 -18 -18 -18 -18 -19 -19 -19 -19 -19 -20 -20 -20 -20 -21 -21 -21 -22 -22 -22 -22 -23 -24 -24 -25 -25 -25 -25 -26 -27 -28 -29
-15 -15 -15 -15 -16 -16 -16 -17 -17 -17 -17 -17 -18 -18 -18 -19 -19 -19 -19 -19 -19 -20 -20 -20 -20 -20 -21 -21 -21 -22 -22 -22 -23 -24 -24 -24 -25 -26 -26 -26 -27 -28 -29 -30
-16 -15 -16 -16 -16 -17 -17 -17 -17 -18 -18 -18 -18 -18 -19 -19 -19 -19 -19 -19 -20 -20 -20 -20 -21 -21 -22 -22 -21 -21 -22 -23 -24 -24 -25 -25 -26 -27 -27 -27 -28 -29 -30 -31

GFSCGP_500_temp_021.txt.gz
Temp
-17 -16 -16 -16 -16 -16 -16 -16 -16 -16 -16 -16 -17 -16 -15 -16 -16 -16 -16 -16 -16 -15 -15 -15 -15 -15 -15 -15 -15 -15 -15 -15 -15 -15 -15 -15 -15 -15 -15 -15 -16 -17 -17 -18
-16 -16 -16 -16 -17 -16 -16 -16 -16 -16 -16 -16 -16 -16 -16 -16 -16 -16 -16 -16 -16 -16 -16 -16 -16 -16 -16 -16 -15 -15 -15 -15 -15 -15 -15 -15 -15 -15 -15 -16 -16 -16 -17 -17
-16 -16 -17 -16 -16 -17 -16 -16 -16 -16 -16 -16 -16 -15 -16 -16 -16 -16 -16 -16 -16 -16 -16 -16 -16 -16 -16 -16 -16 -15 -16 -15 -15 -15 -15 -15 -15 -15 -15 -16 -16 -16 -17 -18
-17 -16 -17 -17 -16 -16 -16 -16 -16 -16 -16 -16 -16 -15 -15 -15 -15 -16 -16 -16 -16 -16 -16 -16 -16 -16 -16 -16 -15 -15 -15 -15 -15 -15 -15 -15 -15 -15 -15 -16 -16 -16 -17 -18
-16 -17 -17 -16 -16 -16 -16 -16 -16 -16 -15 -15 -15 -15 -15 -15 -15 -15 -15 -16 -16 -16 -16 -15 -16 -16 -15 -15 -15 -15 -15 -15 -15 -15 -15 -15 -15 -15 -15 -16 -17 -17 -17 -18
-16 -17 -17 -16 -17 -17 -16 -16 -16 -16 -16 -16 -15 -15 -15 -15 -15 -15 -15 -15 -15 -15 -15 -15 -16 -15 -15 -14 -15 -15 -14 -14 -15 -15 -15 -15 -15 -16 -16 -16 -17 -17 -18 -18
-17 -17 -17 -17 -17 -17 -17 -17 -16 -16 -15 -16 -15 -15 -15 -15 -15 -15 -15 -15 -15 -15 -15 -15 -15 -14 -14 -14 -14 -15 -15 -15 -15 -15 -15 -15 -16 -16 -17 -18 -18 -18 -18 -19
-16 -16 -16 -16 -17 -16 -16 -16 -16 -16 -16 -15 -15 -15 -15 -15 -15 -15 -14 -14 -14 -15 -15 -14 -14 -14 -14 -14 -15 -15 -15 -15 -15 -15 -16 -16 -16 -17 -18 -18 -18 -18 -19 -19
-16 -16 -16 -16 -16 -17 -17 -16 -16 -16 -16 -15 -15 -16 -15 -15 -14 -14 -14 -14 -14 -14 -14 -14 -14 -14 -14 -14 -15 -15 -15 -15 -15 -16 -16 -16 -17 -17 -18 -18 -18 -19 -19 -19
-17 -17 -16 -16 -16 -16 -16 -15 -16 -16 -16 -15 -15 -15 -15 -15 -14 -14 -14 -14 -14 -14 -14 -14 -14 -14 -15 -15 -15 -15 -15 -16 -16 -16 -17 -17 -17 -18 -18 -18 -19 -19 -19 -20
-17 -16 -16 -16 -16 -16 -15 -15 -15 -16 -16 -15 -15 -15 -15 -15 -14 -14 -14 -14 -14 -14 -14 -15 -15 -15 -15 -15 -15 -15 -16 -16 -16 -17 -17 -17 -18 -18 -19 -19 -19 -20 -20 -20
-16 -16 -16 -16 -15 -15 -15 -15 -15 -15 -15 -15 -15 -15 -15 -15 -14 -14 -15 -15 -15 -15 -15 -15 -15 -15 -15 -16 -16 -16 -16 -16 -17 -17 -17 -18 -19 -19 -19 -19 -20 -20 -20 -21
-16 -16 -15 -15 -15 -15 -15 -15 -15 -15 -15 -15 -15 -15 -14 -15 -15 -15 -15 -15 -15 -15 -15 -15 -15 -16 -16 -16 -16 -16 -17 -17 -18 -18 -18 -18 -19 -19 -19 -20 -20 -20 -21 -21
-16 -15 -15 -16 -17 -16 -15 -15 -15 -15 -14 -15 -15 -15 -15 -15 -15 -15 -15 -15 -15 -15 -16 -16 -16 -16 -16 -17 -17 -17 -17 -18 -18 -18 -19 -19 -19 -20 -20 -20 -20 -21 -21 -21
-15 -15 -16 -16 -16 -16 -15 -15 -15 -15 -15 -15 -15 -15 -15 -16 -15 -15 -15 -15 -16 -16 -16 -16 -16 -16 -17 -17 -17 -18 -18 -18 -19 -19 -19 -19 -20 -20 -20 -20 -21 -21 -21 -22
-15 -15 -15 -15 -15 -15 -15 -15 -15 -15 -15 -15 -15 -15 -16 -15 -15 -15 -15 -16 -16 -16 -16 -17 -17 -17 -17 -17 -18 -18 -19 -19 -19 -19 -20 -20 -20 -20 -21 -21 -21 -22 -22 -22
-15 -15 -15 -15 -15 -15 -14 -15 -15 -15 -15 -15 -15 -15 -16 -15 -15 -16 -16 -16 -16 -16 -17 -17 -17 -18 -18 -18 -19 -19 -19 -19 -19 -20 -20 -20 -21 -21 -21 -21 -22 -22 -22 -23
-16 -16 -15 -15 -15 -15 -15 -15 -15 -15 -15 -16 -15 -15 -15 -15 -16 -16 -16 -16 -16 -17 -17 -18 -18 -18 -19 -19 -19 -19 -19 -19 -19 -20 -20 -21 -21 -21 -21 -21 -22 -22 -22 -23
-16 -15 -15 -15 -15 -15 -15 -15 -15 -15 -15 -15 -15 -15 -15 -15 -16 -16 -16 -16 -17 -17 -18 -18 -18 -19 -19 -19 -19 -19 -19 -20 -20 -20 -21 -20 -21 -21 -21 -22 -22 -23 -23 -24
-15 -15 -15 -15 -15 -14 -14 -15 -14 -14 -15 -14 -15 -15 -15 -15 -16 -17 -17 -17 -17 -18 -18 -18 -18 -19 -19 -19 -20 -19 -20 -20 -20 -20 -20 -21 -22 -22 -22 -22 -23 -23 -24 -24
-15 -15 -15 -15 -15 -14 -14 -14 -14 -14 -14 -15 -15 -15 -15 -16 -16 -17 -17 -17 -17 -18 -18 -18 -19 -19 -19 -19 -20 -20 -20 -20 -20 -20 -21 -21 -22 -22 -22 -22 -24 -24 -24 -24
-15 -15 -15 -15 -15 -14 -14 -14 -14 -14 -14 -15 -15 -15 -16 -16 -16 -16 -17 -18 -18 -18 -18 -19 -19 -19 -19 -19 -20 -20 -20 -20 -21 -21 -21 -21 -21 -22 -23 -24 -24 -24 -24 -24
-15 -15 -15 -15 -15 -15 -14 -14 -14 -15 -15 -15 -15 -16 -16 -16 -17 -17 -18 -18 -19 -19 -19 -19 -19 -19 -19 -20 -20 -21 -21 -20 -21 -21 -21 -21 -22 -23 -25 -24 -25 -25 -26 -27
-15 -15 -15 -15 -15 -15 -15 -15 -15 -15 -15 -16 -16 -16 -17 -18 -18 -18 -18 -19 -19 -19 -19 -19 -19 -20 -20 -20 -21 -21 -21 -21 -21 -21 -21 -22 -24 -25 -24 -25 -25 -27 -28 -28
-15 -15 -15 -15 -16 -15 -16 -15 -15 -16 -16 -17 -17 -17 -18 -18 -18 -18 -19 -19 -19 -19 -19 -19 -20 -20 -20 -21 -21 -21 -21 -21 -22 -22 -23 -23 -24 -25 -25 -26 -27 -28 -29 -29
-16 -15 -16 -16 -15 -16 -16 -16 -17 -17 -17 -17 -17 -18 -18 -18 -18 -19 -19 -19 -19 -19 -19 -20 -20 -21 -21 -21 -22 -22 -22 -22 -22 -22 -24 -24 -25 -25 -27 -28 -29 -29 -30 -30

GFSCGP_500_temp_024.txt.gz
Temp
-17 -17 -17 -16 -16 -16 -16 -16 -16 -16 -15 -15 -16 -16 -15 -15 -15 -15 -15 -15 -15 -14 -15 -15 -15 -15 -15 -15 -15 -15 -15 -15 -15 -15 -15 -15 -15 -14 -14 -14 -14 -14 -14 -15
-17 -17 -16 -16 -16 -16 -16 -15 -16 -16 -15 -15 -16 -16 -15 -15 -15 -15 -15 -15 -15 -15 -15 -15 -16 -15 -15 -15 -15 -15 -15 -15 -15 -15 -15 -15 -14 -14 -14 -14 -14 -15 -15 -15
-16 -16 -16 -16 -16 -16 -16 -16 -16 -16 -15 -15 -16 -16 -16 -15 -15 -15 -15 -15 -15 -15 -15 -15 -15 -15 -15 -15 -15 -15 -15 -15 -15 -15 -15 -14 -14 -14 -14 -14 -15 -15 -15 -16
-16 -16 -16 -16 -16 -16 -16 -15 -16 -15 -15 -15 -16 -15 -15 -15 -15 -15 -15 -15 -14 -15 -15 -15 -15 -15 -15 -16 -15 -15 -15 -15 -14 -14 -14 -14 -14 -14 -15 -15 -15 -15 -16 -16
-16 -16 -17 -16 -16 -15 -16 -16 -15 -16 -16 -16 -15 -16 -15 -15 -14 -15 -16 -16 -15 -15 -15 -15 -15 -15 -15 -15 -15 -15 -14 -14 -14 -15 -15 -14 -15 -15 -15 -15 -15 -16 -16 -17
-16 -15 -15 -15 -16 -16 -16 -16 -15 -16 -16 -15 -15 -15 -15 -15 -15 -15 -16 -16 -15 -15 -15 -15 -15 -15 -15 -15 -15 -14 -14 -14 -15 -15 -15 -15 -15 -15 -15 -16 -16 -17 -17 -17
-16 -16 -16 -16 -16 -16 -15 -16 -16 -15 -16 -16 -15 -15 -15 -15 -14 -15 -14 -15 -15 -15 -14 -15 -15 -15 -14 -14 -14 -14 -14 -14 -15 -15 -15 -15 -15 -16 -16 -16 -17 -17 -17 -18
-16 -15 -17 -16 -16 -16 -16 -16 -16 -15 -15 -15 -15 -15 -15 -15 -15 -15 -15 -14 -15 -14 -14 -14 -14 -14 -14 -14 -14 -14 -15 -15 -15 -15 -15 -16 -16 -16 -16 -17 -17 -17 -18 -18
-16 -15 -15 -16 -15 -16 -16 -16 -16 -16 -16 -15 -15 -15 -15 -14 -15 -15 -14 -14 -14 -14 -14 -14 -14 -14 -14 -14 -15 -15 -15 -15 -15 -15 -16 -16 -16 -17 -17 -17 -18 -18 -18 -19
-16 -15 -15 -16 -16 -16 -16 -15 -15 -15 -15 -15 -15 -15 -15 -15 -15 -15 -14 -14 -14 -14 -14 -14 -14 -14 -15 -15 -15 -15 -15 -15 -16 -16 -16 -17 -17 -17 -17 -18 -18 -19 -20 -20
-17 -16 -16 -15 -16 -16 -15 -16 -15 -15 -16 -15 -15 -16 -16 -15 -15 -15 -14 -14 -14 -14 -14 -14 -15 -15 -15 -15 -15 -16 -16 -16 -16 -17 -17 -17 -17 -18 -18 -18 -19 -19 -20 -20
-16 -16 -16 -15 -15 -15 -15 -15 -15 -15 -15 -15 -15 -15 -15 -15 -15 -15 -15 -15 -14 -14 -15 -15 -15 -15 -15 -15 -16 -16 -16 -17 -17 -17 -17 -18 -18 -18 -18 -19 -19 -19 -20 -20
-15 -15 -16 -16 -16 -15 -15 -16 -16 -16 -15 -15 -15 -15 -15 -15 -15 -15 -15 -15 -15 -15 -15 -15 -15 -15 -16 -16 -16 -16 -17 -17 -17 -18 -18 -18 -18 -19 -19 -19 -20 -20 -20 -20
-16 -16 -16 -15 -16 -17 -16 -16 -15 -15 -15 -15 -15 -15 -16 -15 -14 -14 -14 -15 -15 -15 -15 -15 -15 -15 -16 -16 -16 -17 -17 -18 -18 -18 -18 -19 -19 -19 -19 -20 -20 -20 -20 -20
-15 -15 -16 -16 -16 -16 -16 -16 -16 -15 -15 -15 -15 -15 -15 -17 -17 -15 -15 -15 -15 -16 -16 -16 -16 -16 -16 -17 -17 -17 -18 -18 -18 -19 -19 -19 -19 -20 -20 -20 -20 -20 -20 -21
-15 -15 -15 -15 -16 -16 -15 -15 -15 -15 -15 -15 -15 -15 -16 -16 -15 -15 -15 -16 -16 -16 -16 -17 -17 -17 -17 -17 -17 -18 -18 -19 -19 -19 -19 -19 -19 -20 -20 -20 -20 -20 -21 -21
-15 -15 -15 -15 -15 -15 -15 -15 -15 -15 -15 -15 -15 -15 -16 -16 -16 -14 -16 -16 -16 -16 -16 -17 -17 -17 -18 -18 -18 -18 -19 -19 -19 -19 -19 -20 -20 -20 -20 -20 -20 -21 -21 -21
-16 -15 -15 -15 -15 -15 -15 -15 -15 -15 -15 -16 -15 -15 -15 -15 -15 -16 -15 -15 -16 -16 -16 -17 -17 -18 -18 -18 -18 -18 -19 -19 -19 -19 -20 -20 -20 -20 -20 -21 -21 -21 -22 -22
-16 -16 -16 -15 -16 -15 -15 -15 -15 -15 -16 -15 -15 -15 -16 -15 -15 -15 -15 -15 -16 -16 -16 -17 -17 -18 -18 -19 -19 -19 -19 -19 -19 -19 -20 -20 -21 -20 -20 -21 -22 -21 -22 -23
-16 -16 -16 -16 -15 -15 -15 -15 -15 -15 -15 -14 -15 -15 -15 -15 -15 -16 -16 -16 -16 -17 -17 -17 -18 -18 -19 -19 -19 -19 -20 -19 -19 -20 -20 -20 -20 -21 -21 -21 -22 -22 -23 -25
-16 -15 -15 -15 -15 -15 -15 -14 -15 -14 -14 -14 -14 -15 -15 -15 -16 -15 -16 -16 -17 -17 -17 -18 -18 -19 -18 -19 -19 -19 -19 -20 -20 -21 -21 -21 -22 -21 -22 -22 -23 -24 -24 -25
-15 -15 -15 -15 -15 -15 -15 -14 -15 -15 -15 -15 -15 -15 -15 -15 -16 -16 -17 -16 -18 -18 -18 -18 -19 -19 -19 -19 -19 -20 -20 -20 -21 -21 -21 -22 -22 -22 -22 -23 -24 -24 -25 -25
-15 -15 -15 -15 -15 -15 -15 -14 -15 -14 -15 -15 -15 -15 -15 -16 -16 -16 -17 -17 -18 -18 -18 -19 -19 -19 -19 -19 -20 -20 -20 -21 -21 -21 -21 -22 -22 -22 -23 -23 -24 -25 -25 -27
-15 -15 -15 -15 -15 -15 -15 -15 -15 -15 -15 -15 -16 -16 -16 -17 -17 -17 -17 -18 -18 -18 -19 -19 -19 -19 -20 -20 -20 -20 -21 -21 -22 -23 -23 -23 -24 -24 -24 -25 -25 -27 -29 -29
-15 -15 -15 -15 -16 -15 -16 -14 -15 -16 -15 -16 -16 -16 -17 -17 -17 -18 -18 -18 -18 -18 -19 -19 -19 -20 -20 -20 -21 -21 -22 -23 -23 -23 -24 -24 -25 -25 -25 -26 -28 -29 -29 -29
-15 -15 -16 -16 -15 -16 -16 -15 -16 -15 -16 -17 -17 -17 -17 -18 -18 -18 -18 -19 -19 -19 -19 -19 -20 -20 -20 -21 -22 -22 -23 -24 -24 -24 -25 -26 -26 -26 -27 -29 -29 -29 -30 -30

GFSCGP_500_temp_027.txt.gz
Temp
-16 -17 -16 -16 -16 -15 -15 -16 -16 -15 -16 -15 -15 -14 -15 -15 -15 -14 -15 -14 -14 -14 -14 -14 -14 -13 -14 -15 -15 -15 -15 -15 -15 -15 -15 -15 -15 -15 -15 -14 -15 -15 -15 -15
-16 -17 -16 -16 -16 -16 -15 -16 -16 -15 -15 -16 -16 -15 -15 -16 -16 -15 -15 -14 -14 -14 -14 -14 -13 -13 -13 -14 -15 -15 -15 -15 -15 -15 -15 -15 -14 -14 -14 -15 -15 -15 -15 -15
-16 -16 -16 -16 -16 -16 -16 -16 -16 -16 -16 -16 -16 -16 -16 -16 -16 -15 -15 -14 -14 -14 -14 -14 -14 -13 -14 -14 -14 -15 -15 -15 -15 -15 -15 -14 -14 -14 -15 -15 -15 -15 -15 -16
-16 -16 -16 -15 -15 -16 -16 -16 -15 -15 -16 -16 -16 -16 -16 -16 -16 -15 -16 -15 -15 -14 -14 -15 -15 -15 -14 -15 -15 -16 -16 -15 -15 -14 -14 -14 -14 -14 -15 -15 -15 -15 -16 -16
-15 -16 -15 -15 -16 -16 -16 -16 -15 -15 -15 -15 -16 -16 -15 -16 -15 -15 -15 -16 -15 -14 -14 -15 -15 -15 -15 -15 -15 -15 -15 -15 -14 -14 -14 -14 -15 -15 -15 -15 -15 -16 -16 -16
-16 -16 -15 -15 -16 -16 -16 -16 -15 -16 -15 -16 -15 -16 -15 -15 -15 -14 -15 -15 -15 -15 -15 -15 -15 -15 -15 -15 -15 -15 -15 -14 -14 -15 -15 -15 -15 -15 -15 -16 -16 -16 -16 -17
-15 -16 -16 -16 -17 -16 -16 -15 -16 -16 -16 -15 -16 -15 -15 -15 -16 -15 -15 -15 -15 -15 -15 -14 -15 -15 -15 -15 -14 -14 -14 -15 -15 -15 -15 -15 -15 -16 -16 -16 -16 -17 -17 -17
-16 -17 -16 -17 -17 -16 -16 -16 -16 -16 -15 -15 -15 -15 -15 -15 -15 -15 -15 -15 -15 -14 -14 -15 -14 -14 -15 -15 -15 -14 -15 -15 -15 -15 -15 -16 -16 -16 -16 -17 -17 -17 -18 -18
-15 -16 -17 -16 -17 -17 -17 -16 -16 -16 -16 -15 -15 -16 -16 -15 -15 -15 -15 -15 -14 -14 -14 -15 -14 -14 -15 -15 -15 -15 -15 -15 -15 -16 -16 -16 -16 -17 -17 -17 -18 -18 -19 -19
-17 -16 -16 -15 -17 -17 -17 -16 -16 -16 -15 -15 -15 -16 -15 -15 -16 -16 -15 -15 -15 -15 -15 -15 -14 -15 -15 -15 -15 -15 -15 -15 -16 -16 -17 -17 -17 -17 -18 -18 -19 -19 -19 -19
-16 -16 -16 -15 -16 -16 -16 -16 -16 -16 -16 -15 -15 -16 -16 -16 -16 -15 -15 -15 -15 -15 -15 -14 -14 -15 -15 -15 -15 -15 -15 -16 -16 -17 -17 -17 -18 -18 -18 -19 -19 -19 -19 -20
-16 -16 -15 -15 -16 -16 -16 -16 -16 -15 -16 -15 -15 -15 -16 -16 -16 -16 -16 -15 -15 -14 -14 -14 -15 -15 -15 -15 -16 -16 -16 -16 -17 -17 -18 -18 -18 -18 -19 -19 -19 -19 -19 -19
-16 -16 -16 -16 -16 -15 -16 -16 -16 -16 -15 -15 -15 -15 -16 -16 -16 -16 -15 -15 -15 -15 -15 -15 -15 -15 -15 -15 -16 -16 -17 -17 -17 -18 -18 -18 -18 -19 -19 -19 -19 -19 -19 -19
-16 -16 -16 -16 -16 -16 -15 -16 -16 -16 -15 -15 -15 -15 -16 -16 -15 -15 -15 -15 -15 -15 -15 -15 -15 -14 -14 -14 -15 -16 -17 -17 -18 -18 -19 -19 -19 -19 -19 -19 -19 -19 -19 -19
-16 -16 -15 -16 -15 -16 -15 -16 -16 -15 -15 -15 -16 -15 -16 -16 -15 -15 -14 -14 -14 -15 -16 -16 -15 -15 -15 -15 -16 -16 -17 -17 -18 -18 -19 -19 -19 -19 -19 -19 -19 -20 -20 -20
-15 -15 -15 -15 -15 -16 -15 -16 -16 -16 -16 -16 -15 -15 -16 -15 -15 -15 -15 -15 -16 -16 -16 -16 -16 -16 -16 -16 -17 -17 -17 -18 -18 -19 -19 -19 -19 -20 -19 -20 -20 -20 -20 -21
-15 -15 -15 -15 -15 -15 -15 -16 -16 -16 -16 -16 -16 -16 -15 -15 -15 -15 -15 -16 -16 -16 -16 -17 -17 -17 -17 -17 -18 -18 -18 -18 -19 -19 -19 -19 -19 -20 -20 -20 -20 -21 -21 -21
-16 -15 -15 -15 -15 -15 -16 -15 -16 -16 -16 -16 -15 -15 -15 -15 -15 -16 -16 -15 -15 -15 -15 -16 -17 -18 -17 -17 -18 -19 -19 -19 -18 -19 -19 -19 -20 -20 -20 -21 -21 -21 -22 -22
-16 -16 -15 -15 -15 -15 -15 -15 -16 -16 -15 -15 -15 -15 -15 -16 -16 -15 -15 -16 -16 -16 -15 -16 -16 -17 -18 -18 -19 -19 -19 -19 -20 -20 -20 -20 -20 -20 -21 -21 -22 -23 -22 -22
-16 -16 -16 -15 -15 -15 -15 -15 -15 -15 -15 -15 -15 -15 -15 -15 -15 -16 -16 -16 -15 -15 -16 -16 -17 -18 -18 -19 -19 -19 -19 -20 -19 -19 -20 -20 -20 -21 -22 -23 -23 -23 -23 -24
-16 -16 -16 -15 -15 -15 -15 -15 -15 -15 -15 -15 -15 -15 -15 -15 -15 -15 -15 -15 -15 -16 -17 -17 -17 -18 -18 -19 -19 -19 -19 -19 -20 -20 -20 -22 -21 -22 -23 -23 -23 -24 -25 -25
-16 -15 -16 -15 -15 -15 -15 -15 -15 -15 -15 -15 -15 -15 -15 -15 -16 -16 -15 -15 -16 -18 -18 -18 -18 -18 -19 -19 -19 -20 -20 -20 -21 -21 -22 -23 -23 -23 -24 -24 -24 -25 -26 -26
-16 -16 -15 -15 -15 -15 -15 -15 -14 -15 -15 -15 -15 -15 -15 -16 -16 -16 -16 -17 -17 -17 -18 -18 -19 -19 -19 -19 -20 -20 -20 -21 -21 -21 -22 -22 -23 -24 -24 -25 -25 -26 -27 -29
-15 -16 -16 -16 -16 -15 -15 -15 -15 -15 -16 -15 -15 -15 -16 -16 -16 -17 -17 -17 -17 -18 -18 -18 -19 -19 -19 -20 -20 -20 -20 -21 -21 -22 -23 -23 -24 -24 -24 -25 -27 -28 -29 -30
-16 -16 -16 -16 -16 -15 -15 -15 -15 -15 -15 -15 -15 -16 -16 -17 -17 -17 -18 -18 -18 -18 -19 -19 -19 -19 -20 -20 -20 -20 -21 -22 -22 -23 -23 -23 -24 -25 -26 -27 -29 -29 -30 -30
-16 -16 -16 -16 -16 -16 -16 -16 -16 -16 -16 -15 -16 -16 -17 -17 -18 -18 -18 -18 -19 -19 -19 -19 -20 -20 -20 -20 -21 -21 -22 -23 -23 -23 -23 -24 -25 -26 -28 -29 -30 -30 -30 -30

GFSCGP_500_temp_030.txt.gz
Temp
-16 -16 -16 -16 -17 -16 -16 -16 -16 -16 -16 -16 -16 -15 -16 -15 -15 -15 -15 -15 -15 -15 -14 -14 -14 -15 -15 -15 -15 -15 -15 -16 -15 -16 -16 -15 -15 -15 -15 -15 -15 -15 -15 -15
-16 -15 -16 -16 -16 -16 -16 -16 -16 -16 -16 -16 -16 -16 -16 -15 -15 -15 -15 -15 -15 -15 -14 -14 -14 -15 -15 -16 -15 -16 -15 -15 -16 -15 -15 -15 -15 -15 -15 -15 -15 -15 -15 -16
-16 -16 -16 -16 -16 -16 -16 -15 -15 -16 -16 -16 -16 -16 -15 -15 -15 -15 -14 -15 -15 -15 -14 -14 -14 -14 -15 -15 -15 -15 -16 -16 -15 -15 -15 -15 -15 -15 -15 -15 -15 -16 -16 -16
-16 -15 -16 -16 -16 -15 -15 -15 -15 -16 -17 -16 -16 -16 -15 -15 -15 -15 -15 -14 -14 -15 -15 -14 -14 -14 -14 -15 -15 -15 -15 -16 -15 -15 -15 -15 -15 -15 -15 -16 -16 -16 -16 -16
-15 -15 -15 -16 -15 -15 -15 -16 -16 -16 -16 -16 -16 -16 -16 -16 -15 -15 -15 -15 -14 -14 -14 -14 -15 -15 -15 -15 -15 -16 -15 -15 -15 -15 -15 -15 -16 -16 -16 -16 -16 -16 -16 -16
-15 -15 -15 -16 -16 -16 -15 -16 -15 -15 -16 -15 -16 -15 -15 -16 -15 -15 -16 -15 -14 -14 -14 -14 -14 -15 -15 -15 -15 -15 -15 -15 -15 -15 -15 -15 -16 -15 -15 -16 -16 -16 -16 -17
-16 -15 -15 -16 -16 -16 -16 -16 -16 -16 -16 -16 -16 -15 -15 -15 -15 -15 -15 -15 -15 -14 -14 -14 -15 -15 -15 -15 -15 -15 -15 -15 -15 -15 -15 -15 -15 -15 -16 -16 -16 -16 -17 -17
-16 -15 -16 -16 -15 -15 -16 -16 -16 -16 -15 -16 -15 -15 -16 -15 -15 -15 -15 -15 -15 -15 -15 -15 -15 -15 -15 -15 -15 -15 -15 -15 -15 -15 -16 -15 -15 -16 -16 -16 -17 -17 -17 -18
-16 -16 -16 -16 -16 -15 -16 -16 -16 -16 -16 -15 -15 -16 -15 -15 -15 -15 -15 -15 -15 -15 -15 -15 -15 -15 -15 -15 -15 -15 -16 -16 -16 -15 -15 -16 -16 -16 -17 -17 -17 -18 -18 -19
-17 -17 -17 -16 -15 -16 -16 -17 -17 -17 -16 -15 -16 -15 -15 -15 -15 -15 -15 -15 -15 -15 -15 -15 -15 -15 -15 -15 -16 -16 -16 -16 -16 -16 -16 -16 -17 -17 -17 -17 -18 -18 -19 -19
-17 -17 -16 -16 -16 -15 -16 -16 -17 -17 -16 -15 -15 -16 -15 -16 -16 -15 -15 -15 -15 -15 -15 -15 -15 -15 -16 -15 -15 -15 -15 -16 -16 -17 -17 -17 -17 -18 -18 -18 -19 -19 -19 -20
-17 -17 -17 -17 -16 -16 -16 -16 -16 -17 -16 -16 -15 -15 -16 -16 -16 -16 -15 -15 -15 -15 -15 -15 -16 -15 -15 -15 -15 -16 -16 -17 -17 -17 -18 -18 -18 -18 -18 -18 -19 -19 -19 -20
-17 -17 -16 -16 -16 -16 -16 -16 -16 -16 -16 -16 -16 -15 -16 -16 -16 -16 -15 -15 -14 -15 -15 -15 -15 -15 -15 -15 -16 -16 -16 -16 -16 -17 -17 -18 -18 -18 -18 -18 -19 -19 -19 -19
-17 -17 -16 -16 -16 -16 -16 -16 -16 -16 -16 -15 -15 -16 -17 -16 -16 -16 -15 -14 -14 -15 -15 -15 -14 -14 -14 -14 -14 -15 -15 -16 -17 -17 -17 -18 -18 -18 -18 -19 -19 -19 -19 -19
-17 -16 -16 -16 -16 -16 -16 -16 -16 -16 -16 -16 -16 -15 -16 -16 -15 -15 -15 -14 -14 -14 -14 -14 -14 -14 -14 -14 -15 -15 -16 -17 -17 -17 -18 -18 -18 -19 -19 -20 -19 -19 -19 -20
-16 -16 -16 -16 -16 -16 -16 -16 -15 -16 -17 -16 -16 -16 -16 -16 -15 -15 -15 -15 -15 -15 -15 -14 -14 -15 -15 -16 -16 -16 -17 -17 -18 -17 -18 -18 -19 -19 -19 -19 -19 -19 -20 -20
-16 -16 -16 -16 -16 -15 -15 -15 -16 -16 -17 -16 -16 -16 -16 -16 -16 -15 -16 -16 -16 -16 -16 -16 -16 -16 -16 -16 -16 -16 -17 -17 -18 -18 -18 -19 -19 -19 -19 -20 -20 -20 -20 -22
-16 -17 -16 -16 -16 -15 -15 -16 -15 -16 -16 -16 -16 -16 -16 -16 -16 -16 -16 -16 -16 -16 -16 -16 -16 -16 -16 -16 -17 -17 -17 -19 -19 -19 -19 -19 -20 -20 -20 -20 -20 -21 -22 -22
-16 -16 -16 -16 -16 -16 -16 -16 -16 -16 -16 -16 -16 -16 -16 -16 -16 -16 -15 -15 -16 -16 -16 -16 -16 -16 -16 -17 -17 -18 -19 -19 -19 -19 -20 -20 -20 -20 -20 -20 -21 -21 -22 -23
-16 -17 -17 -16 -16 -16 -16 -16 -16 -16 -16 -16 -16 -16 -16 -16 -15 -15 -15 -15 -16 -16 -16 -16 -16 -16 -16 -17 -18 -18 -19 -19 -20 -20 -20 -20 -21 -21 -21 -20 -22 -24 -24 -24
-16 -16 -16 -16 -16 -16 -16 -16 -16 -16 -16 -16 -16 -16 -16 -16 -15 -15 -15 -15 -16 -16 -16 -16 -16 -17 -17 -18 -18 -19 -19 -19 -20 -20 -21 -21 -21 -21 -22 -24 -23 -24 -24 -25
-16 -16 -16 -16 -16 -16 -16 -16 -16 -16 -15 -16 -16 -16 -15 -15 -15 -15 -15 -15 -15 -16 -16 -17 -17 -18 -18 -18 -19 -19 -20 -20 -20 -20 -21 -21 -21 -22 -23 -23 -24 -24 -25 -25
-16 -16 -16 -16 -16 -16 -15 -15 -15 -16 -16 -16 -15 -15 -15 -15 -15 -15 -15 -16 -16 -16 -17 -17 -18 -18 -18 -19 -19 -20 -20 -20 -20 -21 -21 -21 -22 -23 -24 -24 -24 -24 -25 -26
-16 -16 -16 -16 -16 -15 -15 -16 -16 -16 -16 -15 -15 -15 -15 -16 -16 -16 -16 -16 -17 -17 -18 -18 -18 -18 -19 -19 -20 -20 -20 -20 -21 -21 -21 -22 -23 -24 -24 -24 -24 -25 -26 -28
-16 -16 -16 -16 -16 -16 -16 -16 -16 -15 -15 -15 -15 -15 -16 -16 -16 -16 -17 -17 -18 -18 -18 -18 -19 -19 -19 -20 -20 -20 -20 -21 -21 -21 -22 -23 -23 -24 -24 -25 -26 -26 -28 -29
-16 -16 -16 -16 -16 -16 -16 -16 -16 -16 -15 -15 -16 -16 -16 -16 -16 -17 -17 -18 -18 -18 -19 -19 -20 -20 -20 -20 -20 -21 -21 -21 -22 -22 -23 -24 -24 -24 -25 -26 -27 -28 -29 -30

GFSCGP_500_temp_033.txt.gz
Temp
-16 -16 -16 -17 -17 -16 -16 -16 -16 -16 -16 -15 -16 -16 -16 -16 -16 -16 -16 -16 -15 -15 -15 -15 -15 -15 -15 -15 -15 -15 -15 -15 -15 -16 -16 -15 -15 -15 -15 -15 -15 -15 -15 -15
-16 -16 -16 -16 -16 -17 -16 -16 -16 -16 -16 -16 -16 -16 -15 -15 -16 -15 -15 -15 -15 -15 -15 -15 -15 -15 -15 -15 -15 -15 -15 -15 -16 -16 -15 -15 -15 -15 -15 -15 -15 -15 -15 -15
-15 -16 -17 -16 -16 -16 -16 -16 -16 -16 -16 -16 -16 -16 -16 -15 -15 -15 -15 -15 -15 -15 -15 -15 -16 -16 -16 -16 -16 -16 -16 -16 -16 -16 -15 -15 -15 -15 -15 -15 -15 -15 -16 -16
-15 -15 -16 -16 -16 -16 -16 -16 -16 -16 -16 -17 -16 -15 -16 -16 -15 -15 -15 -15 -15 -15 -15 -15 -15 -16 -16 -16 -16 -16 -16 -16 -16 -16 -15 -15 -16 -16 -15 -15 -16 -16 -16 -16
-15 -15 -15 -16 -16 -16 -16 -16 -16 -16 -16 -17 -16 -16 -15 -14 -14 -15 -14 -15 -15 -15 -15 -15 -16 -16 -16 -16 -16 -16 -16 -15 -16 -16 -15 -16 -16 -15 -15 -15 -16 -16 -16 -16
-14 -14 -15 -16 -15 -16 -16 -15 -16 -16 -16 -16 -16 -16 -16 -15 -15 -14 -15 -14 -14 -15 -15 -15 -16 -16 -16 -15 -15 -15 -15 -16 -16 -15 -16 -16 -16 -15 -16 -16 -16 -16 -16 -16
-14 -15 -15 -15 -15 -15 -15 -15 -15 -16 -16 -15 -16 -15 -15 -16 -15 -14 -15 -14 -14 -14 -15 -15 -15 -15 -15 -15 -15 -15 -15 -16 -16 -16 -15 -16 -16 -16 -16 -16 -16 -16 -17 -17
-15 -15 -15 -15 -16 -16 -16 -15 -15 -15 -15 -15 -16 -15 -15 -15 -16 -15 -15 -15 -15 -15 -15 -14 -15 -15 -15 -15 -15 -15 -16 -16 -15 -15 -16 -16 -16 -16 -16 -17 -17 -17 -17 -18
-15 -15 -16 -16 -16 -16 -16 -16 -16 -16 -15 -15 -16 -16 -15 -15 -16 -15 -15 -15 -15 -15 -15 -15 -15 -15 -15 -15 -15 -16 -16 -16 -16 -16 -16 -16 -16 -16 -16 -16 -17 -17 -17 -18
-16 -16 -16 -16 -16 -16 -16 -16 -16 -16 -16 -16 -16 -16 -16 -16 -15 -15 -15 -15 -15 -15 -15 -15 -15 -15 -15 -15 -15 -16 -16 -16 -16 -16 -16 -16 -16 -16 -16 -16 -17 -17 -18 -19
-15 -16 -16 -16 -16 -17 -16 -16 -16 -16 -17 -16 -16 -16 -16 -15 -15 -15 -15 -15 -15 -15 -15 -15 -15 -15 -15 -16 -16 -16 -16 -16 -16 -16 -16 -16 -16 -17 -17 -17 -17 -18 -18 -19
-16 -16 -16 -16 -17 -16 -16 -16 -16 -16 -16 -16 -16 -15 -16 -15 -15 -15 -15 -15 -16 -16 -16 -15 -15 -15 -16 -16 -16 -16 -16 -16 -16 -16 -16 -16 -17 -17 -17 -17 -18 -18 -19 -19
-16 -16 -16 -16 -16 -16 -16 -17 -16 -17 -16 -15 -15 -15 -16 -16 -16 -15 -15 -14 -15 -15 -15 -15 -16 -16 -16 -16 -16 -16 -16 -16 -16 -16 -17 -17 -17 -17 -17 -18 -18 -19 -19 -20
-17 -16 -16 -16 -17 -17 -17 -17 -17 -16 -16 -16 -15 -15 -16 -16 -16 -15 -15 -15 -15 -15 -15 -15 -16 -15 -15 -15 -15 -15 -15 -16 -16 -17 -17 -17 -18 -18 -18 -19 -19 -19 -20 -20
-16 -16 -17 -16 -17 -17 -16 -16 -16 -16 -16 -16 -15 -15 -16 -16 -16 -15 -15 -15 -15 -15 -15 -15 -15 -15 -15 -15 -15 -15 -16 -17 -17 -17 -17 -18 -18 -18 -19 -19 -19 -19 -20 -20
-16 -16 -16 -16 -16 -16 -16 -16 -17 -16 -16 -16 -16 -16 -16 -16 -16 -16 -16 -16 -16 -16 -15 -15 -15 -15 -15 -15 -14 -15 -16 -16 -16 -16 -17 -18 -18 -19 -19 -19 -19 -19 -19 -20
-16 -16 -16 -16 -16 -16 -15 -15 -16 -16 -16 -16 -16 -16 -16 -16 -16 -16 -16 -16 -16 -15 -15 -15 -15 -15 -15 -15 -15 -15 -16 -16 -17 -17 -17 -18 -19 -19 -19 -20 -20 -20 -20 -20
-16 -16 -16 -16 -16 -15 -15 -16 -16 -16 -15 -16 -16 -16 -16 -16 -16 -16 -16 -16 -16 -16 -16 -15 -15 -15 -15 -15 -15 -16 -16 -17 -17 -17 -18 -19 -19 -19 -20 -20 -20 -20 -21 -22
-16 -16 -16 -16 -16 -16 -16 -16 -16 -16 -16 -16 -16 -16 -16 -16 -16 -16 -16 -16 -16 -15 -15 -15 -15 -15 -15 -15 -16 -16 -17 -17 -17 -18 -19 -19 -20 -20 -20 -20 -20 -20 -22 -22
-16 -16 -16 -15 -16 -15 -16 -17 -16 -16 -16 -16 -16 -17 -17 -16 -16 -16 -16 -15 -15 -15 -15 -15 -15 -15 -16 -16 -17 -17 -17 -18 -18 -19 -19 -20 -20 -20 -21 -21 -21 -22 -22 -23
-16 -16 -16 -16 -15 -15 -16 -17 -17 -16 -16 -17 -17 -16 -16 -16 -16 -15 -16 -16 -16 -15 -15 -15 -15 -16 -16 -17 -17 -18 -18 -18 -19 -19 -20 -20 -21 -21 -21 -21 -21 -22 -23 -24
-16 -16 -15 -16 -16 -15 -16 -17 -16 -17 -17 -17 -17 -17 -16 -16 -16 -16 -16 -16 -16 -16 -16 -16 -16 -17 -17 -17 -18 -18 -18 -19 -19 -20 -20 -21 -21 -21 -21 -21 -22 -23 -24 -24
-16 -16 -16 -16 -16 -16 -16 -16 -16 -17 -17 -17 -16 -16 -16 -16 -16 -16 -16 -16 -16 -16 -16 -16 -17 -17 -18 -18 -18 -18 -19 -19 -20 -21 -21 -21 -21 -21 -21 -22 -23 -24 -24 -24
-16 -16 -16 -16 -16 -16 -16 -16 -17 -17 -17 -17 -16 -16 -16 -16 -16 -16 -16 -16 -16 -17 -17 -17 -18 -18 -18 -19 -19 -19 -20 -20 -21 -21 -21 -21 -21 -22 -22 -23 -24 -24 -25 -25
-17 -17 -16 -16 -16 -16 -16 -16 -16 -17 -17 -17 -17 -16 -16 -16 -16 -16 -17 -17 -17 -17 -17 -18 -18 -19 -19 -19 -19 -20 -21 -21 -21 -21 -21 -21 -22 -22 -23 -24 -24 -25 -25 -26
-17 -17 -17 -17 -17 -17 -17 -16 -16 -16 -16 -16 -16 -16 -16 -16 -17 -17 -17 -17 -17 -18 -18 -19 -19 -19 -19 -20 -20 -21 -21 -21 -21 -21 -21 -22 -23 -24 -24 -25 -25 -26 -26 -27

GFSCGP_500_temp_039.txt.gz
Temp
-15 -16 -16 -17 -17 -17 -17 -17 -17 -17 -16 -16 -16 -16 -17 -16 -16 -16 -16 -15 -15 -15 -15 -16 -16 -16 -16 -16 -15 -15 -15 -15 -15 -15 -15 -15 -15 -15 -15 -15 -15 -15 -15 -15
-15 -16 -16 -17 -17 -17 -17 -17 -17 -17 -16 -17 -16 -17 -17 -16 -16 -16 -16 -16 -16 -16 -16 -16 -16 -16 -16 -16 -15 -15 -15 -16 -16 -15 -15 -15 -15 -15 -15 -15 -15 -15 -15 -15
-15 -15 -15 -16 -16 -16 -16 -17 -17 -16 -16 -16 -16 -16 -16 -16 -16 -16 -17 -16 -16 -16 -16 -16 -16 -16 -16 -16 -16 -16 -16 -15 -16 -16 -16 -16 -15 -15 -15 -15 -15 -15 -15 -15
-15 -15 -15 -15 -15 -16 -16 -15 -16 -16 -16 -16 -16 -16 -16 -16 -16 -16 -16 -17 -16 -16 -16 -16 -15 -15 -16 -16 -16 -16 -16 -16 -16 -16 -16 -15 -15 -15 -15 -15 -15 -15 -15 -15
-15 -15 -14 -15 -15 -15 -16 -15 -15 -16 -16 -16 -16 -16 -15 -15 -16 -16 -16 -16 -16 -16 -16 -16 -16 -16 -16 -15 -15 -15 -15 -16 -16 -16 -16 -16 -15 -15 -15 -15 -15 -15 -15 -15
-14 -14 -14 -15 -15 -15 -15 -15 -15 -15 -15 -15 -15 -15 -15 -16 -16 -16 -16 -16 -16 -16 -16 -16 -16 -16 -16 -15 -15 -15 -15 -15 -16 -16 -15 -16 -16 -15 -15 -15 -16 -16 -16 -16
-14 -14 -14 -14 -15 -15 -15 -15 -15 -15 -15 -15 -15 -15 -15 -16 -15 -15 -15 -16 -16 -16 -15 -15 -15 -16 -16 -16 -16 -15 -16 -15 -15 -15 -15 -16 -16 -16 -16 -16 -16 -16 -16 -17
-14 -15 -14 -14 -15 -15 -16 -15 -15 -15 -15 -15 -15 -15 -16 -16 -15 -15 -15 -15 -15 -16 -16 -16 -16 -16 -16 -16 -16 -15 -16 -16 -15 -14 -15 -16 -16 -16 -16 -15 -16 -16 -16 -17
-15 -15 -15 -15 -15 -16 -16 -15 -15 -15 -15 -15 -15 -15 -15 -15 -16 -15 -15 -15 -15 -15 -15 -15 -15 -15 -15 -16 -16 -16 -16 -16 -15 -16 -16 -16 -16 -16 -15 -16 -16 -16 -16 -17
-15 -16 -15 -15 -15 -16 -16 -16 -16 -15 -15 -15 -14 -15 -16 -16 -16 -16 -16 -16 -16 -16 -16 -15 -15 -16 -15 -16 -16 -16 -16 -16 -16 -16 -16 -16 -16 -16 -16 -16 -16 -17 -17 -17
-15 -16 -16 -15 -16 -16 -16 -16 -16 -16 -15 -15 -14 -15 -15 -16 -16 -16 -16 -16 -16 -16 -16 -16 -15 -15 -16 -16 -16 -16 -16 -16 -16 -16 -16 -16 -16 -16 -16 -16 -16 -17 -17 -17
-16 -16 -17 -16 -16 -17 -16 -16 -16 -16 -16 -16 -15 -14 -15 -16 -16 -16 -16 -16 -16 -16 -16 -16 -16 -16 -16 -16 -16 -16 -16 -16 -16 -16 -16 -16 -16 -16 -16 -17 -16 -17 -17 -17
-16 -16 -17 -17 -17 -16 -16 -16 -16 -16 -16 -15 -15 -15 -15 -16 -16 -16 -16 -16 -16 -16 -16 -16 -16 -16 -16 -16 -16 -16 -16 -16 -16 -16 -16 -16 -16 -16 -16 -16 -17 -17 -17 -17
-16 -16 -16 -16 -17 -17 -17 -17 -16 -16 -16 -16 -15 -15 -16 -16 -16 -16 -16 -16 -16 -16 -16 -16 -16 -17 -17 -16 -16 -16 -16 -16 -16 -16 -16 -16 -16 -16 -17 -17 -17 -17 -17 -17
-16 -15 -16 -16 -17 -18 -17 -17 -17 -16 -16 -16 -16 -15 -16 -16 -16 -16 -16 -15 -16 -16 -16 -16 -17 -17 -17 -17 -16 -17 -17 -16 -16 -16 -16 -16 -16 -16 -17 -17 -17 -17 -17 -18
-17 -16 -16 -16 -17 -17 -17 -17 -17 -17 -16 -16 -16 -15 -16 -16 -16 -16 -16 -16 -16 -16 -16 -16 -16 -16 -16 -16 -16 -16 -16 -16 -16 -15 -15 -15 -15 -16 -16 -17 -17 -18 -18 -19
-17 -17 -17 -16 -17 -18 -15 -16 -17 -17 -17 -16 -16 -16 -15 -15 -15 -15 -16 -16 -17 -17 -17 -16 -16 -16 -16 -16 -16 -16 -16 -15 -16 -16 -16 -16 -16 -16 -16 -17 -18 -18 -19 -20
-17 -18 -17 -17 -17 -16 -16 -16 -17 -16 -16 -16 -15 -15 -15 -15 -15 -15 -16 -16 -17 -17 -17 -17 -16 -16 -16 -16 -16 -16 -16 -16 -16 -16 -16 -16 -16 -17 -17 -18 -18 -19 -19 -20
-17 -18 -17 -17 -16 -16 -15 -16 -16 -16 -15 -16 -16 -16 -16 -16 -16 -15 -16 -16 -16 -16 -17 -17 -16 -16 -16 -16 -16 -16 -16 -16 -16 -16 -16 -16 -17 -17 -18 -18 -19 -19 -20 -20
-17 -18 -18 -17 -16 -15 -16 -16 -16 -16 -15 -17 -16 -16 -16 -16 -16 -16 -16 -16 -16 -16 -17 -16 -16 -16 -16 -16 -16 -16 -16 -16 -16 -16 -17 -17 -17 -18 -18 -19 -19 -20 -21 -21
-17 -17 -17 -17 -16 -16 -16 -16 -16 -16 -16 -16 -16 -16 -16 -16 -16 -16 -16 -17 -17 -17 -16 -16 -16 -16 -16 -16 -16 -16 -16 -16 -17 -17 -17 -17 -18 -18 -19 -19 -20 -20 -21 -21
-17 -17 -17 -17 -16 -16 -17 -17 -16 -16 -16 -15 -16 -16 -16 -16 -16 -16 -17 -17 -17 -17 -16 -16 -16 -16 -16 -16 -16 -16 -17 -17 -17 -17 -18 -18 -18 -19 -19 -20 -21 -21 -21 -22
-17 -17 -17 -17 -17 -17 -17 -17 -17 -16 -16 -16 -16 -16 -16 -16 -17 -17 -17 -17 -17 -17 -17 -17 -17 -17 -17 -16 -17 -17 -17 -17 -18 -18 -18 -18 -19 -19 -20 -21 -21 -22 -22 -22
-18 -17 -17 -17 -17 -17 -17 -17 -17 -17 -16 -16 -16 -16 -16 -17 -17 -17 -17 -17 -17 -17 -17 -17 -17 -17 -17 -17 -17 -17 -18 -18 -18 -18 -18 -19 -19 -20 -21 -21 -22 -22 -22 -22
-18 -18 -17 -18 -18 -17 -17 -17 -17 -16 -16 -17 -17 -17 -17 -17 -17 -17 -17 -17 -17 -17 -17 -17 -17 -17 -17 -18 -18 -18 -18 -18 -18 -19 -19 -20 -20 -21 -22 -22 -22 -22 -23 -23
-17 -17 -17 -18 -18 -18 -17 -17 -17 -17 -17 -17 -17 -17 -17 -17 -17 -17 -17 -17 -17 -17 -17 -17 -18 -18 -18 -18 -18 -18 -18 -19 -19 -20 -20 -20 -21 -22 -22 -22 -23 -23 -24 -24

GFSCGP_500_temp_042.txt.gz
Temp
-14 -15 -16 -16 -17 -17 -16 -17 -17 -17 -16 -16 -17 -17 -17 -16 -16 -16 -16 -16 -16 -16 -16 -16 -16 -16 -16 -16 -15 -16 -15 -15 -15 -15 -15 -16 -16 -16 -16 -16 -16 -16 -16 -15
-14 -15 -16 -16 -17 -16 -17 -17 -17 -16 -16 -16 -17 -17 -17 -16 -16 -16 -16 -16 -16 -15 -15 -16 -16 -16 -15 -15 -15 -15 -16 -16 -16 -16 -16 -16 -16 -16 -16 -16 -16 -16 -15 -15
-14 -15 -15 -15 -16 -16 -17 -17 -16 -16 -16 -16 -16 -16 -16 -16 -16 -16 -16 -16 -16 -16 -16 -16 -16 -15 -15 -16 -16 -16 -16 -16 -16 -16 -16 -16 -16 -16 -16 -16 -15 -15 -16 -16
-14 -14 -15 -15 -15 -15 -16 -16 -16 -16 -16 -17 -16 -15 -16 -16 -16 -16 -16 -16 -16 -16 -16 -16 -16 -16 -16 -16 -16 -16 -16 -16 -16 -16 -16 -16 -16 -16 -16 -16 -16 -16 -16 -16
-14 -14 -15 -15 -15 -15 -15 -16 -16 -16 -16 -16 -16 -16 -16 -16 -16 -16 -16 -16 -16 -16 -16 -15 -16 -16 -16 -16 -16 -16 -16 -16 -16 -16 -16 -16 -16 -16 -16 -16 -16 -16 -16 -16
-14 -14 -15 -15 -14 -14 -15 -15 -16 -16 -16 -16 -16 -16 -16 -16 -16 -16 -16 -16 -16 -15 -16 -16 -16 -16 -16 -16 -16 -16 -15 -15 -16 -16 -16 -16 -16 -15 -16 -16 -16 -16 -16 -16
-14 -14 -15 -15 -14 -14 -15 -15 -17 -17 -16 -16 -15 -15 -16 -16 -16 -16 -16 -16 -16 -15 -16 -15 -15 -15 -16 -16 -15 -15 -15 -15 -16 -15 -15 -16 -15 -15 -16 -15 -16 -16 -16 -16
-13 -14 -15 -15 -14 -15 -15 -15 -17 -17 -16 -17 -15 -15 -16 -15 -15 -15 -15 -15 -16 -16 -16 -16 -16 -16 -16 -15 -15 -16 -16 -16 -16 -15 -15 -16 -15 -15 -15 -16 -16 -16 -16 -16
-13 -14 -14 -14 -15 -15 -15 -15 -15 -16 -16 -16 -16 -15 -15 -15 -15 -15 -15 -15 -15 -16 -16 -16 -16 -16 -16 -16 -16 -16 -16 -16 -16 -16 -16 -16 -16 -16 -16 -16 -16 -16 -16 -16
-14 -15 -15 -15 -15 -15 -15 -15 -15 -15 -16 -16 -16 -15 -17 -15 -15 -15 -15 -15 -16 -16 -16 -16 -16 -16 -16 -16 -16 -16 -16 -16 -16 -16 -16 -17 -16 -16 -16 -16 -16 -16 -16 -16
-14 -15 -15 -15 -15 -15 -15 -15 -15 -16 -15 -16 -16 -16 -15 -16 -16 -16 -16 -16 -16 -16 -16 -16 -16 -16 -16 -16 -16 -16 -16 -16 -16 -16 -16 -16 -16 -16 -16 -16 -16 -16 -16 -17
-14 -15 -15 -15 -15 -15 -15 -16 -16 -16 -16 -16 -16 -15 -16 -15 -16 -16 -16 -16 -16 -16 -16 -16 -16 -16 -16 -16 -16 -16 -16 -16 -16 -16 -16 -16 -17 -17 -16 -16 -16 -16 -16 -17
-15 -15 -15 -16 -16 -16 -16 -16 -16 -16 -16 -16 -16 -15 -15 -15 -16 -16 -16 -16 -16 -16 -16 -16 -16 -16 -16 -16 -16 -16 -16 -16 -16 -16 -16 -17 -17 -16 -16 -16 -16 -16 -16 -16
-16 -16 -16 -15 -16 -17 -16 -17 -17 -17 -16 -16 -15 -16 -16 -16 -16 -16 -16 -16 -16 -16 -16 -15 -16 -16 -16 -16 -16 -16 -16 -16 -16 -16 -16 -16 -16 -16 -16 -16 -16 -16 -16 -17
-15 -15 -16 -16 -17 -17 -17 -17 -17 -17 -16 -16 -16 -16 -16 -16 -16 -16 -16 -16 -16 -16 -15 -16 -16 -16 -17 -17 -17 -17 -17 -16 -16 -16 -16 -16 -16 -16 -16 -16 -16 -17 -17 -17
-16 -15 -16 -16 -16 -17 -17 -16 -17 -17 -16 -16 -16 -15 -16 -16 -16 -16 -16 -16 -16 -16 -16 -16 -17 -17 -17 -17 -16 -17 -17 -17 -17 -17 -16 -16 -16 -16 -16 -16 -16 -16 -17 -17
-16 -16 -16 -16 -16 -17 -15 -16 -17 -17 -17 -16 -15 -16 -16 -16 -16 -15 -16 -16 -16 -16 -16 -16 -17 -17 -17 -17 -17 -17 -17 -16 -16 -16 -16 -16 -16 -16 -16 -16 -16 -17 -17 -17
-17 -17 -17 -17 -17 -16 -16 -16 -17 -17 -16 -16 -16 -16 -16 -16 -16 -16 -16 -16 -16 -16 -16 -17 -17 -17 -17 -17 -17 -17 -17 -17 -16 -16 -16 -16 -16 -16 -16 -16 -17 -17 -17 -18
-17 -17 -17 -17 -16 -15 -15 -16 -17 -17 -16 -16 -17 -16 -15 -15 -15 -15 -16 -16 -16 -16 -16 -17 -17 -17 -17 -17 -17 -17 -16 -16 -16 -16 -16 -16 -16 -17 -17 -17 -17 -17 -18 -18
-18 -18 -18 -17 -17 -15 -15 -16 -17 -17 -15 -18 -16 -15 -15 -15 -15 -16 -16 -16 -16 -16 -17 -17 -17 -17 -17 -17 -16 -16 -16 -16 -16 -16 -16 -17 -17 -17 -17 -17 -18 -18 -19 -19
-18 -18 -17 -18 -16 -15 -15 -16 -17 -17 -16 -16 -16 -15 -15 -15 -15 -15 -16 -16 -17 -17 -17 -17 -17 -17 -17 -16 -16 -16 -16 -16 -16 -17 -17 -17 -17 -18 -18 -18 -18 -19 -19 -20
-18 -18 -18 -18 -17 -15 -16 -16 -17 -17 -17 -16 -16 -15 -15 -15 -15 -16 -16 -16 -17 -17 -17 -17 -17 -16 -16 -17 -16 -16 -16 -17 -17 -17 -17 -17 -18 -18 -18 -19 -19 -19 -20 -20
-18 -18 -18 -17 -17 -17 -17 -17 -17 -17 -17 -17 -16 -16 -16 -16 -16 -16 -16 -16 -17 -17 -17 -17 -17 -17 -17 -17 -17 -17 -17 -17 -17 -17 -18 -18 -18 -19 -19 -19 -20 -20 -20 -20
-18 -18 -18 -17 -17 -17 -17 -17 -17 -17 -17 -17 -16 -16 -16 -16 -16 -16 -16 -16 -17 -17 -17 -17 -17 -17 -17 -17 -17 -17 -17 -18 -18 -18 -18 -18 -19 -19 -20 -20 -20 -20 -20 -21
-18 -18 -18 -17 -17 -17 -18 -18 -18 -17 -17 -16 -16 -17 -17 -17 -17 -17 -17 -17 -17 -17 -17 -17 -17 -17 -17 -18 -18 -18 -18 -18 -18 -18 -18 -19 -19 -20 -20 -20 -20 -20 -21 -21
-17 -18 -17 -16 -18 -17 -18 -18 -18 -17 -17 -17 -17 -17 -17 -17 -17 -17 -17 -17 -17 -17 -17 -18 -18 -18 -18 -18 -18 -18 -18 -18 -19 -19 -19 -19 -20 -20 -20 -20 -20 -21 -22 -22

GFSCGP_500_temp_045.txt.gz
Temp
-13 -14 -14 -17 -17 -17 -16 -16 -16 -15 -16 -15 -16 -16 -15 -15 -15 -16 -15 -15 -15 -16 -17 -16 -15 -15 -14 -14 -14 -14 -14 -15 -15 -14 -15 -15 -15 -15 -16 -15 -15 -16 -16 -16
-13 -14 -15 -15 -15 -15 -16 -17 -16 -16 -15 -15 -15 -15 -16 -15 -16 -16 -15 -15 -15 -15 -15 -15 -15 -15 -15 -15 -14 -14 -14 -15 -15 -15 -15 -15 -15 -15 -15 -15 -16 -16 -16 -16
-13 -15 -14 -14 -15 -15 -16 -16 -15 -16 -15 -15 -15 -15 -16 -16 -16 -16 -16 -15 -15 -15 -16 -16 -15 -15 -15 -15 -15 -15 -15 -15 -15 -15 -15 -15 -15 -15 -15 -16 -16 -16 -16 -16
-13 -14 -14 -14 -15 -15 -17 -16 -16 -16 -15 -16 -15 -15 -15 -15 -15 -16 -16 -16 -16 -15 -15 -15 -15 -15 -15 -15 -15 -15 -15 -15 -15 -15 -15 -15 -15 -15 -15 -16 -16 -16 -16 -16
-14 -14 -14 -14 -15 -15 -16 -15 -15 -16 -17 -16 -16 -15 -15 -15 -16 -16 -16 -16 -16 -15 -15 -15 -15 -15 -15 -15 -15 -15 -15 -15 -15 -15 -15 -15 -15 -15 -15 -15 -15 -16 -16 -16
-13 -13 -14 -14 -14 -14 -14 -15 -15 -15 -16 -16 -15 -15 -14 -15 -16 -16 -16 -16 -15 -15 -15 -15 -15 -15 -15 -15 -15 -15 -15 -15 -16 -16 -16 -16 -16 -16 -16 -16 -16 -16 -16 -16
-14 -13 -14 -14 -14 -14 -15 -14 -16 -16 -16 -15 -15 -15 -15 -15 -15 -15 -16 -17 -16 -15 -15 -15 -16 -16 -16 -16 -15 -15 -15 -15 -15 -15 -15 -16 -16 -16 -16 -14 -15 -16 -16 -16
-14 -13 -14 -14 -14 -15 -15 -16 -16 -15 -15 -15 -15 -15 -15 -15 -15 -15 -15 -16 -16 -16 -15 -15 -16 -16 -16 -16 -16 -16 -16 -16 -16 -15 -15 -16 -16 -16 -15 -15 -14 -15 -16 -16
-14 -14 -14 -14 -14 -15 -16 -15 -16 -15 -15 -15 -15 -15 -15 -15 -15 -15 -15 -15 -15 -15 -15 -15 -16 -16 -16 -16 -16 -16 -16 -16 -16 -15 -16 -16 -17 -16 -16 -16 -16 -16 -16 -16
-15 -16 -14 -14 -15 -15 -16 -16 -15 -15 -16 -15 -15 -15 -15 -15 -15 -15 -15 -15 -15 -16 -16 -16 -16 -16 -16 -16 -16 -16 -16 -16 -15 -16 -16 -16 -16 -16 -16 -16 -16 -16 -16 -16
-15 -14 -16 -14 -14 -15 -15 -15 -15 -16 -16 -16 -16 -15 -15 -16 -16 -15 -15 -15 -16 -16 -16 -16 -16 -16 -16 -16 -16 -16 -16 -16 -16 -16 -16 -16 -16 -16 -16 -16 -16 -16 -16 -16
-15 -14 -16 -14 -15 -16 -15 -16 -16 -17 -16 -16 -16 -15 -16 -16 -15 -15 -15 -15 -16 -16 -16 -16 -16 -16 -16 -16 -16 -16 -16 -16 -16 -16 -16 -16 -16 -16 -16 -16 -16 -16 -16 -16
-15 -15 -15 -17 -16 -16 -16 -16 -17 -16 -17 -16 -16 -15 -16 -16 -16 -15 -16 -16 -15 -16 -16 -16 -16 -16 -16 -16 -16 -16 -17 -17 -17 -17 -16 -16 -16 -16 -16 -16 -16 -16 -16 -16
-16 -15 -15 -15 -16 -17 -16 -16 -17 -17 -17 -16 -16 -17 -16 -16 -16 -17 -17 -17 -16 -16 -16 -16 -16 -16 -16 -16 -16 -16 -17 -17 -17 -16 -16 -16 -16 -16 -17 -17 -16 -16 -16 -16
-16 -15 -15 -15 -17 -16 -17 -17 -18 -17 -17 -17 -17 -17 -17 -16 -17 -17 -17 -16 -16 -16 -16 -16 -16 -16 -16 -16 -17 -17 -17 -17 -17 -17 -17 -17 -17 -16 -16 -16 -16 -16 -16 -16
-17 -15 -15 -16 -18 -17 -17 -17 -17 -17 -17 -17 -17 -17 -17 -17 -16 -16 -16 -16 -16 -16 -16 -16 -16 -16 -16 -16 -17 -17 -17 -17 -17 -17 -17 -17 -17 -17 -16 -16 -16 -16 -16 -16
-18 -16 -16 -15 -17 -18 -18 -15 -17 -17 -17 -17 -17 -16 -18 -17 -16 -15 -15 -15 -15 -16 -16 -16 -16 -16 -16 -17 -17 -17 -17 -17 -17 -17 -17 -17 -16 -16 -16 -16 -16 -16 -16 -17
-18 -17 -17 -15 -16 -15 -14 -16 -16 -16 -16 -17 -17 -16 -16 -16 -15 -15 -15 -15 -15 -15 -16 -16 -16 -16 -17 -17 -18 -18 -17 -17 -17 -17 -17 -16 -16 -16 -16 -16 -16 -17 -17 -17
-18 -18 -17 -16 -15 -15 -15 -16 -16 -16 -15 -16 -16 -16 -16 -16 -15 -15 -15 -15 -15 -15 -16 -16 -16 -17 -17 -17 -17 -17 -17 -17 -17 -17 -17 -16 -16 -16 -16 -17 -17 -17 -17 -18
-18 -19 -18 -17 -16 -15 -15 -16 -16 -17 -15 -16 -17 -16 -16 -15 -15 -15 -15 -15 -15 -15 -16 -16 -16 -17 -17 -17 -17 -17 -17 -17 -17 -17 -17 -17 -17 -17 -17 -17 -17 -17 -18 -18
-18 -18 -18 -17 -17 -15 -15 -16 -17 -16 -16 -17 -17 -17 -16 -15 -15 -15 -15 -15 -15 -15 -16 -16 -16 -17 -17 -17 -17 -17 -17 -17 -17 -17 -17 -17 -17 -17 -17 -17 -18 -18 -18 -18
-17 -18 -17 -18 -17 -16 -16 -16 -16 -17 -17 -17 -17 -17 -16 -16 -15 -15 -15 -15 -15 -15 -16 -16 -17 -17 -17 -17 -17 -17 -17 -17 -17 -17 -17 -17 -17 -17 -18 -18 -18 -18 -19 -19
-18 -17 -17 -18 -16 -17 -17 -17 -18 -17 -17 -17 -17 -16 -16 -16 -15 -15 -15 -15 -15 -16 -16 -16 -17 -17 -17 -17 -17 -17 -17 -17 -17 -17 -17 -17 -18 -18 -18 -18 -19 -19 -19 -19
-18 -17 -17 -17 -17 -18 -18 -17 -17 -17 -17 -18 -17 -17 -16 -16 -16 -16 -16 -16 -16 -16 -16 -16 -17 -17 -17 -17 -17 -17 -17 -17 -17 -18 -18 -18 -18 -18 -19 -19 -19 -19 -20 -20
-18 -18 -17 -17 -17 -18 -18 -17 -18 -18 -18 -18 -17 -16 -16 -16 -16 -16 -16 -16 -17 -17 -17 -17 -17 -17 -17 -17 -17 -17 -17 -18 -18 -18 -18 -18 -19 -19 -19 -19 -19 -19 -20 -20
-18 -17 -17 -17 -18 -17 -18 -17 -17 -17 -18 -17 -16 -16 -16 -16 -16 -16 -16 -17 -17 -17 -17 -17 -17 -17 -17 -18 -18 -18 -18 -18 -18 -18 -19 -19 -19 -19 -19 -19 -20 -20 -20 -21

GFSCGP_500_temp_048.txt.gz
Temp
-13 -13 -13 -13 -16 -15 -16 -16 -15 -15 -14 -14 -15 -15 -15 -15 -14 -15 -15 -15 -15 -15 -15 -15 -15 -15 -15 -14 -14 -14 -15 -15 -15 -14 -14 -14 -15 -15 -14 -14 -14 -15 -15 -15
-13 -13 -13 -14 -16 -15 -15 -15 -16 -15 -15 -14 -15 -15 -15 -15 -14 -14 -14 -15 -15 -15 -15 -16 -15 -15 -15 -14 -14 -15 -15 -14 -14 -14 -14 -14 -14 -14 -14 -15 -15 -15 -15 -15
-14 -13 -14 -14 -14 -14 -14 -16 -16 -15 -15 -14 -14 -15 -15 -15 -15 -14 -14 -14 -15 -15 -15 -15 -15 -15 -15 -15 -15 -15 -15 -15 -15 -14 -15 -15 -15 -15 -15 -15 -15 -15 -15 -15
-13 -13 -13 -14 -14 -14 -15 -15 -16 -15 -15 -15 -15 -15 -14 -15 -14 -14 -14 -15 -15 -15 -15 -15 -15 -14 -14 -14 -14 -14 -14 -14 -14 -15 -15 -15 -15 -15 -15 -15 -15 -15 -16 -16
-13 -13 -13 -14 -14 -14 -15 -15 -15 -15 -15 -16 -15 -14 -15 -14 -15 -14 -15 -15 -15 -15 -15 -15 -15 -14 -14 -14 -14 -15 -15 -15 -15 -15 -15 -15 -15 -15 -16 -16 -17 -16 -16 -16
-14 -14 -13 -14 -14 -14 -15 -14 -15 -15 -15 -14 -15 -15 -14 -14 -14 -15 -15 -15 -15 -14 -15 -15 -15 -15 -15 -15 -15 -15 -15 -15 -15 -15 -15 -15 -15 -15 -16 -16 -16 -16 -15 -17
-14 -13 -14 -13 -14 -14 -14 -14 -14 -15 -15 -14 -15 -14 -14 -14 -15 -15 -15 -16 -16 -15 -14 -15 -15 -15 -15 -15 -15 -15 -15 -15 -15 -15 -16 -15 -15 -15 -16 -15 -16 -16 -15 -15
-14 -14 -13 -13 -13 -14 -14 -14 -15 -15 -15 -14 -14 -14 -15 -14 -14 -14 -15 -15 -16 -15 -14 -15 -15 -15 -15 -15 -15 -15 -16 -16 -15 -15 -15 -16 -16 -17 -17 -16 -16 -16 -16 -16
-15 -14 -15 -14 -14 -14 -14 -14 -14 -14 -14 -14 -14 -15 -15 -15 -14 -15 -14 -14 -15 -16 -16 -16 -15 -15 -14 -15 -15 -15 -15 -15 -15 -15 -16 -15 -16 -17 -16 -16 -15 -15 -16 -16
-16 -16 -16 -16 -15 -14 -14 -15 -15 -15 -15 -15 -15 -15 -15 -15 -15 -14 -15 -15 -14 -14 -15 -15 -16 -16 -15 -15 -14 -15 -16 -15 -15 -15 -15 -16 -16 -16 -16 -16 -16 -15 -15 -16
-16 -16 -16 -16 -14 -14 -14 -14 -15 -15 -16 -16 -14 -15 -14 -15 -16 -15 -15 -15 -15 -15 -14 -15 -16 -16 -17 -13 -14 -14 -15 -15 -16 -16 -16 -16 -15 -16 -16 -16 -16 -15 -16 -16
-16 -16 -16 -15 -16 -15 -15 -15 -15 -15 -15 -15 -15 -15 -15 -15 -15 -16 -15 -15 -14 -15 -15 -15 -16 -16 -16 -16 -16 -15 -15 -16 -17 -16 -16 -17 -16 -16 -16 -16 -16 -16 -16 -16
-16 -16 -17 -17 -16 -16 -15 -16 -15 -15 -16 -16 -15 -15 -16 -16 -15 -15 -15 -15 -15 -14 -15 -15 -15 -16 -16 -16 -16 -16 -16 -16 -16 -16 -16 -16 -17 -17 -16 -16 -16 -16 -16 -16
-16 -16 -16 -15 -15 -16 -15 -16 -15 -15 -15 -15 -16 -15 -15 -16 -15 -15 -15 -15 -14 -14 -15 -15 -15 -15 -15 -16 -16 -16 -16 -16 -16 -16 -16 -17 -17 -17 -17 -17 -17 -17 -16 -16
-16 -15 -17 -17 -16 -16 -16 -15 -15 -15 -16 -16 -16 -16 -16 -16 -15 -15 -15 -15 -16 -15 -15 -15 -15 -15 -15 -15 -15 -15 -16 -16 -16 -16 -16 -17 -17 -17 -17 -17 -17 -17 -17 -17
-17 -16 -17 -16 -15 -16 -15 -15 -16 -16 -16 -16 -17 -17 -17 -16 -16 -16 -16 -16 -14 -15 -15 -15 -15 -15 -15 -15 -15 -15 -16 -16 -16 -17 -17 -17 -17 -17 -17 -17 -17 -17 -17 -16
-18 -18 -18 -16 -16 -17 -16 -16 -16 -16 -16 -16 -16 -16 -17 -17 -16 -16 -16 -15 -15 -14 -15 -16 -16 -15 -15 -15 -15 -16 -16 -17 -17 -17 -17 -18 -17 -17 -17 -17 -16 -16 -16 -16
-17 -19 -18 -17 -17 -16 -15 -16 -16 -16 -16 -16 -17 -17 -17 -17 -17 -17 -15 -15 -15 -15 -15 -15 -16 -15 -15 -16 -16 -16 -16 -17 -17 -18 -17 -17 -17 -17 -17 -17 -17 -17 -17 -17
-18 -18 -17 -17 -17 -16 -16 -16 -15 -15 -16 -16 -16 -17 -17 -17 -17 -15 -15 -15 -15 -15 -15 -15 -15 -16 -16 -16 -16 -16 -17 -17 -17 -17 -17 -17 -17 -17 -17 -17 -17 -17 -17 -17
-17 -17 -17 -17 -17 -16 -15 -16 -16 -16 -15 -16 -16 -16 -17 -17 -16 -15 -15 -15 -15 -15 -14 -15 -15 -15 -16 -16 -16 -16 -16 -17 -17 -17 -17 -17 -17 -17 -17 -17 -17 -17 -17 -18
-18 -17 -17 -17 -17 -16 -15 -16 -17 -16 -15 -17 -17 -17 -17 -16 -16 -15 -15 -15 -15 -15 -15 -14 -15 -15 -16 -16 -16 -17 -17 -17 -17 -17 -17 -17 -17 -17 -17 -17 -17 -17 -17 -18
-18 -17 -17 -17 -17 -16 -16 -17 -17 -16 -17 -17 -18 -18 -18 -17 -16 -16 -15 -15 -15 -15 -15 -15 -15 -15 -16 -16 -16 -17 -17 -17 -17 -17 -17 -17 -17 -17 -17 -17 -17 -18 -18 -18
-18 -17 -17 -17 -17 -16 -17 -17 -18 -18 -18 -18 -18 -17 -17 -17 -17 -16 -16 -16 -15 -15 -15 -15 -15 -15 -16 -16 -17 -17 -17 -17 -17 -17 -17 -17 -17 -17 -17 -17 -18 -18 -18 -19
-18 -17 -17 -17 -17 -17 -17 -17 -17 -18 -18 -18 -18 -17 -17 -17 -17 -16 -16 -16 -16 -16 -16 -16 -16 -16 -16 -16 -17 -17 -17 -17 -17 -17 -17 -17 -17 -18 -18 -18 -18 -19 -19 -19
-19 -19 -17 -17 -17 -16 -17 -17 -17 -18 -18 -18 -18 -18 -18 -17 -16 -16 -16 -16 -16 -16 -16 -16 -16 -16 -17 -17 -17 -17 -17 -17 -17 -17 -17 -18 -18 -18 -19 -19 -19 -19 -19 -20
-19 -19 -18 -17 -17 -17 -17 -16 -17 -17 -17 -18 -18 -18 -18 -18 -16 -16 -16 -16 -17 -16 -16 -17 -17 -17 -17 -17 -17 -17 -17 -17 -17 -18 -18 -18 -19 -19 -19 -19 -19 -19 -20 -20

GFSCGP_500_temp_051.txt.gz
Temp
-12 -12 -13 -12 -13 -12 -13 -16 -16 -15 -15 -15 -15 -15 -14 -14 -15 -15 -14 -14 -15 -14 -14 -15 -15 -15 -14 -14 -14 -14 -14 -14 -15 -14 -14 -14 -14 -14 -14 -14 -14 -14 -15 -15
-12 -13 -13 -13 -13 -12 -14 -14 -15 -16 -15 -15 -15 -15 -14 -14 -15 -15 -15 -14 -15 -15 -14 -14 -15 -14 -14 -14 -14 -14 -14 -15 -14 -14 -14 -14 -14 -14 -14 -14 -15 -15 -15 -15
-12 -14 -13 -13 -12 -13 -14 -14 -15 -16 -16 -15 -15 -15 -15 -15 -14 -14 -15 -15 -15 -15 -15 -15 -14 -14 -14 -14 -14 -14 -14 -14 -14 -14 -14 -14 -15 -15 -15 -16 -16 -16 -16 -16
-12 -14 -13 -12 -13 -14 -14 -14 -15 -15 -15 -16 -16 -15 -15 -15 -14 -14 -15 -15 -15 -14 -15 -14 -15 -14 -14 -14 -14 -14 -14 -14 -14 -15 -15 -15 -15 -15 -15 -15 -15 -15 -16 -16
-13 -14 -13 -12 -13 -14 -14 -14 -15 -15 -15 -15 -15 -15 -15 -15 -14 -14 -14 -14 -14 -15 -15 -15 -15 -15 -15 -15 -15 -14 -14 -14 -15 -15 -15 -15 -15 -15 -15 -15 -15 -15 -15 -15
-12 -13 -14 -13 -13 -14 -15 -14 -15 -14 -15 -14 -15 -15 -14 -14 -15 -14 -13 -14 -14 -15 -14 -14 -14 -15 -15 -15 -14 -14 -14 -14 -14 -14 -14 -14 -15 -15 -15 -15 -15 -15 -15 -16
-12 -13 -13 -14 -13 -14 -15 -15 -14 -14 -14 -14 -15 -15 -14 -15 -14 -14 -14 -13 -13 -14 -14 -14 -14 -14 -14 -14 -14 -14 -14 -14 -14 -14 -14 -14 -14 -15 -15 -15 -15 -15 -16 -15
-13 -13 -13 -14 -13 -14 -14 -14 -15 -15 -14 -14 -14 -14 -15 -14 -15 -15 -15 -14 -14 -13 -13 -13 -14 -14 -14 -14 -14 -14 -14 -14 -14 -15 -15 -15 -15 -15 -15 -15 -15 -15 -16 -16
-13 -12 -14 -15 -14 -14 -14 -14 -15 -15 -14 -14 -14 -15 -15 -15 -14 -15 -15 -15 -15 -14 -13 -13 -13 -14 -14 -14 -14 -14 -14 -14 -15 -15 -15 -15 -15 -15 -16 -16 -16 -16 -16 -16
-13 -13 -14 -15 -15 -14 -15 -15 -16 -16 -15 -15 -14 -15 -15 -15 -15 -15 -15 -14 -15 -14 -14 -14 -14 -13 -14 -15 -16 -16 -15 -15 -14 -14 -15 -16 -16 -15 -16 -16 -16 -16 -16 -17
-14 -14 -15 -15 -15 -14 -15 -15 -15 -16 -16 -15 -15 -15 -15 -15 -15 -15 -14 -15 -15 -14 -15 -14 -14 -13 -13 -14 -15 -15 -15 -14 -15 -15 -15 -15 -16 -17 -16 -16 -16 -16 -17 -17
-14 -14 -15 -14 -15 -14 -14 -15 -15 -15 -16 -16 -15 -15 -16 -15 -15 -15 -15 -15 -15 -14 -14 -14 -14 -14 -14 -14 -15 -15 -15 -15 -15 -15 -15 -16 -15 -15 -16 -15 -16 -16 -17 -17
-15 -14 -15 -15 -15 -15 -15 -15 -15 -16 -16 -15 -15 -14 -16 -16 -15 -15 -16 -16 -15 -14 -14 -14 -14 -15 -15 -15 -14 -14 -15 -15 -15 -15 -15 -16 -16 -17 -16 -17 -17 -17 -16 -17
-16 -15 -14 -14 -15 -15 -15 -14 -15 -15 -16 -15 -15 -14 -16 -15 -15 -16 -16 -16 -15 -15 -15 -14 -14 -15 -15 -15 -15 -15 -15 -15 -16 -16 -16 -16 -16 -16 -16 -17 -17 -17 -17 -17
-16 -15 -15 -15 -16 -16 -16 -15 -15 -15 -15 -15 -15 -15 -15 -16 -16 -17 -16 -15 -15 -15 -14 -14 -14 -14 -14 -15 -15 -15 -15 -15 -15 -15 -16 -16 -16 -16 -16 -17 -17 -17 -17 -17
-17 -16 -16 -15 -16 -16 -16 -16 -16 -16 -16 -16 -16 -15 -15 -16 -17 -16 -16 -16 -15 -16 -15 -15 -15 -15 -14 -14 -15 -15 -15 -15 -15 -15 -15 -16 -16 -16 -16 -17 -17 -17 -17 -17
-17 -16 -17 -15 -17 -17 -16 -15 -15 -15 -16 -16 -16 -16 -17 -17 -17 -16 -16 -16 -15 -15 -14 -15 -15 -15 -14 -14 -15 -15 -15 -15 -15 -15 -15 -15 -16 -17 -17 -17 -17 -17 -17 -17
-17 -16 -17 -16 -17 -16 -15 -15 -15 -15 -16 -16 -16 -16 -16 -16 -16 -17 -17 -17 -17 -16 -15 -15 -15 -15 -15 -15 -15 -15 -15 -16 -16 -16 -16 -16 -16 -17 -17 -17 -17 -17 -17 -17
-16 -17 -18 -17 -17 -15 -15 -15 -16 -16 -15 -16 -16 -16 -16 -16 -16 -17 -17 -17 -17 -16 -16 -15 -15 -15 -15 -14 -14 -15 -15 -16 -16 -16 -16 -17 -17 -16 -17 -17 -17 -17 -17 -17
-17 -17 -18 -17 -17 -15 -14 -16 -17 -17 -15 -16 -16 -16 -17 -17 -17 -17 -17 -16 -16 -16 -15 -16 -15 -15 -15 -15 -15 -15 -15 -15 -16 -16 -16 -16 -17 -17 -17 -17 -17 -17 -17 -17
-17 -17 -17 -17 -17 -15 -15 -16 -17 -17 -14 -16 -17 -17 -16 -16 -17 -17 -17 -16 -16 -16 -16 -16 -15 -15 -15 -14 -14 -15 -15 -15 -16 -16 -16 -17 -17 -17 -17 -17 -17 -17 -17 -18
-18 -18 -18 -18 -17 -16 -17 -17 -17 -16 -16 -17 -18 -17 -17 -17 -17 -17 -17 -16 -16 -16 -16 -15 -15 -15 -15 -15 -15 -15 -15 -16 -16 -16 -16 -17 -17 -17 -17 -17 -17 -17 -18 -18
-20 -19 -18 -18 -17 -17 -17 -17 -17 -16 -17 -18 -18 -18 -17 -18 -17 -17 -17 -16 -16 -16 -15 -15 -15 -15 -15 -15 -15 -15 -16 -16 -16 -16 -17 -17 -17 -17 -17 -17 -18 -18 -18 -18
-20 -20 -20 -19 -18 -18 -18 -18 -17 -17 -17 -17 -18 -18 -18 -17 -17 -16 -17 -17 -17 -16 -16 -16 -16 -16 -16 -16 -16 -16 -16 -16 -16 -17 -17 -17 -17 -17 -18 -18 -18 -18 -19 -19
-21 -21 -20 -19 -19 -18 -18 -17 -17 -17 -16 -17 -18 -18 -18 -18 -17 -17 -17 -17 -17 -16 -16 -16 -16 -16 -16 -16 -16 -17 -17 -17 -17 -17 -18 -18 -18 -18 -18 -18 -19 -19 -19 -19
-21 -21 -20 -19 -19 -19 -18 -17 -17 -17 -17 -17 -17 -17 -17 -17 -17 -17 -18 -18 -17 -16 -17 -16 -17 -17 -17 -17 -17 -17 -17 -17 -18 -18 -18 -18 -18 -18 -19 -19 -19 -19 -19 -19

GFSCGP_500_temp_054.txt.gz
Temp
-13 -12 -13 -14 -13 -13 -13 -13 -14 -15 -16 -15 -15 -15 -15 -15 -15 -14 -14 -14 -14 -14 -14 -14 -14 -14 -14 -14 -14 -14 -14 -13 -12 -11 -11 -12 -12 -12 -13 -14 -13 -14 -15 -14
-12 -13 -13 -13 -13 -13 -13 -13 -14 -15 -16 -16 -15 -15 -15 -14 -15 -15 -15 -14 -14 -14 -14 -14 -14 -14 -14 -14 -15 -14 -14 -14 -14 -13 -13 -14 -14 -14 -14 -14 -14 -15 -15 -15
-12 -14 -12 -13 -13 -13 -13 -13 -14 -16 -16 -16 -15 -15 -16 -14 -15 -15 -15 -15 -14 -14 -15 -15 -14 -14 -14 -14 -14 -14 -14 -14 -14 -14 -14 -14 -13 -13 -14 -14 -14 -15 -15 -15
-12 -13 -13 -13 -12 -13 -13 -12 -14 -15 -16 -16 -16 -15 -15 -14 -14 -15 -15 -15 -14 -14 -15 -15 -14 -14 -14 -14 -14 -14 -14 -14 -14 -14 -14 -14 -14 -14 -14 -14 -14 -15 -15 -15
-12 -14 -13 -13 -13 -14 -13 -13 -14 -14 -14 -15 -15 -15 -15 -14 -14 -14 -15 -15 -15 -14 -15 -15 -14 -14 -14 -14 -14 -14 -14 -14 -14 -14 -14 -14 -14 -14 -15 -15 -15 -14 -15 -15
-12 -13 -13 -13 -13 -13 -13 -13 -14 -14 -14 -14 -15 -15 -14 -14 -15 -14 -14 -15 -15 -14 -14 -15 -14 -14 -14 -14 -14 -14 -14 -14 -14 -14 -14 -14 -14 -14 -14 -14 -15 -15 -15 -15
-12 -12 -13 -13 -12 -13 -13 -13 -14 -14 -14 -14 -14 -13 -14 -15 -14 -14 -14 -14 -14 -14 -14 -14 -15 -14 -14 -14 -14 -14 -15 -14 -14 -15 -15 -15 -15 -15 -15 -15 -15 -15 -15 -15
-13 -13 -13 -13 -13 -13 -13 -14 -13 -14 -14 -15 -15 -14 -14 -14 -14 -14 -14 -14 -14 -14 -14 -14 -14 -14 -14 -14 -14 -15 -15 -15 -15 -15 -15 -15 -15 -16 -15 -16 -16 -15 -15 -15
-13 -13 -14 -14 -14 -14 -14 -14 -14 -15 -14 -14 -15 -15 -15 -14 -15 -14 -14 -14 -14 -14 -14 -14 -14 -14 -14 -15 -15 -15 -15 -15 -15 -15 -15 -15 -15 -16 -15 -16 -15 -15 -15 -16
-14 -13 -14 -15 -15 -14 -15 -15 -14 -15 -14 -14 -14 -15 -15 -15 -15 -15 -15 -14 -14 -14 -14 -14 -14 -14 -15 -15 -15 -15 -15 -15 -15 -14 -15 -15 -15 -15 -16 -16 -16 -16 -16 -16
-14 -14 -14 -15 -14 -14 -15 -14 -14 -15 -14 -14 -14 -15 -15 -15 -15 -15 -15 -15 -15 -15 -14 -14 -14 -14 -14 -14 -14 -15 -15 -15 -15 -15 -16 -15 -15 -15 -15 -15 -16 -16 -15 -15
-14 -14 -14 -13 -14 -15 -14 -14 -15 -15 -14 -13 -14 -14 -15 -15 -16 -15 -16 -15 -15 -14 -14 -14 -14 -14 -14 -14 -14 -15 -15 -15 -16 -15 -15 -16 -16 -15 -15 -15 -15 -16 -16 -16
-15 -13 -14 -15 -15 -15 -15 -14 -14 -15 -15 -14 -14 -13 -15 -16 -16 -15 -15 -16 -15 -15 -15 -15 -15 -15 -14 -14 -14 -14 -15 -15 -15 -15 -15 -15 -15 -15 -15 -15 -15 -16 -16 -16
-15 -13 -13 -13 -14 -15 -15 -14 -14 -16 -15 -14 -14 -13 -15 -15 -16 -16 -16 -16 -16 -16 -15 -15 -15 -16 -15 -15 -14 -14 -14 -15 -15 -16 -16 -15 -16 -15 -16 -15 -15 -15 -16 -16
-17 -14 -14 -14 -15 -16 -16 -15 -15 -15 -15 -15 -14 -14 -15 -15 -15 -16 -16 -16 -16 -16 -16 -15 -15 -15 -15 -16 -16 -15 -15 -15 -15 -15 -15 -16 -16 -16 -16 -16 -16 -16 -16 -17
-17 -16 -15 -15 -16 -16 -16 -15 -15 -15 -16 -15 -16 -15 -15 -15 -16 -16 -16 -17 -16 -16 -16 -15 -15 -15 -15 -15 -15 -16 -16 -15 -15 -15 -16 -16 -16 -16 -16 -16 -17 -17 -18 -17
-17 -16 -16 -14 -16 -16 -16 -15 -15 -15 -15 -15 -15 -15 -16 -15 -16 -17 -16 -16 -16 -16 -16 -16 -16 -15 -14 -15 -15 -15 -15 -15 -15 -15 -15 -16 -16 -16 -17 -17 -17 -17 -17 -17
-17 -17 -16 -15 -17 -17 -12 -15 -15 -15 -15 -16 -15 -16 -16 -16 -16 -15 -16 -16 -16 -16 -16 -16 -15 -15 -16 -15 -15 -15 -15 -15 -15 -15 -16 -16 -16 -16 -17 -17 -17 -17 -17 -17
-17 -18 -17 -17 -17 -16 -15 -14 -16 -16 -16 -16 -15 -15 -16 -16 -16 -17 -16 -16 -17 -16 -16 -16 -16 -16 -15 -15 -15 -15 -14 -15 -15 -15 -15 -15 -16 -16 -16 -16 -16 -16 -16 -16
-19 -19 -18 -17 -18 -17 -13 -16 -16 -17 -16 -16 -16 -16 -16 -17 -16 -16 -16 -16 -17 -17 -16 -16 -16 -16 -15 -15 -15 -15 -15 -14 -14 -15 -15 -15 -15 -16 -16 -16 -16 -16 -17 -17
-19 -19 -18 -18 -18 -17 -17 -17 -17 -17 -14 -17 -17 -17 -16 -16 -16 -16 -17 -17 -17 -17 -16 -16 -16 -15 -15 -15 -15 -15 -15 -14 -14 -14 -15 -15 -15 -15 -16 -17 -17 -17 -17 -17
-20 -20 -19 -18 -18 -17 -17 -18 -18 -16 -16 -17 -17 -17 -16 -16 -16 -16 -17 -17 -17 -17 -16 -15 -16 -16 -16 -15 -16 -15 -15 -15 -15 -15 -15 -15 -15 -16 -16 -17 -17 -17 -17 -17
-20 -19 -19 -19 -18 -18 -18 -18 -18 -17 -18 -18 -17 -17 -17 -17 -17 -17 -17 -17 -17 -17 -16 -15 -16 -16 -16 -16 -16 -16 -16 -16 -15 -15 -15 -15 -16 -16 -16 -17 -17 -17 -17 -17
-20 -20 -20 -20 -19 -19 -19 -18 -18 -17 -17 -17 -17 -17 -17 -16 -17 -16 -18 -18 -18 -17 -17 -16 -16 -17 -16 -16 -16 -16 -16 -16 -16 -16 -16 -16 -17 -17 -17 -17 -17 -17 -17 -18
-21 -21 -21 -20 -21 -21 -21 -20 -18 -18 -18 -17 -17 -17 -17 -17 -17 -16 -17 -18 -17 -17 -17 -17 -17 -17 -17 -17 -17 -17 -17 -17 -17 -17 -17 -17 -17 -17 -17 -18 -18 -18 -18 -18
-21 -21 -21 -21 -20 -21 -20 -20 -18 -18 -18 -18 -18 -17 -17 -17 -17 -17 -17 -17 -18 -17 -17 -17 -17 -17 -17 -17 -17 -18 -17 -17 -17 -17 -17 -17 -17 -18 -18 -18 -18 -18 -18 -19

GFSCGP_500_temp_057.txt.gz
Temp
-13 -12 -13 -14 -13 -13 -13 -12 -13 -15 -15 -14 -14 -14 -14 -15 -14 -14 -14 -14 -14 -14 -14 -14 -14 -13 -12 -12 -13 -13 -13 -12 -13 -13 -13 -13 -14 -14 -13 -13 -14 -14 -14 -14
-12 -12 -14 -13 -12 -13 -13 -12 -13 -15 -16 -15 -14 -15 -15 -14 -15 -14 -14 -14 -14 -14 -14 -14 -14 -14 -14 -14 -14 -14 -13 -13 -12 -13 -13 -14 -14 -14 -13 -13 -14 -14 -15 -15
-12 -13 -13 -12 -12 -13 -13 -12 -14 -14 -15 -15 -14 -14 -14 -14 -15 -14 -14 -14 -14 -14 -14 -14 -14 -14 -14 -14 -14 -14 -14 -14 -14 -14 -14 -14 -14 -14 -14 -14 -14 -15 -15 -15
-12 -13 -14 -13 -13 -13 -13 -14 -13 -14 -13 -14 -14 -13 -14 -14 -14 -14 -14 -14 -14 -14 -14 -14 -14 -14 -14 -14 -14 -14 -14 -14 -14 -14 -13 -14 -14 -14 -13 -14 -15 -15 -15 -15
-12 -13 -14 -13 -13 -14 -14 -14 -13 -13 -13 -13 -14 -14 -14 -13 -14 -14 -14 -14 -14 -15 -15 -14 -14 -14 -14 -14 -14 -14 -14 -14 -14 -14 -14 -14 -14 -14 -14 -15 -15 -15 -15 -15
-13 -14 -14 -13 -14 -13 -15 -14 -14 -13 -13 -12 -14 -14 -13 -13 -14 -15 -14 -14 -14 -14 -14 -14 -14 -14 -14 -14 -14 -14 -14 -14 -15 -15 -15 -14 -14 -14 -14 -15 -15 -15 -15 -16
-13 -13 -14 -13 -13 -14 -13 -14 -13 -13 -12 -12 -15 -13 -13 -14 -14 -14 -14 -14 -14 -14 -14 -14 -14 -14 -14 -14 -15 -14 -14 -14 -14 -14 -14 -14 -14 -14 -15 -15 -15 -15 -15 -16
-14 -13 -14 -13 -13 -14 -14 -15 -13 -13 -12 -13 -14 -13 -14 -14 -13 -14 -14 -14 -14 -14 -14 -14 -14 -14 -14 -14 -14 -14 -15 -15 -15 -15 -14 -14 -14 -14 -15 -15 -16 -16 -16 -15
-14 -13 -14 -14 -14 -14 -14 -14 -14 -14 -13 -13 -14 -13 -14 -14 -14 -14 -15 -14 -14 -14 -14 -15 -14 -14 -14 -15 -15 -14 -14 -14 -15 -15 -14 -14 -14 -15 -15 -15 -15 -15 -15 -16
-15 -14 -15 -15 -15 -15 -14 -15 -15 -14 -14 -13 -12 -13 -13 -14 -14 -14 -14 -14 -14 -15 -15 -15 -14 -14 -14 -15 -15 -15 -15 -15 -15 -15 -15 -15 -15 -14 -15 -15 -16 -16 -16 -16
-14 -15 -15 -15 -15 -15 -15 -14 -14 -14 -14 -13 -12 -13 -14 -14 -14 -14 -14 -14 -14 -14 -15 -15 -14 -14 -14 -14 -15 -15 -16 -16 -15 -15 -15 -15 -16 -16 -16 -16 -16 -16 -16 -16
-14 -14 -14 -14 -15 -15 -15 -15 -15 -15 -14 -13 -13 -12 -15 -15 -14 -14 -15 -15 -15 -14 -15 -15 -14 -14 -14 -14 -14 -14 -15 -15 -16 -15 -15 -15 -15 -16 -15 -15 -15 -15 -15 -15
-14 -13 -13 -14 -15 -15 -15 -14 -14 -15 -14 -13 -13 -12 -15 -15 -15 -15 -15 -15 -15 -15 -15 -15 -15 -15 -15 -15 -15 -15 -14 -15 -15 -15 -15 -15 -15 -15 -15 -15 -15 -14 -15 -16
-15 -15 -14 -13 -14 -15 -15 -15 -14 -14 -14 -14 -13 -13 -13 -14 -15 -15 -15 -15 -15 -15 -16 -15 -15 -15 -15 -16 -15 -15 -14 -15 -15 -15 -15 -15 -15 -15 -15 -15 -15 -15 -16 -16
-17 -16 -15 -14 -14 -15 -15 -15 -15 -14 -14 -14 -14 -14 -13 -14 -15 -15 -16 -15 -16 -15 -15 -16 -16 -16 -16 -16 -16 -15 -15 -15 -15 -15 -15 -15 -15 -15 -15 -15 -16 -16 -16 -16
-18 -17 -16 -15 -15 -16 -15 -14 -14 -14 -14 -15 -15 -14 -14 -14 -15 -15 -15 -16 -16 -15 -15 -15 -15 -16 -15 -16 -16 -16 -16 -16 -16 -15 -15 -15 -15 -15 -16 -16 -16 -16 -17 -16
-18 -18 -18 -16 -17 -16 -15 -13 -15 -15 -14 -14 -15 -15 -14 -14 -14 -14 -15 -16 -16 -16 -15 -16 -16 -16 -16 -16 -16 -16 -16 -16 -16 -16 -15 -15 -15 -15 -16 -16 -16 -17 -17 -17
-19 -18 -18 -18 -18 -17 -14 -15 -15 -16 -15 -15 -15 -15 -15 -15 -14 -14 -15 -15 -15 -15 -15 -15 -16 -17 -16 -16 -16 -16 -16 -16 -16 -15 -15 -15 -15 -15 -15 -15 -16 -16 -16 -17
-20 -18 -18 -18 -17 -17 -16 -16 -16 -16 -16 -16 -16 -15 -16 -15 -15 -14 -15 -15 -15 -15 -16 -16 -16 -17 -17 -16 -15 -16 -16 -16 -16 -15 -15 -15 -15 -15 -16 -16 -16 -17 -17 -17
-20 -19 -19 -18 -18 -18 -16 -17 -18 -17 -16 -17 -16 -17 -16 -16 -15 -15 -15 -15 -15 -15 -15 -16 -17 -17 -17 -17 -16 -16 -16 -16 -15 -15 -15 -15 -15 -15 -15 -15 -16 -16 -16 -16
-20 -20 -19 -20 -20 -18 -17 -18 -18 -18 -15 -17 -17 -16 -16 -16 -16 -16 -16 -16 -16 -16 -16 -16 -17 -17 -16 -16 -16 -16 -16 -16 -16 -16 -16 -15 -15 -15 -16 -16 -16 -16 -16 -16
-20 -20 -20 -19 -19 -18 -18 -18 -18 -18 -17 -18 -18 -17 -16 -16 -16 -16 -16 -16 -16 -16 -16 -16 -16 -16 -16 -16 -16 -16 -16 -16 -16 -16 -16 -16 -16 -15 -16 -16 -16 -16 -16 -16
-20 -20 -21 -21 -20 -18 -17 -18 -17 -17 -17 -18 -18 -17 -17 -17 -16 -16 -17 -17 -16 -16 -17 -17 -16 -16 -17 -17 -17 -17 -17 -17 -16 -16 -16 -16 -16 -16 -16 -16 -16 -16 -16 -16
-21 -21 -21 -21 -19 -19 -20 -18 -18 -17 -18 -18 -18 -17 -17 -17 -17 -17 -17 -17 -17 -17 -17 -17 -17 -17 -17 -17 -17 -17 -17 -17 -16 -17 -17 -17 -17 -17 -17 -17 -17 -17 -17 -17
-21 -21 -21 -21 -20 -21 -20 -19 -19 -20 -18 -17 -18 -18 -18 -17 -17 -17 -17 -17 -18 -18 -17 -17 -17 -17 -17 -17 -17 -17 -18 -18 -18 -17 -17 -17 -17 -17 -17 -17 -17 -17 -17 -18
-21 -21 -21 -21 -21 -21 -20 -20 -19 -20 -20 -19 -18 -18 -17 -17 -17 -17 -17 -17 -17 -17 -17 -18 -18 -18 -18 -18 -18 -18 -18 -19 -18 -18 -18 -18 -18 -18 -18 -18 -18 -18 -18 -18

GFSCGP_500_temp_060.txt.gz
Temp
-12 -12 -12 -14 -13 -13 -13 -13 -13 -13 -14 -14 -15 -15 -15 -14 -14 -14 -14 -14 -14 -15 -15 -14 -14 -13 -13 -13 -13 -13 -13 -13 -13 -13 -13 -13 -14 -14 -14 -13 -13 -14 -13 -14
-13 -12 -13 -14 -13 -13 -12 -13 -13 -14 -14 -13 -14 -15 -15 -14 -14 -14 -14 -14 -14 -14 -15 -14 -14 -14 -14 -14 -14 -13 -13 -13 -13 -13 -13 -12 -13 -13 -13 -13 -14 -14 -13 -14
-13 -12 -14 -14 -14 -13 -13 -12 -13 -14 -14 -13 -13 -14 -15 -14 -14 -14 -14 -14 -14 -14 -14 -15 -14 -14 -14 -14 -15 -15 -14 -14 -13 -13 -13 -13 -13 -13 -13 -13 -14 -14 -14 -14
-13 -13 -13 -13 -13 -13 -13 -14 -14 -14 -13 -13 -13 -13 -14 -14 -14 -14 -14 -14 -14 -14 -14 -14 -14 -14 -14 -14 -14 -14 -14 -14 -13 -13 -14 -13 -13 -14 -14 -14 -14 -14 -14 -15
-13 -13 -13 -14 -14 -14 -14 -16 -15 -14 -13 -12 -13 -13 -14 -14 -14 -14 -14 -14 -14 -14 -14 -14 -14 -14 -14 -14 -14 -14 -14 -14 -14 -14 -14 -14 -14 -14 -13 -14 -14 -14 -14 -15
-14 -13 -14 -14 -14 -14 -14 -14 -14 -14 -14 -12 -13 -13 -13 -14 -14 -13 -14 -14 -14 -15 -14 -14 -14 -14 -14 -14 -14 -14 -14 -14 -14 -14 -14 -14 -14 -15 -15 -15 -15 -15 -15 -15
-14 -13 -13 -14 -14 -14 -13 -14 -14 -14 -13 -12 -14 -13 -13 -13 -14 -14 -13 -13 -13 -14 -15 -15 -14 -14 -14 -14 -14 -15 -15 -15 -14 -14 -14 -14 -14 -14 -15 -14 -15 -14 -15 -15
-14 -13 -13 -14 -14 -14 -14 -14 -14 -14 -14 -14 -14 -13 -13 -13 -13 -14 -14 -13 -13 -14 -14 -15 -15 -15 -14 -15 -15 -15 -15 -15 -15 -14 -14 -14 -14 -14 -15 -15 -15 -15 -15 -15
-15 -14 -14 -14 -15 -15 -15 -14 -14 -15 -15 -14 -14 -13 -13 -13 -14 -14 -14 -14 -14 -14 -14 -14 -14 -14 -15 -15 -15 -15 -15 -15 -15 -15 -14 -14 -14 -15 -15 -15 -15 -15 -15 -15
-15 -15 -15 -15 -15 -15 -15 -15 -15 -14 -14 -13 -13 -13 -13 -14 -14 -14 -14 -14 -14 -14 -14 -14 -15 -15 -15 -15 -15 -15 -15 -15 -15 -15 -15 -15 -15 -15 -16 -15 -15 -15 -16 -16
-16 -15 -15 -15 -15 -15 -15 -15 -14 -14 -14 -13 -13 -12 -14 -15 -14 -14 -14 -14 -14 -14 -14 -14 -14 -14 -15 -14 -15 -15 -15 -15 -16 -16 -16 -16 -15 -15 -15 -15 -15 -16 -16 -16
-15 -15 -15 -15 -16 -16 -15 -15 -16 -16 -15 -14 -13 -12 -14 -15 -15 -14 -14 -14 -14 -15 -14 -15 -14 -14 -14 -15 -15 -15 -15 -15 -15 -15 -15 -15 -15 -15 -15 -15 -16 -16 -16 -16
-16 -15 -15 -15 -15 -15 -15 -15 -14 -15 -14 -13 -13 -12 -14 -16 -15 -16 -15 -15 -15 -15 -15 -15 -15 -15 -15 -15 -15 -15 -15 -15 -15 -15 -15 -15 -15 -15 -15 -16 -16 -16 -15 -15
-16 -15 -15 -15 -15 -15 -14 -14 -14 -14 -13 -13 -13 -13 -14 -15 -16 -15 -16 -16 -15 -15 -15 -15 -15 -15 -15 -15 -15 -15 -15 -16 -16 -15 -15 -15 -15 -15 -15 -15 -15 -15 -15 -15
-17 -16 -15 -15 -15 -15 -14 -14 -15 -14 -14 -14 -14 -14 -14 -15 -15 -16 -16 -16 -16 -16 -16 -15 -15 -16 -16 -15 -16 -15 -15 -15 -15 -15 -15 -15 -15 -15 -15 -15 -15 -15 -15 -16
-17 -17 -16 -16 -16 -15 -15 -15 -15 -15 -14 -13 -13 -13 -14 -15 -15 -15 -15 -15 -15 -15 -16 -15 -16 -16 -16 -16 -16 -16 -16 -16 -16 -15 -15 -15 -15 -15 -15 -15 -15 -15 -15 -16
-18 -18 -17 -17 -16 -16 -16 -16 -16 -16 -16 -15 -14 -14 -14 -14 -15 -15 -15 -15 -15 -16 -16 -16 -16 -16 -16 -16 -16 -16 -16 -16 -16 -16 -16 -16 -15 -15 -15 -15 -15 -15 -15 -16
-19 -19 -18 -18 -18 -17 -17 -16 -16 -16 -16 -16 -15 -15 -16 -16 -15 -15 -15 -15 -15 -15 -16 -16 -16 -16 -16 -17 -17 -17 -17 -17 -16 -16 -16 -16 -15 -15 -16 -15 -15 -16 -16 -16
-19 -19 -19 -19 -19 -17 -18 -18 -17 -16 -16 -17 -16 -16 -15 -15 -15 -15 -16 -16 -16 -16 -16 -15 -16 -16 -17 -17 -17 -17 -17 -17 -16 -16 -16 -16 -16 -15 -15 -16 -16 -16 -16 -16
-20 -20 -20 -19 -19 -18 -18 -18 -18 -17 -15 -17 -17 -16 -16 -16 -15 -15 -16 -16 -16 -16 -17 -17 -16 -16 -17 -17 -17 -17 -16 -16 -17 -17 -16 -16 -16 -16 -15 -16 -15 -15 -15 -16
-20 -20 -20 -20 -20 -19 -18 -18 -18 -18 -17 -17 -18 -17 -17 -16 -17 -17 -16 -16 -16 -16 -16 -17 -17 -16 -17 -17 -17 -17 -17 -17 -17 -17 -16 -16 -16 -16 -16 -16 -16 -16 -16 -16
-20 -20 -20 -21 -21 -19 -19 -19 -19 -19 -18 -18 -18 -18 -17 -17 -16 -17 -17 -16 -16 -16 -16 -16 -17 -16 -16 -16 -17 -17 -17 -17 -17 -17 -17 -16 -16 -16 -16 -16 -16 -16 -16 -16
-21 -21 -21 -21 -20 -20 -19 -20 -20 -19 -19 -18 -17 -17 -17 -17 -16 -16 -16 -17 -17 -17 -17 -17 -17 -16 -16 -17 -17 -17 -17 -18 -17 -17 -17 -17 -17 -17 -17 -16 -17 -17 -17 -17
-21 -21 -21 -20 -20 -20 -20 -20 -20 -20 -18 -17 -18 -18 -18 -18 -17 -16 -16 -16 -17 -17 -17 -17 -17 -17 -17 -17 -17 -17 -18 -18 -17 -17 -17 -17 -17 -17 -18 -17 -17 -17 -17 -17
-21 -21 -21 -20 -20 -20 -20 -20 -20 -21 -20 -18 -17 -18 -18 -18 -17 -18 -17 -17 -17 -17 -17 -18 -18 -18 -17 -17 -17 -17 -17 -18 -18 -18 -18 -18 -18 -18 -18 -18 -18 -18 -18 -18
-21 -21 -21 -21 -21 -21 -21 -21 -21 -20 -20 -20 -20 -19 -19 -18 -18 -18 -18 -18 -17 -17 -17 -17 -17 -17 -17 -17 -17 -17 -17 -18 -18 -18 -18 -18 -18 -18 -18 -18 -18 -18 -18 -18

GFSCGP_500_temp_063.txt.gz
Temp
-13 -13 -12 -13 -14 -14 -13 -13 -12 -13 -13 -12 -13 -14 -15 -15 -15 -15 -14 -14 -14 -14 -14 -14 -14 -14 -13 -12 -13 -13 -13 -13 -13 -14 -13 -13 -13 -14 -13 -13 -14 -14 -13 -13
-13 -12 -13 -14 -14 -14 -13 -13 -12 -13 -13 -12 -13 -13 -15 -15 -15 -15 -14 -13 -14 -14 -14 -14 -14 -14 -14 -13 -13 -13 -13 -13 -14 -14 -13 -13 -13 -14 -14 -14 -14 -14 -14 -14
-13 -13 -13 -14 -14 -13 -13 -13 -13 -14 -14 -13 -12 -13 -14 -15 -16 -15 -14 -14 -14 -14 -14 -14 -14 -14 -14 -14 -14 -14 -14 -13 -13 -13 -14 -14 -14 -14 -14 -13 -14 -14 -14 -14
-14 -14 -13 -14 -14 -13 -13 -14 -14 -13 -13 -13 -13 -12 -14 -14 -14 -15 -14 -14 -13 -14 -14 -14 -14 -14 -14 -14 -14 -14 -14 -14 -14 -13 -13 -13 -14 -14 -14 -14 -14 -14 -14 -14
-13 -14 -13 -13 -14 -14 -13 -15 -14 -13 -13 -12 -13 -13 -14 -14 -14 -15 -14 -14 -13 -14 -14 -14 -15 -14 -14 -14 -14 -14 -14 -14 -13 -13 -14 -14 -14 -14 -14 -14 -14 -14 -14 -14
-14 -14 -14 -14 -14 -14 -14 -14 -14 -13 -13 -12 -13 -13 -15 -14 -14 -14 -14 -14 -13 -13 -14 -14 -14 -14 -14 -14 -14 -14 -14 -14 -14 -14 -14 -13 -13 -14 -14 -14 -14 -14 -14 -14
-14 -14 -14 -14 -14 -13 -14 -14 -14 -13 -13 -12 -14 -13 -14 -15 -14 -14 -14 -14 -14 -14 -13 -14 -14 -14 -14 -14 -14 -14 -14 -14 -14 -14 -14 -14 -14 -14 -14 -14 -14 -14 -14 -15
-14 -14 -14 -14 -14 -14 -14 -14 -14 -14 -14 -14 -14 -12 -13 -14 -14 -14 -14 -14 -14 -14 -14 -14 -14 -14 -14 -14 -14 -14 -14 -14 -14 -14 -14 -14 -14 -14 -14 -14 -14 -14 -14 -14
-15 -15 -14 -15 -15 -15 -15 -14 -14 -14 -14 -14 -13 -12 -13 -14 -14 -14 -14 -14 -14 -14 -14 -14 -14 -14 -14 -14 -14 -14 -14 -14 -14 -14 -15 -15 -14 -15 -15 -15 -15 -15 -15 -15
-17 -17 -15 -15 -15 -14 -14 -15 -15 -14 -14 -13 -13 -13 -13 -14 -14 -14 -14 -14 -15 -14 -14 -14 -14 -14 -14 -14 -14 -14 -14 -15 -15 -15 -15 -15 -15 -15 -15 -15 -15 -15 -16 -15
-17 -17 -16 -15 -15 -15 -15 -15 -14 -14 -13 -13 -13 -13 -14 -15 -14 -14 -15 -15 -15 -15 -14 -14 -15 -14 -14 -15 -15 -15 -15 -15 -15 -15 -15 -15 -15 -15 -16 -16 -16 -15 -16 -16
-18 -17 -17 -16 -15 -15 -15 -16 -16 -16 -15 -15 -14 -13 -13 -15 -14 -14 -15 -15 -15 -15 -15 -15 -15 -15 -15 -15 -15 -15 -15 -15 -15 -15 -15 -15 -15 -15 -16 -16 -16 -16 -15 -16
-17 -17 -17 -16 -16 -16 -15 -15 -15 -15 -15 -14 -14 -13 -14 -15 -16 -15 -15 -15 -15 -15 -16 -15 -15 -15 -15 -15 -15 -15 -15 -15 -15 -15 -15 -15 -15 -15 -16 -16 -15 -15 -15 -15
-17 -17 -17 -16 -16 -16 -16 -16 -16 -15 -15 -14 -14 -14 -14 -15 -15 -16 -15 -15 -15 -15 -16 -16 -16 -16 -16 -16 -15 -15 -15 -15 -15 -16 -15 -16 -15 -15 -15 -15 -15 -15 -16 -16
-18 -17 -17 -17 -16 -16 -16 -16 -16 -15 -14 -14 -15 -15 -15 -15 -15 -16 -17 -15 -15 -15 -15 -15 -16 -16 -16 -16 -16 -16 -16 -16 -16 -16 -16 -16 -16 -16 -16 -15 -15 -15 -15 -16
-19 -19 -18 -17 -17 -17 -17 -16 -16 -15 -16 -16 -16 -15 -15 -15 -15 -15 -16 -16 -16 -15 -15 -15 -15 -16 -16 -16 -16 -16 -16 -16 -16 -16 -16 -16 -16 -16 -16 -16 -15 -15 -15 -15
-19 -18 -18 -18 -17 -17 -17 -17 -16 -16 -17 -16 -16 -16 -16 -16 -15 -15 -15 -16 -16 -16 -16 -15 -15 -15 -16 -16 -16 -17 -17 -17 -17 -17 -17 -16 -16 -16 -16 -16 -15 -15 -15 -15
-19 -18 -18 -18 -18 -17 -17 -16 -17 -17 -17 -17 -17 -16 -16 -15 -15 -15 -15 -16 -16 -16 -16 -16 -16 -16 -15 -16 -16 -16 -17 -17 -17 -17 -17 -17 -16 -16 -16 -16 -15 -15 -15 -15
-20 -19 -18 -18 -19 -18 -18 -17 -17 -17 -18 -17 -17 -17 -17 -16 -15 -16 -16 -16 -16 -16 -16 -16 -16 -17 -17 -16 -17 -16 -16 -17 -17 -17 -17 -17 -17 -16 -16 -16 -15 -16 -15 -15
-20 -20 -19 -19 -19 -18 -18 -19 -18 -18 -19 -18 -18 -17 -16 -16 -16 -16 -16 -16 -16 -15 -16 -16 -16 -16 -16 -17 -17 -17 -17 -17 -17 -17 -17 -18 -17 -17 -16 -16 -16 -16 -16 -16
-21 -20 -20 -20 -20 -19 -19 -19 -19 -19 -18 -18 -17 -18 -17 -17 -16 -17 -17 -16 -16 -16 -16 -16 -16 -16 -16 -16 -17 -17 -17 -17 -17 -17 -17 -18 -17 -17 -17 -17 -16 -16 -16 -16
-21 -21 -20 -20 -19 -19 -20 -19 -20 -19 -19 -18 -18 -18 -17 -18 -18 -17 -17 -17 -17 -16 -16 -16 -16 -16 -16 -16 -16 -16 -16 -17 -17 -17 -17 -17 -17 -17 -17 -17 -17 -17 -17 -17
-21 -21 -21 -20 -20 -20 -20 -20 -20 -20 -20 -19 -19 -19 -18 -17 -18 -18 -18 -17 -17 -17 -17 -16 -16 -16 -16 -16 -16 -17 -16 -16 -16 -17 -16 -16 -17 -17 -17 -17 -17 -18 -18 -18
-21 -21 -21 -21 -20 -20 -20 -20 -20 -20 -20 -20 -19 -19 -19 -18 -18 -18 -18 -17 -17 -17 -18 -17 -16 -17 -17 -17 -16 -16 -16 -16 -17 -17 -17 -17 -17 -17 -17 -18 -18 -18 -18 -18
-21 -21 -20 -20 -20 -21 -20 -20 -20 -20 -20 -20 -20 -20 -19 -19 -18 -18 -18 -18 -18 -18 -18 -18 -18 -18 -17 -17 -17 -18 -17 -17 -17 -16 -17 -17 -17 -17 -18 -18 -18 -18 -18 -18
-21 -21 -21 -20 -21 -21 -21 -20 -20 -20 -20 -20 -20 -20 -20 -20 -19 -19 -19 -18 -18 -18 -18 -17 -18 -18 -18 -17 -17 -17 -17 -17 -18 -17 -16 -17 -17 -17 -18 -18 -18 -18 -18 -18

GFSCGP_500_temp_066.txt.gz
Temp
-14 -14 -13 -13 -13 -14 -14 -14 -13 -13 -13 -12 -12 -13 -14 -14 -15 -15 -15 -15 -14 -14 -13 -13 -14 -14 -13 -12 -12 -12 -13 -13 -13 -13 -13 -13 -13 -13 -13 -13 -13 -13 -13 -13
-14 -13 -14 -13 -14 -14 -14 -13 -13 -13 -13 -13 -12 -12 -14 -14 -15 -15 -16 -15 -15 -14 -13 -13 -14 -14 -13 -13 -13 -13 -13 -13 -13 -13 -14 -13 -13 -13 -13 -13 -13 -14 -13 -13
-13 -14 -14 -13 -14 -14 -14 -14 -14 -14 -13 -13 -12 -12 -13 -14 -14 -15 -15 -15 -15 -14 -13 -13 -13 -14 -14 -14 -14 -13 -13 -13 -13 -13 -13 -13 -13 -13 -13 -13 -13 -14 -14 -13
-14 -14 -14 -13 -14 -14 -14 -14 -14 -14 -14 -13 -12 -11 -13 -14 -14 -14 -14 -14 -14 -14 -14 -13 -13 -13 -13 -14 -14 -14 -14 -13 -13 -13 -13 -13 -13 -13 -13 -14 -14 -14 -14 -14
-14 -14 -14 -13 -14 -14 -14 -15 -14 -14 -13 -13 -13 -12 -13 -14 -13 -14 -14 -13 -14 -14 -14 -13 -14 -14 -14 -13 -14 -14 -14 -13 -13 -13 -13 -13 -13 -13 -13 -13 -13 -14 -14 -14
-13 -14 -14 -14 -14 -14 -15 -15 -14 -14 -14 -13 -13 -13 -13 -13 -13 -13 -14 -13 -14 -14 -14 -14 -14 -14 -14 -14 -14 -14 -14 -14 -13 -13 -13 -13 -14 -14 -14 -13 -13 -13 -14 -14
-14 -14 -14 -14 -14 -14 -15 -15 -14 -14 -13 -13 -13 -14 -13 -14 -14 -14 -14 -14 -14 -14 -14 -14 -14 -14 -14 -14 -14 -14 -14 -14 -14 -13 -13 -14 -14 -14 -14 -14 -13 -13 -14 -14
-15 -14 -14 -14 -14 -14 -15 -14 -14 -14 -14 -14 -13 -13 -13 -14 -14 -14 -13 -14 -14 -14 -13 -13 -14 -14 -14 -14 -14 -14 -14 -14 -14 -14 -14 -14 -14 -14 -14 -14 -14 -14 -13 -14
-15 -14 -14 -14 -15 -15 -14 -14 -15 -15 -14 -14 -14 -13 -13 -14 -14 -14 -14 -14 -14 -14 -14 -14 -14 -14 -14 -14 -14 -14 -14 -14 -14 -14 -14 -14 -14 -14 -14 -14 -14 -14 -14 -14
-15 -15 -15 -15 -14 -14 -14 -15 -15 -14 -15 -14 -15 -13 -14 -15 -15 -14 -14 -14 -14 -14 -14 -14 -14 -14 -14 -14 -14 -14 -14 -14 -14 -14 -14 -14 -14 -14 -14 -14 -14 -14 -14 -15
-17 -17 -16 -15 -14 -14 -14 -14 -15 -14 -15 -14 -16 -14 -14 -15 -15 -14 -14 -15 -14 -15 -14 -14 -14 -14 -14 -14 -15 -15 -15 -15 -14 -14 -14 -14 -14 -15 -15 -15 -15 -15 -15 -15
-18 -17 -17 -17 -15 -15 -15 -15 -15 -15 -15 -15 -15 -16 -14 -15 -15 -15 -15 -15 -15 -15 -15 -15 -15 -15 -15 -15 -15 -15 -15 -15 -15 -15 -14 -14 -14 -15 -15 -15 -15 -15 -15 -15
-18 -17 -18 -17 -16 -15 -15 -15 -15 -15 -15 -14 -14 -15 -14 -15 -15 -15 -15 -15 -15 -15 -15 -15 -15 -15 -15 -15 -15 -15 -15 -15 -15 -15 -15 -15 -15 -14 -15 -15 -15 -15 -15 -15
-18 -18 -18 -18 -17 -16 -16 -16 -16 -16 -16 -15 -15 -15 -15 -15 -15 -15 -15 -15 -16 -16 -15 -16 -16 -15 -15 -15 -16 -15 -15 -15 -15 -15 -15 -15 -15 -15 -15 -15 -15 -15 -15 -15
-19 -19 -18 -18 -17 -17 -16 -16 -16 -16 -16 -15 -15 -15 -15 -15 -15 -15 -15 -15 -15 -16 -16 -15 -15 -15 -15 -15 -15 -15 -15 -15 -16 -16 -16 -16 -16 -15 -15 -15 -15 -15 -15 -15
-18 -19 -19 -18 -17 -17 -17 -16 -16 -16 -16 -16 -16 -16 -16 -16 -15 -15 -15 -16 -16 -16 -16 -16 -16 -16 -16 -15 -15 -15 -15 -16 -16 -16 -16 -16 -16 -16 -16 -15 -16 -16 -16 -16
-19 -19 -18 -18 -18 -18 -17 -17 -17 -17 -17 -17 -17 -16 -16 -16 -16 -16 -15 -15 -16 -15 -15 -16 -16 -16 -16 -16 -16 -16 -16 -16 -16 -16 -16 -16 -17 -17 -17 -17 -16 -16 -16 -16
-20 -19 -18 -18 -18 -18 -18 -18 -18 -18 -18 -17 -17 -17 -17 -16 -16 -15 -15 -15 -15 -15 -16 -16 -16 -16 -16 -16 -16 -16 -16 -16 -16 -17 -16 -17 -17 -17 -17 -17 -17 -16 -16 -16
-20 -19 -19 -19 -18 -18 -18 -18 -18 -18 -18 -18 -18 -18 -18 -17 -17 -16 -16 -15 -15 -15 -15 -16 -16 -16 -16 -16 -16 -16 -17 -16 -17 -17 -17 -17 -17 -17 -17 -17 -17 -17 -17 -16
-21 -20 -20 -19 -18 -18 -18 -18 -18 -19 -18 -18 -18 -18 -18 -18 -18 -17 -16 -16 -16 -15 -15 -15 -15 -16 -16 -16 -16 -16 -17 -17 -17 -17 -17 -17 -17 -17 -17 -17 -17 -17 -17 -17
-21 -21 -20 -20 -19 -19 -19 -19 -19 -20 -18 -18 -18 -18 -18 -18 -18 -18 -17 -17 -17 -16 -15 -15 -15 -16 -16 -15 -15 -16 -16 -16 -17 -17 -17 -17 -17 -17 -17 -17 -17 -17 -17 -17
-21 -20 -20 -20 -20 -20 -19 -19 -19 -19 -19 -19 -18 -18 -18 -18 -17 -17 -17 -18 -18 -17 -16 -16 -16 -16 -16 -16 -16 -16 -16 -16 -16 -17 -16 -16 -17 -17 -17 -17 -17 -16 -17 -17
-22 -21 -21 -21 -21 -20 -20 -19 -19 -19 -19 -19 -19 -19 -18 -18 -18 -18 -18 -17 -17 -18 -18 -17 -16 -16 -16 -16 -16 -16 -16 -16 -16 -16 -16 -16 -16 -17 -17 -17 -17 -16 -17 -17
-22 -22 -21 -21 -21 -20 -20 -20 -20 -20 -20 -20 -20 -20 -19 -19 -19 -19 -19 -18 -18 -17 -18 -18 -17 -17 -17 -16 -16 -16 -16 -16 -16 -16 -17 -17 -16 -16 -16 -17 -17 -17 -16 -17
-21 -21 -21 -21 -21 -21 -20 -20 -20 -20 -20 -20 -20 -20 -20 -20 -19 -19 -19 -19 -18 -18 -17 -18 -18 -17 -17 -17 -17 -17 -17 -17 -17 -17 -17 -17 -17 -17 -17 -17 -17 -17 -17 -17
-22 -21 -21 -21 -21 -21 -21 -20 -20 -20 -20 -20 -20 -20 -20 -20 -20 -20 -20 -20 -19 -19 -18 -18 -18 -18 -18 -17 -17 -18 -17 -17 -18 -17 -17 -17 -17 -17 -17 -17 -17 -17 -17 -17

GFSCGP_500_temp_069.txt.gz
Temp
-15 -15 -14 -14 -14 -14 -14 -16 -15 -15 -15 -12 -13 -13 -14 -15 -14 -13 -14 -14 -13 -13 -13 -13 -13 -13 -12 -12 -12 -11 -12 -12 -12 -12 -12 -12 -12 -12 -12 -12 -12 -12 -13 -12
-14 -14 -14 -15 -14 -15 -15 -15 -14 -15 -15 -13 -13 -12 -13 -14 -15 -14 -14 -14 -13 -13 -13 -13 -13 -13 -13 -12 -12 -12 -12 -13 -13 -13 -13 -13 -13 -13 -13 -13 -13 -13 -12 -13
-15 -14 -15 -14 -14 -14 -14 -14 -14 -15 -16 -13 -13 -12 -13 -13 -13 -14 -13 -14 -13 -13 -13 -13 -13 -13 -13 -13 -12 -13 -13 -13 -13 -13 -13 -12 -13 -13 -13 -13 -13 -13 -13 -13
-15 -14 -15 -14 -14 -14 -14 -14 -14 -14 -14 -13 -13 -13 -14 -15 -15 -14 -13 -13 -13 -13 -13 -13 -13 -12 -13 -13 -13 -13 -13 -13 -13 -13 -13 -13 -13 -13 -13 -12 -13 -13 -13 -14
-15 -14 -14 -14 -14 -14 -14 -14 -14 -14 -14 -13 -13 -13 -14 -14 -15 -15 -13 -12 -13 -13 -13 -14 -13 -13 -13 -13 -13 -13 -13 -14 -14 -13 -13 -13 -13 -13 -13 -13 -13 -13 -13 -13
-15 -14 -13 -14 -14 -14 -14 -14 -14 -14 -14 -13 -13 -13 -14 -14 -15 -14 -13 -12 -13 -14 -13 -14 -13 -13 -13 -13 -13 -13 -13 -13 -13 -13 -13 -12 -12 -13 -13 -13 -13 -13 -13 -13
-16 -15 -14 -14 -14 -14 -14 -14 -15 -14 -14 -13 -14 -13 -13 -15 -14 -14 -12 -13 -13 -14 -14 -14 -13 -13 -13 -13 -14 -14 -13 -13 -13 -13 -13 -13 -14 -13 -14 -13 -14 -13 -14 -14
-16 -16 -14 -14 -14 -14 -14 -14 -14 -14 -15 -13 -15 -14 -14 -14 -15 -13 -13 -13 -13 -13 -14 -14 -13 -13 -13 -13 -14 -14 -14 -13 -13 -13 -13 -13 -13 -13 -13 -14 -14 -14 -14 -14
-16 -16 -15 -14 -14 -14 -14 -14 -14 -15 -15 -14 -14 -14 -14 -14 -14 -14 -14 -13 -13 -13 -14 -14 -13 -13 -13 -13 -13 -14 -14 -14 -14 -14 -13 -13 -13 -13 -13 -13 -13 -13 -13 -14
-17 -16 -16 -15 -15 -14 -14 -15 -14 -15 -15 -15 -14 -15 -14 -14 -14 -15 -14 -14 -13 -13 -14 -14 -14 -14 -14 -14 -14 -14 -14 -14 -14 -14 -14 -14 -14 -14 -14 -14 -14 -14 -14 -14
-18 -17 -17 -16 -14 -14 -14 -14 -14 -16 -15 -16 -15 -15 -14 -14 -14 -15 -15 -13 -14 -14 -14 -14 -14 -14 -14 -14 -14 -14 -14 -14 -14 -14 -14 -14 -14 -14 -14 -14 -14 -14 -14 -14
-18 -17 -18 -17 -16 -15 -15 -15 -15 -15 -16 -15 -15 -14 -14 -15 -15 -14 -14 -15 -15 -14 -14 -14 -14 -14 -14 -14 -14 -15 -14 -14 -14 -14 -14 -14 -14 -14 -14 -14 -14 -14 -14 -14
-18 -17 -17 -18 -17 -16 -15 -15 -16 -16 -15 -15 -16 -15 -15 -14 -14 -15 -15 -16 -15 -15 -15 -15 -14 -15 -15 -14 -14 -15 -15 -15 -15 -14 -14 -14 -14 -14 -14 -14 -14 -14 -14 -14
-19 -18 -18 -18 -18 -17 -16 -16 -17 -17 -16 -15 -16 -16 -15 -15 -15 -15 -15 -15 -16 -16 -15 -15 -15 -14 -15 -15 -15 -15 -15 -15 -15 -15 -15 -15 -15 -15 -15 -15 -14 -14 -14 -14
-19 -19 -18 -18 -18 -18 -17 -17 -17 -17 -16 -16 -16 -16 -16 -15 -15 -15 -14 -14 -15 -16 -16 -15 -16 -15 -15 -15 -15 -15 -15 -15 -15 -15 -15 -16 -16 -16 -15 -15 -15 -15 -15 -15
-19 -19 -18 -18 -18 -18 -17 -17 -17 -16 -16 -16 -16 -16 -16 -16 -15 -15 -15 -15 -15 -16 -16 -15 -15 -15 -15 -16 -16 -15 -15 -16 -16 -15 -15 -16 -16 -16 -16 -16 -15 -16 -16 -15
-19 -19 -19 -19 -19 -18 -17 -17 -17 -16 -16 -16 -17 -17 -16 -16 -16 -15 -15 -15 -15 -15 -15 -15 -16 -16 -16 -16 -16 -16 -16 -16 -16 -16 -16 -16 -16 -16 -16 -16 -16 -16 -16 -16
-19 -19 -18 -19 -19 -19 -18 -18 -17 -17 -17 -17 -17 -17 -17 -17 -17 -16 -16 -16 -16 -15 -15 -15 -16 -16 -16 -16 -16 -16 -16 -16 -16 -16 -16 -16 -16 -16 -16 -17 -17 -17 -17 -17
-19 -19 -18 -19 -18 -18 -18 -19 -18 -18 -18 -18 -18 -17 -17 -17 -17 -16 -16 -16 -16 -16 -16 -15 -15 -15 -16 -16 -16 -16 -16 -16 -16 -16 -17 -15 -15 -16 -16 -16 -17 -17 -17 -17
-20 -19 -19 -19 -18 -18 -18 -18 -17 -17 -18 -18 -18 -18 -18 -17 -17 -17 -16 -17 -16 -16 -16 -16 -16 -15 -16 -16 -16 -17 -16 -16 -16 -16 -16 -16 -16 -16 -17 -17 -17 -17 -16 -16
-21 -21 -20 -20 -20 -19 -18 -18 -18 -18 -18 -18 -18 -18 -18 -18 -18 -18 -18 -17 -17 -16 -16 -16 -16 -16 -16 -16 -16 -16 -16 -16 -16 -16 -17 -17 -17 -17 -17 -17 -17 -17 -17 -17
-21 -21 -20 -20 -20 -20 -20 -19 -19 -19 -18 -18 -18 -18 -18 -18 -18 -18 -18 -18 -17 -17 -17 -17 -17 -16 -16 -16 -16 -15 -16 -16 -15 -16 -16 -17 -17 -17 -17 -17 -16 -16 -17 -17
-21 -21 -20 -20 -20 -20 -20 -19 -20 -20 -19 -18 -18 -18 -18 -18 -18 -18 -18 -17 -18 -17 -16 -16 -16 -17 -17 -16 -16 -16 -16 -16 -16 -16 -16 -16 -16 -17 -16 -16 -16 -16 -17 -17
-22 -22 -21 -21 -21 -21 -21 -20 -20 -19 -19 -18 -18 -18 -19 -19 -19 -19 -19 -19 -18 -18 -18 -17 -17 -17 -17 -18 -17 -17 -16 -16 -16 -17 -17 -17 -16 -16 -16 -16 -16 -16 -16 -16
-22 -22 -22 -22 -22 -21 -21 -21 -20 -20 -20 -20 -20 -20 -20 -20 -19 -19 -19 -19 -19 -19 -19 -18 -18 -18 -18 -18 -18 -18 -17 -17 -17 -16 -17 -17 -17 -17 -17 -17 -17 -16 -16 -16
-23 -22 -22 -22 -22 -22 -21 -21 -21 -20 -20 -20 -20 -20 -20 -20 -20 -20 -20 -20 -20 -19 -19 -19 -19 -19 -18 -18 -18 -18 -18 -18 -17 -17 -17 -17 -17 -17 -17 -17 -17 -17 -17 -17

GFSCGP_500_temp_072.txt.gz
Temp
-15 -14 -14 -15 -15 -15 -15 -15 -15 -15 -14 -14 -14 -13 -13 -14 -13 -13 -12 -13 -13 -12 -13 -13 -12 -13 -12 -12 -11 -11 -11 -11 -11 -11 -11 -11 -11 -11 -11 -11 -12 -12 -12 -12
-15 -14 -15 -16 -16 -16 -15 -15 -15 -15 -15 -15 -15 -13 -13 -13 -14 -14 -14 -12 -12 -12 -13 -13 -12 -13 -13 -12 -12 -12 -11 -12 -12 -11 -11 -11 -12 -12 -12 -12 -12 -12 -12 -12
-15 -15 -16 -15 -16 -16 -15 -15 -15 -15 -15 -15 -14 -13 -13 -13 -13 -14 -15 -13 -14 -12 -13 -13 -12 -13 -13 -13 -12 -12 -12 -12 -12 -13 -12 -12 -12 -13 -13 -13 -12 -12 -12 -12
-15 -16 -16 -15 -15 -16 -15 -15 -16 -15 -15 -15 -15 -14 -15 -14 -14 -13 -13 -12 -13 -13 -13 -13 -12 -13 -13 -13 -13 -13 -13 -12 -12 -13 -13 -12 -12 -12 -12 -12 -12 -12 -12 -12
-16 -16 -15 -15 -15 -16 -14 -15 -15 -16 -15 -15 -14 -14 -13 -14 -14 -14 -14 -13 -11 -13 -13 -13 -12 -12 -13 -13 -13 -13 -13 -13 -13 -13 -13 -12 -12 -12 -12 -12 -13 -13 -12 -12
-17 -16 -15 -15 -16 -15 -15 -15 -16 -16 -16 -14 -13 -13 -13 -14 -14 -14 -15 -14 -12 -13 -13 -13 -13 -12 -13 -13 -13 -13 -13 -13 -13 -13 -13 -13 -12 -12 -12 -13 -13 -13 -13 -13
-17 -16 -15 -16 -16 -15 -14 -15 -16 -15 -14 -13 -13 -14 -13 -14 -14 -13 -13 -13 -13 -13 -13 -13 -13 -13 -13 -13 -13 -13 -13 -13 -13 -13 -13 -13 -12 -12 -13 -13 -13 -13 -13 -13
-17 -16 -16 -16 -16 -15 -15 -15 -15 -16 -15 -13 -13 -13 -13 -14 -14 -14 -13 -13 -13 -12 -13 -13 -13 -13 -13 -13 -13 -13 -13 -13 -13 -13 -13 -13 -13 -13 -13 -13 -13 -13 -13 -14
-18 -18 -17 -17 -17 -16 -15 -14 -14 -14 -14 -14 -13 -14 -14 -14 -13 -13 -13 -13 -13 -12 -13 -13 -13 -13 -13 -13 -13 -13 -13 -14 -13 -13 -13 -13 -13 -13 -13 -13 -13 -13 -13 -13
-18 -18 -17 -17 -17 -16 -15 -15 -15 -15 -15 -14 -14 -14 -14 -14 -13 -14 -13 -13 -13 -12 -13 -13 -13 -13 -13 -13 -13 -14 -13 -14 -13 -13 -13 -13 -13 -13 -13 -13 -13 -13 -13 -13
-18 -18 -18 -18 -17 -17 -16 -15 -15 -15 -15 -15 -14 -14 -13 -13 -15 -14 -14 -13 -12 -13 -13 -13 -13 -14 -13 -14 -14 -14 -14 -14 -14 -13 -13 -14 -14 -14 -14 -13 -13 -13 -13 -13
-18 -18 -18 -18 -17 -16 -16 -15 -15 -15 -15 -15 -14 -14 -14 -14 -15 -15 -14 -14 -13 -13 -13 -13 -14 -14 -14 -14 -14 -14 -14 -14 -14 -14 -14 -14 -14 -14 -14 -14 -14 -14 -14 -14
-19 -18 -18 -18 -17 -17 -16 -16 -15 -15 -16 -15 -15 -14 -14 -14 -15 -14 -14 -15 -15 -14 -14 -14 -14 -14 -14 -14 -14 -14 -14 -14 -14 -14 -14 -14 -14 -15 -15 -14 -14 -14 -14 -14
-18 -19 -19 -18 -17 -17 -17 -16 -16 -15 -15 -16 -15 -15 -15 -14 -14 -15 -15 -15 -15 -15 -15 -14 -14 -14 -14 -15 -14 -14 -14 -14 -14 -15 -15 -15 -15 -15 -15 -15 -15 -15 -15 -15
-19 -19 -19 -18 -17 -17 -16 -17 -16 -16 -16 -16 -15 -15 -14 -15 -15 -15 -15 -14 -15 -15 -15 -16 -16 -15 -15 -15 -15 -15 -15 -15 -15 -15 -15 -15 -15 -15 -15 -15 -15 -15 -15 -15
-20 -19 -19 -18 -18 -17 -17 -17 -17 -17 -16 -17 -16 -15 -15 -15 -15 -14 -13 -14 -15 -14 -15 -15 -14 -14 -14 -15 -15 -15 -15 -15 -15 -15 -15 -15 -15 -16 -15 -15 -16 -16 -15 -15
-20 -20 -19 -19 -18 -18 -18 -18 -17 -17 -17 -17 -17 -16 -16 -16 -15 -15 -15 -15 -15 -15 -15 -15 -16 -15 -15 -15 -15 -15 -15 -15 -15 -16 -16 -16 -16 -15 -16 -16 -16 -16 -16 -16
-20 -20 -20 -19 -18 -18 -18 -17 -17 -17 -16 -16 -16 -16 -16 -16 -16 -16 -16 -16 -15 -15 -15 -15 -15 -15 -16 -16 -16 -16 -16 -15 -16 -16 -16 -16 -16 -16 -16 -16 -16 -16 -16 -16
-20 -20 -20 -19 -19 -18 -18 -17 -17 -17 -17 -17 -17 -17 -16 -17 -17 -16 -16 -17 -16 -16 -16 -16 -15 -15 -15 -16 -16 -16 -15 -15 -15 -15 -16 -16 -16 -16 -16 -16 -16 -16 -16 -16
-22 -20 -19 -20 -19 -18 -18 -18 -18 -17 -17 -16 -17 -17 -17 -17 -16 -16 -17 -17 -17 -17 -17 -17 -16 -16 -16 -16 -16 -16 -16 -16 -16 -16 -16 -16 -16 -16 -16 -16 -16 -17 -16 -16
-22 -21 -20 -20 -20 -19 -18 -18 -17 -17 -17 -17 -17 -17 -18 -18 -17 -18 -17 -17 -17 -17 -16 -17 -17 -17 -16 -16 -17 -16 -16 -16 -16 -16 -16 -16 -15 -15 -16 -16 -16 -16 -16 -16
-22 -22 -20 -20 -20 -19 -19 -19 -18 -18 -18 -18 -18 -18 -18 -17 -17 -17 -18 -18 -18 -17 -17 -18 -17 -17 -17 -17 -17 -17 -16 -17 -17 -16 -16 -16 -16 -15 -15 -15 -16 -16 -16 -17
-22 -22 -22 -21 -21 -20 -20 -20 -19 -19 -19 -18 -19 -18 -18 -18 -18 -18 -18 -18 -18 -18 -17 -17 -16 -16 -16 -16 -16 -16 -16 -16 -16 -16 -16 -16 -16 -16 -16 -16 -15 -16 -16 -16
-22 -22 -22 -21 -20 -21 -21 -21 -20 -20 -19 -19 -19 -19 -18 -18 -18 -18 -18 -18 -18 -18 -18 -18 -18 -18 -17 -17 -17 -17 -16 -16 -16 -17 -17 -16 -16 -16 -16 -16 -16 -16 -16 -16
-22 -22 -22 -21 -20 -21 -20 -21 -20 -20 -19 -19 -19 -19 -19 -19 -19 -19 -20 -20 -20 -19 -19 -19 -19 -19 -19 -18 -18 -18 -18 -18 -18 -17 -17 -17 -17 -17 -17 -17 -17 -17 -16 -16
-22 -22 -22 -22 -21 -20 -20 -21 -21 -21 -21 -20 -20 -20 -20 -20 -20 -20 -20 -20 -20 -20 -20 -20 -20 -19 -19 -19 -19 -18 -18 -18 -18 -18 -18 -18 -18 -18 -18 -17 -17 -17 -17 -17

GFSCGP_500_temp_078.txt.gz
Temp
-14 -14 -14 -15 -15 -15 -14 -14 -14 -13 -15 -16 -15 -14 -14 -14 -14 -14 -13 -14 -13 -13 -13 -14 -14 -14 -13 -13 -13 -13 -13 -12 -12 -12 -11 -11 -12 -12 -12 -12 -12 -12 -12 -12
-14 -14 -15 -15 -15 -15 -15 -15 -14 -14 -15 -16 -16 -15 -14 -14 -14 -13 -13 -13 -13 -13 -13 -15 -15 -14 -13 -13 -13 -13 -13 -12 -12 -12 -11 -12 -12 -12 -12 -12 -12 -12 -12 -12
-15 -15 -15 -15 -15 -15 -15 -15 -14 -14 -16 -15 -15 -14 -15 -14 -13 -13 -14 -14 -14 -13 -13 -15 -15 -14 -13 -13 -13 -13 -13 -13 -13 -12 -12 -12 -12 -12 -12 -12 -12 -12 -12 -12
-15 -16 -15 -16 -16 -15 -15 -15 -15 -15 -16 -15 -16 -13 -14 -14 -13 -13 -14 -14 -13 -13 -13 -15 -15 -14 -13 -12 -12 -13 -13 -13 -13 -13 -13 -12 -12 -12 -12 -12 -12 -12 -12 -12
-16 -16 -16 -16 -16 -15 -15 -15 -15 -16 -16 -15 -16 -14 -14 -14 -13 -12 -13 -14 -13 -13 -13 -15 -15 -14 -13 -13 -13 -13 -14 -13 -13 -13 -13 -12 -12 -12 -13 -12 -12 -12 -12 -12
-17 -17 -16 -16 -16 -16 -15 -15 -16 -16 -15 -14 -14 -14 -13 -14 -13 -13 -13 -13 -12 -13 -14 -15 -15 -14 -13 -13 -13 -13 -13 -13 -13 -13 -13 -13 -13 -12 -12 -13 -13 -13 -13 -13
-17 -17 -17 -16 -16 -16 -15 -16 -16 -16 -16 -13 -15 -16 -12 -14 -14 -14 -13 -13 -13 -12 -14 -15 -15 -14 -14 -14 -13 -13 -14 -14 -13 -13 -13 -13 -13 -13 -12 -13 -13 -13 -13 -13
-18 -17 -17 -16 -16 -16 -15 -16 -17 -16 -15 -14 -15 -15 -13 -14 -15 -14 -13 -13 -13 -13 -14 -14 -15 -14 -14 -14 -13 -14 -14 -14 -14 -13 -13 -13 -13 -13 -13 -13 -14 -14 -14 -13
-18 -18 -17 -16 -16 -16 -16 -16 -16 -16 -16 -15 -15 -15 -15 -15 -15 -14 -13 -13 -13 -14 -14 -15 -14 -14 -14 -14 -14 -14 -14 -14 -14 -14 -13 -13 -13 -13 -13 -14 -14 -14 -14 -14
-18 -18 -18 -17 -17 -17 -17 -18 -17 -17 -17 -16 -15 -15 -14 -15 -15 -14 -13 -13 -13 -14 -14 -15 -15 -14 -14 -14 -14 -14 -14 -14 -14 -14 -14 -14 -13 -13 -13 -13 -13 -14 -14 -14
-19 -18 -18 -18 -17 -17 -18 -18 -17 -17 -17 -17 -16 -15 -15 -15 -14 -14 -15 -14 -14 -14 -14 -14 -14 -14 -14 -14 -14 -14 -14 -14 -14 -14 -14 -14 -14 -14 -13 -14 -13 -14 -14 -14
-19 -18 -18 -19 -18 -18 -18 -18 -18 -18 -17 -17 -16 -16 -15 -14 -15 -14 -14 -15 -14 -14 -14 -14 -14 -14 -14 -14 -14 -14 -14 -14 -14 -14 -14 -14 -14 -14 -14 -14 -14 -14 -14 -14
-19 -19 -18 -19 -19 -19 -18 -18 -18 -18 -18 -16 -16 -15 -15 -14 -15 -14 -14 -14 -14 -14 -13 -14 -14 -14 -14 -14 -14 -14 -14 -14 -14 -14 -15 -15 -15 -15 -14 -14 -15 -15 -15 -15
-20 -19 -18 -18 -19 -19 -18 -18 -18 -18 -18 -16 -16 -15 -14 -14 -14 -14 -14 -14 -14 -14 -13 -13 -13 -13 -13 -14 -14 -14 -14 -14 -14 -14 -14 -15 -15 -15 -15 -15 -15 -15 -15 -15
-19 -19 -18 -18 -19 -19 -18 -18 -18 -18 -18 -16 -16 -15 -14 -14 -14 -14 -14 -15 -13 -14 -14 -13 -13 -14 -14 -14 -14 -13 -13 -13 -13 -14 -14 -14 -15 -15 -15 -15 -15 -15 -16 -16
-20 -19 -19 -19 -19 -19 -18 -18 -18 -17 -17 -16 -16 -15 -15 -15 -15 -14 -15 -15 -13 -14 -14 -13 -13 -14 -14 -14 -14 -14 -14 -14 -15 -15 -15 -14 -14 -14 -14 -15 -15 -15 -16 -16
-21 -20 -19 -19 -19 -19 -18 -18 -18 -17 -16 -16 -15 -16 -15 -15 -15 -15 -15 -15 -15 -15 -14 -14 -15 -14 -14 -14 -14 -15 -15 -15 -15 -15 -15 -15 -15 -15 -15 -15 -15 -15 -15 -15
-21 -20 -19 -19 -20 -19 -18 -18 -17 -17 -16 -16 -16 -16 -16 -15 -15 -15 -14 -15 -15 -15 -14 -15 -15 -15 -15 -15 -15 -15 -15 -15 -15 -15 -15 -15 -15 -15 -15 -16 -15 -15 -15 -15
-22 -22 -21 -21 -20 -19 -19 -18 -18 -17 -16 -17 -16 -16 -16 -16 -15 -15 -15 -15 -15 -15 -15 -15 -15 -15 -16 -15 -15 -15 -15 -15 -15 -15 -15 -15 -16 -16 -15 -15 -15 -15 -15 -15
-23 -22 -21 -21 -20 -20 -19 -18 -18 -18 -17 -17 -16 -16 -16 -16 -16 -16 -15 -15 -15 -15 -15 -16 -16 -16 -16 -16 -16 -16 -16 -15 -15 -15 -16 -15 -15 -16 -16 -16 -16 -16 -16 -16
-24 -23 -22 -22 -21 -20 -19 -19 -18 -18 -17 -17 -17 -16 -16 -16 -16 -16 -16 -16 -16 -16 -16 -16 -16 -16 -16 -16 -16 -16 -16 -16 -16 -17 -16 -16 -15 -15 -15 -16 -16 -16 -16 -16
-23 -23 -23 -22 -21 -20 -19 -19 -18 -18 -18 -18 -17 -17 -17 -17 -16 -17 -16 -16 -16 -16 -16 -17 -17 -17 -17 -17 -17 -17 -17 -17 -17 -17 -17 -17 -16 -16 -16 -16 -16 -16 -16 -16
-23 -23 -24 -23 -22 -21 -20 -19 -19 -19 -18 -18 -18 -17 -18 -17 -17 -16 -16 -17 -17 -17 -17 -17 -17 -17 -17 -17 -17 -17 -18 -17 -17 -17 -17 -17 -17 -17 -17 -17 -16 -16 -16 -16
-22 -23 -23 -22 -22 -21 -20 -20 -20 -20 -19 -19 -18 -18 -18 -18 -18 -17 -17 -17 -17 -17 -17 -17 -18 -18 -18 -18 -17 -17 -17 -17 -17 -17 -17 -16 -16 -17 -17 -17 -17 -17 -17 -17
-22 -23 -23 -22 -21 -21 -21 -21 -20 -20 -20 -19 -19 -19 -19 -19 -18 -18 -18 -18 -18 -18 -18 -18 -18 -18 -18 -18 -18 -17 -17 -17 -17 -17 -17 -18 -18 -18 -18 -18 -18 -18 -18 -18
-22 -22 -22 -22 -22 -21 -21 -21 -20 -20 -20 -20 -20 -20 -19 -19 -18 -18 -18 -18 -18 -18 -18 -18 -18 -18 -18 -18 -18 -18 -18 -19 -19 -19 -19 -19 -19 -19 -19 -19 -19 -18 -18 -18

GFSCGP_500_temp_081.txt.gz
Temp
-15 -14 -13 -15 -14 -13 -13 -12 -12 -12 -13 -13 -14 -14 -13 -13 -15 -14 -15 -14 -14 -14 -14 -14 -15 -14 -13 -14 -14 -13 -13 -13 -13 -13 -13 -12 -12 -12 -12 -12 -12 -12 -12 -12
-15 -14 -15 -14 -14 -14 -14 -13 -12 -13 -14 -14 -14 -13 -13 -14 -14 -14 -15 -14 -14 -14 -14 -14 -15 -15 -14 -14 -14 -13 -13 -13 -13 -13 -13 -13 -12 -12 -12 -12 -12 -12 -12 -12
-15 -15 -16 -15 -15 -14 -14 -13 -13 -13 -13 -14 -15 -13 -13 -14 -14 -15 -15 -14 -14 -14 -14 -15 -15 -15 -14 -14 -13 -13 -13 -13 -13 -13 -13 -13 -12 -12 -12 -12 -12 -12 -12 -12
-16 -16 -15 -16 -15 -16 -14 -15 -14 -14 -14 -14 -15 -13 -13 -13 -14 -15 -14 -14 -14 -14 -13 -15 -15 -15 -14 -14 -13 -13 -13 -13 -13 -13 -13 -13 -12 -12 -12 -12 -12 -12 -12 -12
-16 -16 -16 -16 -16 -16 -15 -15 -15 -15 -14 -15 -14 -14 -12 -14 -14 -14 -15 -14 -14 -12 -13 -15 -16 -15 -14 -14 -13 -13 -13 -13 -13 -13 -13 -13 -12 -13 -12 -12 -12 -12 -12 -12
-17 -16 -17 -17 -16 -16 -16 -16 -16 -16 -15 -15 -15 -14 -12 -14 -14 -15 -15 -15 -14 -13 -14 -15 -16 -15 -14 -14 -14 -13 -13 -13 -13 -13 -13 -13 -13 -13 -12 -12 -12 -12 -12 -12
-17 -17 -17 -17 -17 -17 -16 -16 -16 -15 -15 -14 -14 -14 -12 -14 -14 -15 -15 -15 -15 -14 -14 -14 -15 -15 -15 -14 -14 -14 -14 -13 -14 -13 -13 -13 -13 -13 -13 -13 -12 -13 -12 -13
-18 -18 -18 -17 -17 -17 -17 -16 -16 -16 -15 -14 -15 -14 -13 -15 -15 -15 -15 -15 -15 -14 -15 -14 -15 -15 -15 -15 -14 -14 -14 -14 -14 -14 -13 -13 -13 -12 -12 -13 -13 -13 -13 -13
-18 -18 -18 -18 -18 -17 -17 -16 -16 -16 -15 -15 -15 -15 -16 -14 -15 -15 -15 -15 -14 -14 -14 -15 -15 -15 -15 -15 -15 -14 -14 -14 -14 -14 -14 -14 -13 -13 -12 -12 -13 -13 -13 -13
-19 -19 -18 -18 -18 -17 -17 -17 -16 -16 -16 -17 -16 -16 -15 -14 -15 -14 -14 -14 -14 -14 -14 -15 -15 -15 -14 -15 -14 -14 -14 -14 -14 -14 -14 -14 -14 -13 -13 -13 -13 -14 -14 -14
-19 -19 -19 -18 -18 -18 -17 -17 -16 -17 -17 -18 -17 -15 -15 -15 -14 -14 -14 -14 -15 -15 -15 -15 -15 -15 -15 -15 -14 -14 -14 -14 -14 -14 -14 -14 -14 -14 -14 -14 -14 -14 -14 -14
-20 -19 -19 -19 -19 -18 -17 -18 -18 -18 -18 -18 -17 -16 -16 -15 -14 -13 -13 -14 -15 -14 -15 -15 -15 -15 -15 -15 -14 -14 -14 -14 -15 -15 -15 -15 -14 -14 -14 -14 -14 -14 -14 -14
-21 -20 -19 -19 -19 -18 -18 -18 -19 -19 -18 -18 -17 -15 -15 -15 -15 -14 -15 -15 -15 -15 -14 -15 -15 -15 -14 -14 -14 -14 -14 -14 -14 -14 -15 -15 -15 -15 -15 -15 -15 -15 -15 -14
-21 -21 -20 -19 -19 -19 -18 -19 -19 -19 -18 -17 -17 -16 -15 -15 -15 -15 -15 -15 -15 -14 -14 -15 -15 -14 -13 -14 -14 -14 -14 -14 -14 -14 -14 -14 -14 -15 -15 -15 -15 -15 -15 -15
-22 -21 -20 -19 -19 -19 -19 -19 -19 -18 -18 -17 -16 -15 -15 -15 -15 -15 -15 -15 -14 -14 -14 -14 -15 -14 -15 -14 -14 -14 -14 -14 -14 -14 -14 -14 -14 -14 -14 -15 -15 -15 -15 -15
-22 -21 -20 -20 -19 -19 -18 -19 -19 -18 -18 -17 -16 -16 -16 -15 -15 -15 -15 -14 -14 -14 -14 -14 -15 -15 -14 -14 -14 -15 -15 -15 -15 -15 -15 -15 -15 -15 -15 -15 -15 -15 -16 -16
-23 -22 -21 -20 -20 -19 -18 -19 -19 -18 -18 -18 -16 -16 -16 -16 -15 -15 -15 -15 -14 -15 -14 -14 -15 -15 -14 -15 -15 -15 -15 -15 -15 -15 -15 -16 -15 -15 -15 -15 -16 -16 -16 -16
-23 -22 -21 -19 -20 -19 -19 -18 -19 -19 -18 -18 -17 -16 -16 -17 -16 -15 -15 -15 -15 -15 -15 -14 -14 -15 -14 -14 -15 -15 -15 -15 -15 -15 -15 -15 -15 -15 -15 -15 -15 -15 -15 -15
-22 -22 -21 -20 -19 -19 -19 -19 -18 -18 -18 -17 -17 -16 -17 -16 -16 -15 -15 -15 -15 -15 -14 -15 -14 -14 -15 -14 -15 -15 -15 -15 -15 -16 -16 -16 -15 -15 -16 -16 -16 -15 -15 -15
-22 -21 -21 -20 -19 -19 -20 -18 -19 -18 -17 -17 -16 -17 -17 -17 -16 -16 -15 -15 -15 -15 -15 -15 -15 -15 -15 -15 -15 -16 -16 -16 -16 -15 -16 -16 -16 -16 -16 -16 -16 -16 -16 -16
-22 -21 -20 -20 -19 -19 -20 -19 -19 -18 -18 -18 -17 -17 -16 -16 -16 -16 -16 -15 -15 -15 -15 -15 -15 -15 -16 -16 -16 -16 -16 -15 -15 -15 -15 -16 -16 -16 -16 -16 -16 -16 -16 -16
-23 -22 -22 -21 -20 -20 -20 -20 -19 -19 -19 -18 -17 -17 -18 -17 -16 -16 -16 -15 -15 -15 -15 -15 -15 -15 -16 -16 -16 -16 -16 -16 -17 -17 -16 -16 -16 -16 -16 -16 -17 -17 -17 -17
-23 -23 -23 -23 -21 -20 -20 -20 -20 -20 -19 -19 -18 -18 -17 -17 -17 -17 -16 -16 -16 -16 -16 -16 -16 -16 -16 -17 -17 -17 -17 -17 -17 -17 -17 -17 -17 -17 -17 -17 -17 -16 -16 -16
-23 -22 -23 -23 -22 -21 -20 -20 -21 -20 -20 -19 -19 -18 -18 -17 -17 -17 -17 -17 -16 -17 -17 -16 -16 -17 -17 -17 -17 -17 -17 -17 -17 -17 -17 -17 -17 -17 -17 -17 -17 -17 -17 -17
-23 -23 -23 -23 -23 -22 -21 -21 -21 -20 -20 -20 -19 -19 -19 -18 -18 -17 -17 -17 -17 -17 -17 -17 -17 -17 -17 -17 -17 -18 -17 -18 -18 -17 -17 -17 -17 -17 -17 -17 -17 -18 -18 -19
-23 -22 -23 -23 -23 -22 -21 -21 -21 -21 -20 -20 -20 -20 -19 -19 -19 -19 -19 -18 -18 -18 -18 -18 -18 -18 -18 -18 -18 -18 -18 -18 -18 -18 -18 -18 -17 -17 -18 -18 -19 -19 -19 -19

GFSCGP_500_temp_084.txt.gz
Temp
-16 -15 -14 -15 -15 -14 -13 -13 -12 -13 -13 -13 -12 -10 -10 -11 -11 -11 -14 -14 -15 -15 -15 -15 -15 -15 -15 -14 -14 -13 -14 -14 -14 -14 -13 -13 -13 -12 -14 -12 -12 -12 -12 -12
-17 -16 -16 -15 -15 -14 -14 -13 -13 -13 -14 -13 -12 -11 -11 -11 -11 -13 -14 -14 -14 -14 -14 -14 -15 -15 -15 -14 -14 -13 -14 -14 -14 -14 -13 -13 -13 -12 -13 -13 -12 -12 -12 -12
-18 -17 -16 -16 -15 -15 -15 -14 -14 -13 -14 -13 -13 -11 -12 -11 -11 -13 -13 -14 -14 -14 -14 -14 -15 -15 -15 -14 -14 -14 -14 -14 -14 -14 -13 -13 -12 -13 -12 -12 -12 -12 -12 -12
-18 -18 -17 -16 -16 -15 -15 -15 -14 -14 -13 -13 -14 -12 -11 -11 -13 -13 -14 -14 -14 -14 -15 -15 -15 -15 -15 -14 -13 -14 -14 -14 -13 -14 -13 -13 -13 -13 -12 -12 -12 -12 -12 -12
-17 -17 -17 -17 -16 -16 -15 -15 -15 -14 -14 -13 -13 -13 -11 -11 -13 -14 -14 -14 -15 -15 -15 -15 -15 -16 -15 -14 -14 -14 -14 -13 -14 -13 -13 -13 -13 -13 -12 -12 -12 -12 -12 -12
-18 -17 -17 -17 -17 -16 -16 -16 -16 -15 -15 -13 -13 -14 -12 -13 -14 -14 -14 -15 -15 -15 -15 -15 -15 -16 -14 -14 -14 -14 -14 -14 -14 -14 -13 -13 -13 -13 -13 -12 -12 -12 -12 -12
-18 -18 -17 -17 -17 -17 -16 -16 -16 -16 -15 -13 -15 -14 -13 -15 -15 -15 -16 -16 -16 -15 -15 -14 -15 -15 -14 -14 -14 -14 -14 -14 -14 -14 -13 -13 -13 -13 -13 -13 -12 -12 -12 -12
-19 -18 -18 -18 -17 -17 -17 -16 -16 -16 -15 -14 -15 -14 -15 -15 -15 -14 -15 -15 -15 -15 -15 -14 -15 -16 -14 -14 -14 -14 -14 -14 -14 -14 -14 -14 -13 -13 -13 -12 -12 -12 -12 -12
-19 -19 -18 -18 -18 -18 -17 -17 -17 -17 -16 -15 -14 -15 -15 -15 -15 -14 -14 -14 -14 -14 -15 -15 -15 -16 -14 -14 -14 -15 -14 -14 -14 -14 -14 -14 -14 -13 -13 -12 -12 -12 -13 -13
-20 -20 -19 -19 -18 -18 -18 -17 -17 -17 -16 -16 -16 -16 -16 -15 -15 -15 -14 -14 -14 -14 -15 -15 -15 -16 -14 -14 -15 -15 -14 -14 -14 -14 -14 -14 -14 -14 -13 -13 -13 -13 -13 -13
-21 -20 -20 -19 -19 -18 -18 -18 -18 -17 -17 -17 -16 -16 -16 -15 -15 -14 -14 -14 -14 -15 -15 -15 -16 -16 -15 -14 -15 -15 -15 -15 -14 -14 -14 -14 -14 -14 -14 -13 -13 -14 -14 -13
-22 -21 -20 -20 -19 -19 -19 -18 -18 -18 -18 -17 -17 -16 -17 -16 -16 -15 -15 -15 -15 -15 -15 -15 -15 -15 -15 -15 -15 -15 -15 -14 -14 -14 -14 -14 -14 -14 -14 -14 -14 -14 -14 -14
-22 -21 -21 -20 -20 -20 -19 -19 -19 -18 -18 -18 -18 -16 -17 -16 -16 -16 -15 -15 -15 -15 -15 -15 -15 -15 -14 -14 -14 -14 -15 -14 -14 -14 -15 -15 -14 -14 -14 -14 -14 -14 -14 -14
-22 -21 -21 -21 -21 -20 -20 -19 -19 -18 -18 -18 -17 -17 -17 -16 -16 -16 -15 -15 -15 -15 -15 -15 -15 -15 -14 -14 -14 -14 -14 -14 -14 -14 -15 -15 -15 -14 -14 -15 -15 -15 -14 -14
-22 -22 -22 -21 -21 -20 -20 -20 -19 -18 -19 -18 -18 -17 -17 -17 -16 -16 -15 -15 -15 -15 -15 -15 -15 -15 -14 -14 -14 -14 -14 -15 -14 -15 -15 -15 -15 -15 -15 -15 -15 -15 -15 -15
-23 -22 -22 -21 -21 -20 -20 -20 -20 -19 -19 -18 -18 -18 -18 -16 -17 -16 -15 -15 -15 -15 -15 -15 -15 -14 -14 -15 -14 -15 -15 -15 -15 -15 -15 -15 -16 -15 -15 -16 -16 -16 -16 -16
-23 -23 -22 -21 -21 -20 -19 -20 -19 -19 -19 -19 -18 -19 -18 -17 -16 -15 -15 -15 -15 -15 -15 -15 -15 -15 -15 -15 -14 -14 -14 -14 -15 -15 -15 -15 -15 -15 -16 -16 -16 -16 -16 -16
-23 -23 -22 -21 -21 -21 -20 -20 -19 -19 -19 -19 -18 -18 -18 -17 -17 -16 -15 -15 -14 -15 -15 -15 -15 -15 -15 -14 -14 -14 -14 -15 -15 -15 -15 -15 -15 -15 -15 -15 -15 -15 -15 -16
-23 -23 -23 -22 -21 -20 -20 -19 -19 -18 -19 -18 -18 -18 -17 -18 -17 -16 -16 -16 -15 -15 -15 -15 -15 -14 -14 -14 -15 -15 -15 -15 -15 -15 -16 -16 -16 -16 -16 -16 -16 -16 -16 -16
-23 -23 -23 -22 -21 -20 -20 -20 -19 -19 -19 -18 -17 -17 -17 -17 -17 -16 -16 -15 -15 -15 -15 -15 -15 -15 -15 -15 -15 -15 -15 -15 -15 -16 -16 -16 -16 -16 -16 -15 -16 -16 -16 -16
-23 -23 -22 -22 -21 -20 -20 -20 -20 -19 -18 -18 -17 -17 -17 -17 -17 -17 -16 -16 -15 -15 -15 -15 -15 -15 -15 -15 -15 -15 -15 -16 -16 -16 -16 -16 -16 -15 -15 -16 -16 -16 -16 -16
-24 -23 -23 -21 -20 -20 -20 -20 -20 -20 -20 -18 -18 -18 -17 -17 -17 -17 -17 -16 -16 -16 -15 -15 -15 -15 -15 -15 -15 -15 -16 -16 -16 -16 -16 -16 -15 -15 -15 -16 -16 -16 -16 -16
-24 -23 -23 -22 -21 -21 -21 -20 -20 -20 -20 -20 -19 -18 -18 -18 -17 -17 -17 -16 -16 -16 -16 -16 -15 -15 -15 -15 -15 -16 -16 -16 -16 -16 -16 -16 -16 -17 -17 -17 -17 -17 -17 -17
-24 -24 -23 -23 -23 -23 -21 -20 -20 -21 -20 -20 -20 -20 -19 -18 -18 -18 -17 -17 -16 -16 -16 -16 -16 -16 -16 -16 -16 -16 -17 -17 -17 -17 -17 -17 -17 -17 -17 -17 -17 -17 -17 -17
-24 -23 -23 -23 -24 -24 -22 -21 -21 -21 -21 -21 -20 -20 -19 -19 -19 -18 -18 -17 -17 -17 -17 -16 -16 -16 -17 -17 -17 -17 -17 -17 -17 -18 -18 -18 -18 -18 -18 -18 -18 -18 -18 -18
-23 -23 -23 -23 -23 -23 -22 -22 -21 -21 -21 -21 -21 -20 -20 -20 -19 -19 -19 -18 -18 -18 -18 -17 -17 -17 -17 -17 -17 -17 -18 -18 -18 -18 -18 -18 -18 -18 -18 -19 -19 -19 -19 -19

GFSCGP_500_temp_087.txt.gz
Temp
-19 -18 -16 -17 -16 -16 -15 -14 -13 -13 -14 -13 -12 -10 -11 -11 -11 -12 -12 -12 -12 -11 -12 -14 -14 -15 -15 -15 -16 -15 -15 -15 -14 -14 -14 -14 -14 -13 -13 -13 -13 -12 -12 -12
-18 -18 -18 -18 -17 -16 -15 -15 -14 -14 -14 -13 -13 -11 -11 -12 -12 -12 -12 -12 -12 -12 -12 -13 -14 -15 -15 -15 -16 -15 -15 -14 -14 -13 -14 -14 -14 -13 -13 -13 -12 -12 -12 -12
-18 -19 -19 -19 -18 -17 -16 -16 -15 -15 -15 -14 -13 -11 -12 -12 -13 -13 -12 -11 -12 -11 -13 -13 -14 -14 -14 -15 -15 -15 -15 -14 -14 -14 -14 -14 -14 -13 -13 -13 -13 -12 -12 -12
-19 -19 -19 -19 -18 -18 -17 -16 -16 -16 -15 -14 -14 -12 -12 -12 -14 -13 -12 -11 -12 -12 -13 -14 -14 -14 -14 -15 -15 -15 -15 -14 -14 -14 -14 -14 -14 -14 -13 -13 -12 -12 -12 -12
-19 -20 -20 -19 -18 -18 -17 -17 -16 -16 -15 -14 -14 -14 -12 -12 -13 -12 -12 -11 -12 -13 -13 -14 -15 -15 -15 -15 -15 -15 -14 -14 -14 -14 -14 -14 -14 -14 -13 -13 -12 -12 -12 -12
-20 -20 -20 -19 -19 -19 -18 -17 -17 -16 -16 -14 -14 -14 -12 -14 -13 -13 -12 -12 -12 -13 -14 -14 -15 -15 -15 -15 -15 -15 -14 -14 -14 -14 -14 -13 -13 -13 -13 -13 -13 -12 -12 -12
-19 -20 -19 -19 -18 -18 -18 -17 -17 -16 -16 -15 -15 -13 -13 -14 -13 -12 -13 -13 -14 -14 -14 -15 -15 -15 -15 -15 -15 -15 -14 -14 -14 -14 -14 -14 -13 -13 -13 -13 -13 -12 -12 -12
-20 -20 -20 -19 -19 -18 -18 -17 -17 -17 -16 -16 -15 -14 -14 -14 -14 -14 -14 -14 -14 -14 -15 -14 -15 -15 -15 -15 -15 -14 -14 -14 -14 -14 -14 -14 -14 -13 -13 -13 -13 -13 -12 -12
-20 -20 -20 -19 -19 -19 -18 -18 -17 -17 -17 -16 -15 -16 -15 -15 -14 -14 -14 -14 -14 -14 -15 -14 -15 -14 -15 -16 -15 -15 -14 -14 -14 -15 -15 -14 -14 -14 -13 -13 -12 -13 -12 -12
-21 -21 -20 -20 -19 -19 -18 -18 -18 -18 -17 -16 -16 -16 -16 -15 -15 -15 -15 -15 -15 -16 -15 -15 -15 -15 -15 -16 -15 -15 -14 -14 -14 -15 -15 -14 -14 -14 -13 -13 -12 -13 -13 -13
-22 -21 -21 -21 -20 -19 -19 -19 -18 -18 -17 -17 -16 -16 -16 -16 -15 -16 -16 -15 -15 -16 -16 -16 -15 -15 -15 -15 -15 -15 -14 -14 -14 -14 -14 -14 -14 -14 -14 -13 -13 -13 -13 -13
-22 -22 -22 -21 -21 -20 -19 -19 -19 -18 -17 -17 -16 -16 -17 -17 -16 -16 -15 -15 -15 -16 -15 -15 -15 -15 -15 -16 -15 -15 -14 -14 -14 -14 -14 -14 -14 -14 -14 -14 -13 -13 -14 -14
-22 -22 -22 -21 -21 -20 -20 -20 -19 -18 -18 -18 -17 -17 -17 -17 -17 -16 -16 -15 -15 -15 -15 -15 -15 -16 -15 -16 -15 -15 -14 -14 -14 -14 -14 -14 -14 -14 -14 -14 -14 -14 -14 -14
-23 -22 -22 -22 -21 -21 -20 -20 -20 -19 -18 -18 -18 -17 -18 -17 -17 -16 -17 -16 -15 -15 -15 -15 -15 -15 -15 -15 -15 -14 -14 -14 -14 -14 -14 -14 -15 -15 -14 -14 -14 -15 -14 -14
-22 -23 -23 -22 -22 -21 -21 -21 -20 -19 -19 -18 -18 -18 -18 -17 -17 -16 -16 -16 -15 -15 -15 -15 -15 -15 -15 -15 -15 -14 -14 -14 -15 -15 -15 -15 -15 -15 -15 -15 -15 -15 -15 -15
-22 -22 -22 -22 -22 -21 -21 -21 -20 -20 -19 -18 -18 -18 -17 -18 -18 -17 -16 -16 -16 -15 -15 -15 -15 -15 -15 -15 -15 -15 -15 -15 -15 -15 -15 -15 -15 -15 -15 -15 -15 -15 -15 -15
-23 -23 -23 -23 -23 -22 -21 -21 -20 -20 -19 -19 -18 -18 -18 -18 -18 -17 -17 -16 -16 -15 -16 -15 -15 -15 -15 -15 -15 -15 -15 -15 -15 -15 -15 -15 -15 -15 -15 -15 -15 -15 -15 -15
-23 -23 -23 -23 -22 -22 -21 -21 -20 -20 -19 -19 -18 -18 -18 -18 -18 -17 -17 -16 -15 -15 -15 -15 -15 -15 -15 -15 -15 -15 -14 -14 -14 -14 -14 -15 -15 -15 -15 -15 -15 -15 -15 -15
-24 -23 -23 -22 -22 -21 -22 -21 -20 -19 -20 -19 -18 -17 -17 -17 -18 -17 -17 -16 -16 -15 -15 -15 -15 -15 -15 -15 -15 -15 -15 -14 -14 -14 -15 -15 -15 -16 -15 -15 -15 -15 -16 -16
-23 -23 -22 -22 -22 -21 -22 -21 -20 -19 -19 -19 -17 -17 -17 -18 -17 -17 -17 -16 -15 -15 -15 -15 -15 -15 -15 -15 -15 -14 -14 -14 -15 -15 -15 -15 -15 -15 -15 -15 -16 -15 -15 -15
-23 -23 -23 -22 -22 -22 -22 -21 -20 -20 -19 -19 -18 -18 -18 -17 -17 -17 -17 -16 -16 -16 -15 -14 -15 -15 -15 -15 -15 -15 -14 -15 -15 -15 -15 -15 -16 -16 -16 -16 -16 -15 -15 -15
-24 -24 -23 -23 -22 -22 -22 -21 -20 -20 -20 -19 -18 -18 -18 -18 -18 -18 -17 -17 -17 -16 -16 -15 -15 -15 -15 -15 -15 -14 -14 -15 -15 -15 -15 -16 -16 -16 -16 -16 -16 -16 -16 -15
-24 -24 -23 -23 -23 -23 -21 -21 -21 -21 -20 -20 -20 -20 -19 -18 -18 -18 -18 -17 -17 -16 -16 -16 -16 -15 -15 -15 -15 -15 -15 -14 -15 -15 -15 -16 -16 -16 -16 -16 -16 -16 -16 -16
-24 -24 -23 -23 -23 -23 -21 -21 -21 -21 -21 -21 -21 -20 -20 -19 -19 -18 -17 -17 -17 -17 -16 -16 -16 -16 -16 -16 -15 -15 -15 -15 -15 -15 -16 -16 -16 -16 -16 -17 -17 -16 -16 -17
-24 -24 -23 -23 -23 -23 -23 -22 -21 -21 -21 -21 -21 -21 -20 -20 -20 -19 -19 -18 -18 -17 -17 -17 -17 -16 -16 -16 -16 -16 -16 -16 -16 -16 -16 -16 -16 -17 -17 -17 -17 -17 -17 -17
-24 -23 -23 -23 -24 -24 -23 -23 -22 -21 -21 -21 -21 -21 -20 -20 -20 -20 -19 -19 -19 -18 -18 -18 -18 -17 -17 -17 -17 -16 -16 -17 -17 -17 -17 -17 -17 -18 -18 -18 -18 -18 -18 -18

GFSCGP_500_temp_090.txt.gz
Temp
-18 -17 -16 -17 -19 -19 -17 -16 -15 -15 -14 -13 -13 -12 -11 -11 -13 -13 -13 -12 -12 -12 -12 -12 -12 -11 -12 -13 -14 -15 -15 -16 -16 -15 -15 -14 -14 -14 -14 -14 -14 -13 -13 -13
-17 -17 -18 -19 -20 -19 -19 -18 -16 -15 -15 -14 -13 -12 -12 -12 -13 -13 -13 -12 -12 -11 -11 -11 -12 -11 -12 -13 -14 -15 -15 -15 -16 -15 -15 -14 -14 -14 -14 -13 -13 -13 -13 -12
-17 -17 -18 -18 -19 -19 -19 -19 -18 -17 -16 -15 -14 -13 -13 -13 -14 -13 -12 -12 -11 -11 -11 -11 -11 -11 -12 -13 -14 -15 -15 -15 -16 -15 -14 -14 -14 -14 -14 -13 -13 -13 -12 -12
-19 -18 -18 -18 -18 -20 -20 -19 -19 -18 -16 -16 -14 -13 -13 -13 -14 -14 -13 -12 -11 -11 -11 -11 -11 -12 -12 -14 -15 -15 -15 -15 -15 -15 -15 -14 -14 -14 -14 -14 -13 -13 -12 -12
-18 -19 -19 -19 -19 -20 -20 -20 -19 -18 -17 -16 -15 -14 -14 -14 -14 -14 -13 -12 -12 -12 -11 -12 -11 -12 -13 -14 -14 -14 -14 -15 -15 -15 -14 -14 -14 -14 -14 -13 -13 -12 -12 -12
-20 -20 -20 -20 -20 -21 -20 -19 -19 -18 -17 -16 -16 -15 -15 -14 -14 -14 -13 -12 -12 -12 -12 -11 -12 -13 -13 -14 -14 -14 -15 -15 -15 -14 -14 -14 -14 -13 -13 -13 -13 -13 -12 -12
-21 -20 -20 -20 -21 -20 -20 -20 -19 -19 -18 -17 -16 -15 -15 -15 -14 -14 -13 -12 -12 -12 -12 -13 -14 -14 -14 -14 -14 -15 -15 -15 -15 -14 -14 -14 -14 -14 -13 -13 -13 -13 -12 -12
-22 -21 -20 -21 -21 -21 -20 -20 -19 -19 -18 -17 -16 -15 -15 -15 -15 -14 -13 -13 -13 -12 -13 -14 -14 -14 -14 -15 -15 -15 -15 -15 -15 -14 -14 -14 -14 -14 -13 -13 -13 -13 -12 -12
-22 -21 -21 -22 -21 -21 -20 -19 -19 -18 -18 -17 -17 -16 -15 -16 -15 -14 -14 -14 -13 -14 -14 -14 -14 -15 -15 -15 -15 -15 -15 -15 -15 -14 -14 -14 -14 -14 -14 -13 -13 -13 -13 -12
-22 -22 -21 -21 -22 -21 -20 -19 -19 -18 -18 -18 -17 -17 -18 -15 -15 -15 -15 -14 -14 -14 -15 -15 -15 -15 -15 -15 -15 -15 -16 -15 -15 -14 -14 -15 -15 -14 -14 -13 -13 -12 -13 -12
-23 -22 -21 -21 -21 -21 -20 -19 -19 -19 -18 -18 -17 -18 -16 -16 -16 -16 -15 -15 -14 -15 -15 -15 -15 -16 -16 -15 -15 -16 -16 -15 -15 -14 -14 -15 -15 -14 -14 -13 -13 -13 -13 -13
-22 -22 -21 -21 -21 -21 -20 -20 -20 -19 -18 -18 -18 -17 -17 -17 -16 -16 -15 -16 -15 -15 -15 -16 -16 -15 -15 -15 -16 -16 -16 -15 -15 -14 -14 -15 -15 -15 -14 -14 -13 -14 -13 -13
-23 -22 -22 -22 -22 -21 -21 -20 -19 -19 -19 -18 -18 -18 -17 -17 -17 -16 -17 -16 -16 -16 -15 -16 -16 -15 -15 -15 -15 -16 -16 -15 -15 -14 -14 -15 -15 -15 -15 -14 -14 -14 -14 -14
-22 -22 -22 -22 -22 -21 -21 -20 -20 -19 -19 -19 -19 -18 -18 -17 -17 -17 -17 -16 -16 -16 -16 -16 -16 -15 -15 -14 -15 -16 -16 -15 -15 -14 -14 -15 -15 -15 -15 -15 -15 -15 -14 -14
-23 -23 -23 -23 -22 -22 -21 -21 -20 -20 -20 -19 -19 -19 -18 -17 -17 -17 -17 -17 -17 -16 -15 -16 -16 -15 -15 -15 -15 -16 -15 -15 -15 -15 -14 -14 -15 -15 -15 -15 -15 -15 -15 -15
-23 -23 -22 -22 -22 -22 -22 -21 -21 -20 -20 -20 -19 -19 -18 -18 -17 -17 -17 -16 -16 -16 -15 -16 -15 -15 -15 -15 -15 -15 -15 -15 -15 -15 -14 -15 -15 -15 -15 -15 -15 -15 -15 -15
-22 -23 -22 -22 -23 -22 -22 -22 -21 -21 -20 -20 -19 -19 -18 -18 -17 -17 -17 -17 -16 -16 -16 -16 -15 -15 -15 -15 -15 -15 -15 -15 -15 -15 -15 -15 -15 -15 -15 -15 -15 -15 -15 -15
-23 -22 -22 -22 -22 -22 -22 -22 -21 -21 -20 -20 -20 -19 -18 -18 -17 -17 -17 -17 -16 -16 -16 -16 -15 -15 -15 -15 -15 -15 -15 -15 -15 -15 -15 -14 -14 -15 -15 -15 -15 -15 -15 -15
-23 -23 -23 -23 -23 -22 -22 -21 -21 -21 -20 -20 -19 -19 -18 -18 -17 -17 -17 -17 -16 -16 -16 -15 -15 -15 -15 -15 -15 -15 -15 -15 -14 -14 -14 -14 -14 -14 -15 -15 -15 -15 -15 -15
-23 -23 -23 -23 -22 -22 -22 -21 -21 -20 -20 -20 -19 -18 -18 -18 -17 -17 -17 -17 -16 -16 -16 -15 -15 -15 -15 -15 -15 -15 -15 -15 -15 -14 -14 -14 -14 -14 -15 -15 -15 -15 -15 -15
-24 -23 -23 -22 -22 -22 -22 -21 -21 -21 -20 -19 -19 -18 -18 -17 -17 -17 -17 -18 -17 -16 -16 -15 -16 -15 -16 -15 -16 -15 -15 -15 -15 -15 -14 -14 -15 -15 -15 -16 -16 -16 -15 -15
-24 -23 -22 -22 -22 -22 -22 -22 -21 -21 -20 -19 -19 -18 -18 -18 -18 -18 -18 -18 -17 -17 -16 -16 -15 -15 -15 -15 -15 -15 -15 -15 -15 -15 -15 -15 -15 -15 -15 -15 -16 -15 -16 -16
-23 -23 -22 -23 -23 -22 -22 -22 -21 -21 -21 -20 -20 -19 -18 -18 -18 -18 -18 -18 -17 -17 -17 -16 -17 -14 -15 -15 -14 -15 -15 -15 -15 -15 -15 -15 -15 -15 -15 -16 -16 -16 -16 -16
-23 -23 -23 -23 -23 -23 -22 -22 -21 -21 -21 -21 -20 -21 -20 -20 -20 -19 -19 -18 -18 -17 -17 -17 -16 -16 -15 -15 -15 -14 -15 -15 -15 -15 -15 -15 -15 -15 -15 -15 -16 -15 -15 -16
-23 -23 -23 -23 -23 -23 -22 -22 -21 -22 -21 -21 -21 -21 -21 -21 -20 -20 -20 -20 -19 -19 -18 -18 -17 -17 -16 -16 -16 -15 -15 -15 -15 -15 -15 -15 -15 -15 -15 -15 -16 -16 -15 -16
-24 -24 -24 -24 -24 -23 -23 -23 -22 -22 -22 -21 -21 -21 -21 -21 -21 -21 -20 -20 -20 -19 -19 -19 -18 -18 -17 -17 -17 -17 -17 -17 -16 -16 -16 -16 -16 -16 -16 -16 -16 -16 -16 -17

GFSCGP_500_temp_093.txt.gz
Temp
-17 -17 -16 -17 -17 -17 -18 -18 -16 -17 -17 -16 -14 -14 -13 -13 -12 -12 -13 -12 -12 -12 -12 -12 -11 -11 -11 -11 -11 -12 -12 -12 -14 -15 -16 -15 -15 -15 -15 -14 -14 -14 -14 -13
-18 -17 -17 -18 -18 -17 -18 -18 -17 -18 -18 -17 -15 -14 -14 -13 -13 -13 -13 -13 -12 -12 -12 -11 -12 -11 -12 -11 -11 -12 -11 -12 -15 -16 -16 -15 -15 -15 -14 -14 -14 -14 -13 -13
-19 -18 -18 -19 -18 -18 -17 -18 -19 -19 -19 -18 -16 -14 -14 -15 -13 -14 -13 -13 -13 -12 -12 -12 -12 -12 -12 -11 -11 -12 -12 -13 -15 -16 -15 -15 -15 -15 -14 -14 -14 -14 -14 -13
-20 -20 -20 -19 -18 -18 -17 -19 -21 -21 -20 -18 -17 -16 -17 -16 -14 -14 -14 -14 -13 -12 -12 -12 -12 -12 -12 -11 -12 -12 -13 -13 -15 -15 -15 -15 -15 -14 -14 -14 -14 -14 -14 -13
-20 -21 -23 -23 -19 -19 -18 -19 -20 -20 -19 -19 -19 -18 -16 -16 -16 -15 -14 -13 -13 -12 -12 -12 -12 -12 -12 -11 -12 -12 -13 -14 -14 -15 -15 -15 -15 -14 -14 -14 -14 -13 -14 -13
-22 -22 -23 -23 -23 -20 -20 -19 -20 -20 -20 -19 -17 -18 -18 -17 -16 -15 -14 -14 -13 -12 -12 -12 -12 -12 -12 -12 -12 -13 -14 -14 -14 -15 -15 -15 -15 -14 -14 -14 -14 -13 -13 -13
-24 -24 -23 -22 -22 -21 -20 -20 -20 -20 -19 -17 -19 -18 -18 -18 -17 -15 -14 -13 -13 -13 -12 -12 -12 -12 -12 -11 -13 -13 -14 -14 -15 -15 -16 -15 -15 -14 -14 -14 -13 -13 -13 -13
-23 -24 -23 -22 -22 -21 -20 -20 -21 -20 -19 -19 -19 -18 -18 -18 -17 -16 -15 -14 -13 -12 -12 -12 -12 -12 -12 -12 -14 -14 -14 -14 -15 -15 -15 -15 -15 -14 -14 -14 -13 -13 -13 -13
-24 -23 -22 -23 -22 -22 -21 -20 -20 -19 -18 -18 -17 -18 -18 -18 -16 -16 -15 -14 -13 -13 -13 -12 -13 -13 -13 -14 -14 -14 -15 -15 -15 -15 -15 -15 -14 -14 -14 -14 -14 -13 -13 -13
-23 -23 -22 -22 -22 -21 -21 -21 -21 -20 -20 -20 -19 -18 -17 -17 -16 -16 -15 -14 -14 -13 -13 -13 -13 -14 -14 -14 -15 -15 -15 -15 -15 -15 -15 -15 -14 -15 -14 -14 -14 -13 -13 -13
-24 -23 -22 -22 -22 -21 -20 -20 -20 -20 -20 -20 -18 -18 -18 -17 -17 -16 -15 -15 -15 -14 -14 -14 -14 -14 -14 -15 -16 -16 -15 -15 -15 -15 -15 -15 -15 -15 -14 -14 -14 -13 -13 -13
-23 -22 -22 -21 -21 -21 -22 -21 -20 -20 -19 -20 -19 -17 -17 -17 -17 -16 -16 -15 -15 -14 -14 -14 -15 -15 -15 -16 -16 -16 -15 -15 -15 -16 -15 -15 -15 -15 -15 -14 -14 -13 -14 -13
-22 -22 -21 -21 -21 -21 -21 -21 -21 -20 -20 -19 -19 -19 -18 -18 -17 -17 -16 -16 -15 -15 -14 -15 -15 -15 -15 -16 -16 -16 -15 -15 -16 -16 -15 -15 -15 -15 -15 -14 -14 -14 -14 -14
-22 -21 -21 -20 -20 -20 -20 -20 -20 -21 -21 -20 -20 -19 -19 -18 -18 -17 -17 -16 -16 -16 -15 -15 -16 -16 -16 -16 -15 -15 -15 -15 -16 -16 -15 -15 -15 -15 -15 -15 -14 -14 -14 -14
-22 -22 -21 -21 -20 -21 -21 -21 -21 -21 -21 -20 -20 -19 -19 -18 -18 -17 -17 -16 -16 -16 -16 -16 -16 -16 -16 -16 -16 -15 -15 -15 -16 -15 -15 -15 -15 -15 -15 -15 -15 -15 -14 -14
-22 -22 -22 -21 -22 -22 -22 -22 -21 -21 -20 -20 -20 -20 -18 -18 -18 -17 -17 -17 -17 -17 -16 -16 -16 -16 -16 -16 -15 -15 -15 -15 -15 -16 -15 -15 -15 -15 -15 -15 -15 -15 -15 -14
-22 -22 -22 -22 -22 -22 -22 -22 -22 -21 -21 -20 -20 -19 -19 -18 -18 -17 -17 -17 -17 -16 -16 -16 -16 -16 -16 -16 -16 -15 -15 -15 -16 -16 -16 -15 -15 -15 -15 -15 -15 -15 -15 -15
-22 -22 -22 -22 -22 -22 -22 -22 -22 -21 -21 -21 -20 -19 -19 -18 -18 -17 -17 -17 -17 -17 -17 -16 -16 -16 -16 -15 -15 -15 -15 -15 -16 -16 -16 -15 -15 -15 -15 -15 -15 -15 -15 -15
-22 -22 -22 -22 -23 -23 -23 -22 -22 -21 -21 -20 -20 -20 -19 -18 -18 -18 -17 -17 -17 -17 -17 -16 -15 -16 -15 -15 -15 -15 -15 -15 -15 -15 -15 -15 -15 -15 -15 -15 -15 -15 -15 -15
-23 -23 -23 -23 -23 -23 -22 -22 -21 -21 -21 -20 -20 -19 -19 -19 -18 -18 -17 -17 -17 -17 -17 -16 -15 -15 -15 -15 -15 -14 -14 -14 -15 -14 -15 -15 -14 -14 -14 -14 -15 -15 -15 -15
-24 -23 -23 -22 -22 -22 -22 -21 -21 -21 -21 -20 -20 -19 -19 -19 -18 -18 -17 -17 -17 -17 -17 -16 -15 -15 -15 -14 -14 -14 -14 -14 -15 -15 -15 -15 -15 -14 -14 -14 -15 -15 -15 -15
-23 -23 -23 -22 -22 -22 -21 -21 -21 -21 -20 -20 -20 -20 -19 -19 -18 -18 -18 -17 -17 -17 -17 -17 -16 -15 -15 -15 -14 -14 -14 -14 -13 -15 -15 -15 -15 -15 -15 -15 -14 -15 -15 -15
-23 -23 -23 -22 -22 -22 -22 -22 -21 -21 -21 -21 -21 -20 -20 -19 -19 -18 -17 -18 -18 -17 -18 -17 -17 -17 -16 -15 -15 -13 -14 -14 -14 -14 -14 -14 -15 -15 -14 -14 -14 -15 -14 -15
-24 -23 -23 -23 -22 -22 -22 -22 -22 -21 -22 -22 -21 -20 -20 -19 -19 -19 -19 -19 -18 -18 -18 -18 -18 -17 -17 -17 -15 -15 -15 -15 -14 -14 -14 -14 -15 -15 -15 -15 -15 -15 -15 -15
-24 -23 -23 -23 -22 -22 -22 -23 -22 -22 -22 -22 -21 -21 -21 -21 -21 -20 -20 -20 -20 -19 -19 -19 -18 -18 -18 -18 -17 -16 -17 -14 -15 -15 -14 -14 -14 -14 -15 -14 -15 -15 -15 -15
-24 -24 -23 -23 -23 -23 -23 -22 -22 -22 -22 -22 -22 -22 -22 -21 -21 -21 -21 -20 -20 -20 -20 -19 -19 -19 -19 -18 -18 -18 -17 -17 -16 -17 -17 -17 -16 -15 -15 -15 -15 -15 -15 -15

GFSCGP_500_temp_099.txt.gz
Temp
-16 -15 -15 -16 -16 -16 -16 -16 -17 -16 -17 -17 -17 -16 -16 -16 -16 -15 -15 -14 -14 -13 -13 -14 -13 -12 -11 -11 -11 -11 -10 -10 -10 -11 -12 -12 -12 -12 -13 -13 -14 -15 -15 -16
-16 -15 -16 -16 -16 -16 -16 -17 -17 -18 -17 -18 -18 -17 -16 -16 -16 -15 -15 -15 -15 -15 -15 -14 -13 -13 -12 -12 -11 -11 -10 -10 -11 -12 -12 -12 -12 -12 -12 -13 -15 -16 -16 -15
-16 -15 -16 -16 -17 -18 -18 -19 -19 -19 -18 -19 -18 -18 -17 -16 -17 -18 -16 -17 -16 -15 -15 -14 -13 -13 -13 -12 -12 -11 -11 -10 -11 -12 -13 -12 -12 -12 -12 -14 -15 -16 -15 -15
-16 -16 -17 -18 -18 -21 -21 -20 -21 -21 -21 -20 -20 -18 -17 -16 -17 -18 -18 -18 -17 -15 -15 -14 -14 -13 -13 -12 -12 -11 -11 -11 -11 -12 -13 -12 -12 -12 -13 -14 -15 -15 -15 -15
-16 -18 -19 -20 -21 -21 -22 -22 -21 -22 -22 -21 -20 -20 -16 -17 -18 -18 -18 -17 -17 -17 -15 -14 -13 -13 -13 -12 -12 -12 -11 -11 -11 -12 -13 -12 -12 -13 -13 -14 -15 -15 -15 -15
-19 -19 -21 -22 -22 -23 -23 -22 -21 -21 -22 -21 -19 -20 -16 -17 -17 -18 -17 -17 -16 -16 -15 -15 -14 -14 -13 -12 -12 -12 -11 -11 -12 -12 -13 -12 -12 -13 -14 -14 -14 -15 -15 -15
-21 -21 -22 -24 -24 -23 -23 -23 -22 -21 -21 -20 -20 -19 -16 -18 -17 -17 -17 -17 -16 -16 -16 -15 -15 -15 -14 -13 -12 -12 -12 -12 -12 -12 -13 -12 -12 -14 -14 -14 -15 -15 -15 -15
-22 -21 -24 -24 -24 -23 -23 -23 -22 -21 -20 -19 -20 -16 -18 -19 -18 -15 -16 -16 -16 -16 -16 -16 -16 -15 -14 -13 -13 -13 -12 -12 -12 -13 -12 -12 -13 -14 -14 -14 -15 -15 -15 -15
-23 -23 -24 -24 -23 -23 -23 -22 -21 -21 -21 -19 -19 -17 -18 -18 -18 -17 -16 -16 -16 -17 -16 -17 -16 -16 -14 -14 -13 -13 -12 -12 -12 -12 -12 -13 -14 -14 -14 -15 -15 -15 -15 -15
-25 -23 -23 -24 -23 -23 -23 -22 -22 -21 -20 -19 -19 -18 -17 -17 -18 -17 -16 -17 -16 -17 -16 -16 -16 -16 -14 -15 -14 -13 -13 -12 -12 -13 -13 -14 -14 -14 -15 -15 -15 -14 -15 -15
-25 -23 -24 -23 -23 -22 -22 -22 -21 -21 -20 -19 -18 -17 -18 -16 -17 -17 -17 -17 -17 -17 -17 -18 -16 -16 -15 -14 -14 -13 -13 -12 -13 -13 -14 -15 -15 -15 -15 -16 -15 -15 -15 -15
-24 -23 -23 -23 -22 -22 -21 -21 -21 -20 -20 -19 -19 -18 -18 -17 -17 -17 -17 -18 -18 -18 -17 -18 -16 -15 -15 -14 -14 -13 -14 -14 -14 -14 -15 -15 -15 -15 -16 -15 -15 -16 -15 -15
-24 -23 -22 -22 -22 -22 -21 -21 -21 -21 -20 -20 -19 -19 -18 -18 -18 -17 -17 -17 -18 -17 -17 -16 -15 -15 -15 -15 -14 -14 -14 -15 -14 -15 -15 -15 -15 -16 -15 -16 -16 -16 -15 -15
-23 -23 -22 -22 -22 -22 -21 -22 -21 -21 -20 -20 -20 -19 -19 -18 -19 -19 -18 -18 -18 -17 -16 -16 -16 -15 -15 -15 -14 -14 -14 -15 -15 -15 -15 -15 -15 -16 -16 -16 -16 -16 -15 -15
-23 -22 -21 -22 -22 -21 -22 -21 -21 -20 -20 -20 -19 -19 -19 -19 -19 -19 -19 -18 -18 -17 -17 -16 -16 -16 -15 -15 -15 -15 -16 -16 -16 -15 -15 -15 -15 -15 -16 -16 -16 -16 -16 -15
-23 -22 -22 -21 -21 -21 -22 -21 -21 -21 -20 -20 -19 -19 -19 -19 -19 -19 -18 -18 -17 -17 -17 -16 -16 -16 -16 -16 -16 -16 -16 -16 -16 -16 -16 -15 -15 -15 -16 -16 -16 -16 -16 -16
-23 -22 -22 -22 -21 -21 -20 -20 -20 -21 -20 -20 -20 -20 -20 -20 -19 -19 -19 -18 -18 -17 -17 -17 -16 -16 -16 -17 -16 -16 -16 -16 -16 -16 -16 -16 -16 -15 -16 -17 -17 -16 -16 -16
-23 -23 -22 -22 -23 -21 -21 -21 -21 -21 -21 -21 -21 -20 -20 -20 -20 -19 -19 -18 -18 -17 -17 -17 -17 -16 -16 -16 -16 -16 -16 -16 -16 -16 -16 -16 -16 -15 -16 -17 -17 -16 -16 -16
-23 -22 -22 -22 -22 -22 -22 -22 -22 -22 -21 -21 -21 -20 -20 -20 -20 -19 -18 -18 -18 -18 -17 -17 -17 -17 -16 -16 -16 -16 -16 -16 -16 -16 -16 -16 -16 -16 -16 -16 -17 -16 -16 -16
-23 -23 -22 -22 -22 -22 -22 -21 -22 -21 -21 -21 -21 -21 -20 -20 -19 -19 -19 -19 -18 -18 -18 -17 -17 -17 -17 -17 -16 -16 -16 -16 -16 -16 -16 -16 -16 -16 -16 -16 -16 -16 -16 -16
-23 -23 -22 -22 -22 -22 -22 -22 -22 -21 -21 -21 -21 -20 -20 -20 -19 -19 -19 -19 -18 -18 -18 -18 -17 -17 -18 -17 -17 -17 -16 -16 -15 -16 -16 -15 -16 -15 -16 -16 -15 -16 -16 -16
-23 -23 -23 -23 -22 -22 -22 -21 -21 -21 -21 -21 -21 -21 -21 -20 -19 -19 -19 -19 -19 -18 -18 -18 -18 -18 -18 -17 -18 -17 -16 -16 -16 -16 -15 -16 -15 -15 -16 -16 -15 -16 -16 -16
-24 -23 -23 -23 -22 -22 -22 -21 -21 -21 -21 -21 -21 -21 -21 -21 -21 -20 -20 -19 -19 -19 -19 -18 -18 -18 -18 -18 -18 -17 -16 -16 -16 -16 -15 -16 -16 -16 -16 -16 -15 -15 -16 -16
-24 -23 -23 -23 -22 -22 -22 -22 -21 -22 -21 -22 -22 -22 -22 -21 -21 -21 -21 -21 -20 -20 -20 -20 -19 -19 -19 -19 -18 -18 -18 -18 -18 -17 -16 -16 -16 -15 -16 -15 -15 -15 -16 -15
-24 -23 -23 -23 -22 -22 -22 -22 -22 -22 -22 -22 -22 -22 -22 -22 -22 -22 -22 -21 -21 -21 -21 -21 -21 -20 -20 -19 -19 -19 -18 -18 -18 -19 -19 -18 -18 -16 -16 -16 -16 -16 -15 -16
-24 -23 -23 -23 -22 -22 -22 -23 -23 -23 -23 -23 -23 -23 -22 -22 -22 -22 -22 -22 -22 -22 -22 -22 -22 -21 -21 -21 -21 -20 -20 -19 -19 -19 -19 -19 -18 -19 -18 -18 -18 -18 -17 -16

GFSCGP_500_temp_102.txt.gz
Temp
-15 -15 -15 -16 -16 -16 -16 -16 -16 -15 -15 -17 -15 -16 -16 -17 -16 -16 -16 -16 -16 -15 -14 -15 -14 -14 -14 -13 -13 -14 -12 -12 -12 -11 -12 -12 -11 -11 -12 -12 -12 -12 -12 -13
-15 -15 -16 -16 -16 -16 -16 -16 -15 -16 -15 -18 -18 -18 -17 -18 -17 -17 -17 -16 -16 -16 -15 -15 -14 -14 -14 -13 -13 -13 -12 -12 -12 -11 -12 -11 -12 -12 -12 -12 -12 -12 -13 -14
-16 -16 -16 -16 -16 -16 -16 -16 -17 -18 -17 -18 -19 -19 -18 -18 -18 -17 -17 -16 -16 -16 -15 -15 -15 -15 -15 -14 -14 -13 -13 -12 -12 -12 -12 -12 -12 -12 -12 -12 -12 -13 -14 -14
-16 -16 -16 -16 -15 -16 -17 -18 -21 -21 -20 -21 -21 -20 -19 -19 -18 -17 -17 -17 -16 -16 -16 -17 -17 -16 -14 -13 -13 -14 -12 -13 -12 -12 -12 -12 -13 -12 -12 -13 -13 -13 -13 -14
-15 -16 -16 -16 -16 -18 -19 -21 -21 -22 -22 -22 -21 -22 -18 -19 -18 -18 -18 -18 -17 -17 -17 -16 -16 -16 -14 -14 -13 -13 -12 -12 -12 -12 -13 -13 -12 -12 -12 -12 -13 -13 -14 -14
-16 -16 -16 -17 -18 -19 -21 -22 -22 -23 -23 -22 -20 -21 -18 -19 -18 -18 -19 -17 -18 -17 -17 -17 -16 -16 -15 -14 -14 -13 -13 -13 -13 -12 -13 -13 -13 -13 -12 -12 -13 -13 -14 -14
-17 -16 -17 -21 -21 -22 -23 -24 -23 -24 -23 -21 -21 -21 -19 -19 -19 -19 -19 -18 -18 -18 -17 -17 -16 -16 -15 -15 -15 -14 -14 -13 -13 -12 -12 -13 -13 -13 -12 -13 -13 -14 -14 -15
-16 -16 -19 -22 -24 -23 -24 -24 -24 -23 -23 -21 -21 -20 -19 -18 -19 -18 -19 -18 -16 -17 -16 -17 -17 -17 -16 -15 -15 -14 -13 -13 -13 -13 -13 -12 -13 -13 -13 -13 -13 -14 -15 -15
-19 -20 -22 -24 -24 -24 -23 -23 -23 -23 -22 -22 -21 -20 -20 -19 -19 -19 -18 -16 -16 -16 -16 -16 -18 -18 -17 -16 -15 -14 -14 -13 -13 -13 -12 -12 -13 -13 -13 -13 -14 -15 -15 -16
-23 -23 -24 -25 -23 -24 -23 -23 -23 -23 -22 -22 -20 -19 -19 -18 -19 -18 -18 -16 -16 -16 -16 -17 -18 -17 -17 -16 -16 -15 -14 -14 -14 -14 -13 -13 -13 -13 -13 -14 -14 -15 -16 -16
-24 -24 -24 -24 -24 -23 -23 -22 -23 -22 -22 -21 -20 -19 -19 -18 -18 -18 -17 -17 -16 -16 -17 -17 -17 -18 -17 -17 -16 -15 -15 -14 -14 -14 -14 -14 -13 -13 -14 -15 -15 -16 -16 -16
-25 -24 -23 -24 -23 -23 -22 -22 -22 -22 -22 -21 -20 -20 -19 -18 -18 -18 -18 -17 -16 -17 -17 -17 -17 -16 -16 -17 -17 -15 -15 -14 -14 -14 -14 -14 -14 -14 -15 -15 -15 -15 -15 -16
-25 -24 -23 -23 -23 -23 -22 -22 -22 -21 -20 -20 -20 -19 -19 -18 -19 -18 -17 -17 -17 -17 -16 -17 -18 -17 -17 -17 -16 -16 -15 -14 -14 -14 -14 -14 -14 -14 -15 -15 -15 -15 -16 -15
-25 -24 -23 -23 -22 -22 -21 -21 -21 -21 -21 -20 -20 -19 -19 -19 -19 -18 -18 -18 -17 -17 -17 -18 -18 -17 -17 -17 -16 -15 -15 -14 -14 -14 -14 -15 -15 -15 -16 -15 -15 -16 -16 -15
-23 -23 -22 -22 -22 -22 -22 -22 -21 -21 -21 -20 -20 -19 -20 -19 -19 -19 -20 -19 -18 -18 -18 -17 -18 -17 -17 -16 -16 -15 -15 -15 -15 -15 -15 -15 -15 -15 -15 -15 -15 -16 -16 -15
-22 -22 -21 -21 -22 -22 -22 -22 -21 -21 -21 -21 -20 -20 -19 -20 -19 -19 -19 -18 -18 -18 -17 -17 -17 -16 -16 -15 -16 -15 -15 -15 -15 -15 -15 -15 -16 -16 -15 -15 -15 -16 -16 -15
-22 -21 -21 -21 -21 -22 -22 -22 -20 -21 -21 -21 -20 -20 -20 -19 -19 -19 -18 -18 -18 -17 -17 -17 -17 -17 -17 -16 -16 -16 -16 -16 -16 -16 -16 -16 -16 -16 -15 -15 -16 -16 -16 -15
-22 -22 -22 -22 -21 -21 -22 -22 -21 -21 -21 -21 -21 -21 -21 -20 -19 -19 -19 -18 -19 -18 -18 -17 -17 -16 -17 -16 -16 -16 -16 -16 -16 -16 -16 -16 -17 -16 -16 -16 -16 -16 -16 -16
-23 -22 -22 -22 -22 -22 -22 -22 -22 -21 -21 -21 -21 -21 -21 -21 -20 -20 -19 -19 -19 -18 -18 -18 -17 -17 -17 -17 -17 -17 -17 -17 -16 -17 -17 -17 -17 -16 -17 -16 -16 -16 -17 -16
-23 -22 -22 -22 -22 -22 -22 -22 -22 -22 -21 -21 -21 -20 -20 -20 -20 -20 -19 -19 -19 -18 -18 -18 -18 -17 -17 -17 -17 -17 -16 -17 -17 -17 -17 -17 -17 -17 -16 -16 -16 -16 -17 -16
-23 -23 -22 -23 -22 -22 -22 -22 -22 -21 -21 -21 -21 -20 -20 -20 -20 -19 -19 -19 -19 -19 -19 -18 -18 -18 -18 -17 -17 -17 -17 -17 -17 -17 -17 -17 -17 -17 -15 -16 -17 -16 -17 -17
-23 -23 -23 -23 -23 -23 -22 -22 -22 -21 -21 -21 -20 -20 -20 -20 -20 -19 -19 -19 -19 -19 -18 -18 -18 -18 -18 -18 -18 -17 -17 -17 -17 -17 -17 -17 -16 -16 -15 -16 -17 -16 -16 -16
-23 -23 -23 -23 -22 -22 -22 -22 -22 -21 -21 -21 -21 -21 -21 -21 -20 -20 -20 -20 -19 -19 -19 -19 -19 -18 -18 -18 -18 -19 -18 -18 -17 -17 -17 -17 -17 -16 -17 -16 -15 -16 -16 -16
-24 -23 -23 -23 -22 -22 -22 -22 -21 -21 -21 -21 -21 -21 -22 -22 -22 -21 -21 -21 -21 -20 -20 -20 -20 -19 -19 -19 -19 -19 -19 -18 -18 -18 -18 -17 -17 -17 -16 -16 -16 -16 -16 -16
-24 -23 -23 -23 -22 -22 -22 -21 -21 -21 -21 -22 -22 -22 -22 -22 -22 -22 -22 -22 -22 -22 -21 -21 -21 -21 -21 -20 -20 -20 -20 -19 -19 -19 -18 -18 -18 -19 -18 -17 -17 -16 -16 -16
-24 -23 -23 -23 -22 -22 -22 -22 -22 -22 -22 -22 -22 -23 -23 -23 -22 -22 -22 -22 -22 -22 -22 -22 -22 -22 -22 -22 -21 -21 -21 -21 -20 -20 -20 -19 -19 -19 -19 -19 -19 -18 -17 -17

GFSCGP_500_temp_105.txt.gz
Temp
-15 -15 -15 -16 -16 -16 -15 -15 -15 -15 -15 -15 -15 -14 -15 -14 -14 -14 -14 -14 -14 -14 -15 -15 -14 -15 -15 -15 -15 -15 -14 -14 -13 -13 -14 -13 -12 -13 -13 -13 -13 -13 -12 -12
-16 -16 -16 -16 -16 -16 -16 -16 -16 -15 -16 -16 -15 -15 -15 -14 -15 -15 -15 -15 -15 -15 -16 -16 -15 -15 -15 -16 -15 -15 -14 -14 -13 -13 -14 -13 -13 -13 -14 -14 -13 -13 -12 -12
-16 -16 -17 -16 -17 -17 -16 -16 -16 -16 -15 -16 -16 -15 -14 -14 -16 -17 -17 -17 -18 -17 -16 -17 -17 -16 -16 -16 -15 -14 -14 -14 -13 -13 -14 -13 -13 -13 -13 -13 -12 -13 -13 -13
-16 -16 -17 -17 -17 -17 -16 -17 -17 -17 -17 -15 -16 -14 -14 -17 -17 -19 -19 -20 -19 -18 -18 -17 -17 -16 -16 -16 -15 -15 -15 -14 -13 -14 -14 -13 -13 -13 -13 -14 -14 -14 -13 -13
-17 -17 -17 -17 -17 -17 -16 -17 -17 -18 -18 -19 -15 -18 -18 -19 -20 -21 -22 -21 -19 -18 -18 -18 -17 -17 -16 -16 -15 -15 -15 -15 -14 -13 -13 -13 -13 -14 -14 -14 -13 -13 -13 -13
-17 -17 -17 -17 -16 -17 -16 -17 -17 -19 -20 -20 -18 -21 -18 -20 -21 -21 -22 -20 -19 -18 -17 -17 -17 -17 -16 -16 -17 -16 -16 -15 -15 -14 -14 -13 -13 -14 -14 -14 -13 -13 -13 -13
-17 -17 -17 -17 -16 -16 -17 -18 -18 -20 -21 -21 -21 -21 -20 -20 -20 -21 -21 -19 -18 -18 -17 -17 -17 -18 -17 -17 -16 -17 -16 -15 -15 -15 -14 -14 -14 -14 -14 -14 -13 -13 -13 -13
-17 -16 -16 -16 -19 -18 -18 -21 -22 -23 -22 -22 -23 -21 -21 -20 -20 -20 -20 -19 -18 -17 -18 -18 -18 -17 -17 -17 -18 -18 -17 -15 -14 -15 -14 -14 -14 -13 -14 -14 -13 -13 -13 -13
-17 -16 -16 -19 -19 -20 -20 -22 -24 -23 -23 -22 -21 -21 -21 -20 -19 -19 -19 -18 -18 -18 -17 -18 -17 -17 -17 -18 -18 -17 -17 -15 -15 -15 -14 -14 -14 -14 -14 -14 -14 -13 -13 -13
-18 -17 -20 -21 -21 -23 -23 -25 -24 -24 -23 -22 -21 -22 -20 -20 -19 -18 -18 -18 -18 -17 -17 -17 -17 -17 -16 -17 -17 -16 -16 -16 -15 -15 -15 -15 -15 -14 -14 -14 -14 -13 -13 -14
-20 -22 -24 -24 -24 -23 -23 -24 -23 -23 -23 -22 -22 -22 -21 -20 -20 -19 -18 -18 -17 -17 -18 -16 -16 -17 -17 -17 -17 -16 -16 -15 -15 -15 -14 -15 -15 -15 -15 -14 -14 -13 -14 -14
-24 -24 -25 -24 -23 -24 -23 -23 -23 -23 -22 -22 -22 -21 -21 -20 -20 -19 -18 -18 -17 -17 -17 -16 -17 -17 -17 -17 -17 -17 -17 -15 -15 -15 -15 -15 -14 -14 -14 -14 -14 -14 -14 -15
-24 -25 -24 -24 -23 -23 -23 -23 -23 -22 -22 -22 -22 -20 -20 -20 -19 -19 -19 -18 -17 -17 -17 -17 -17 -17 -17 -17 -17 -18 -16 -15 -15 -15 -15 -15 -15 -15 -15 -14 -14 -14 -14 -15
-24 -24 -24 -24 -23 -23 -23 -22 -22 -22 -21 -21 -21 -20 -20 -20 -19 -18 -19 -18 -17 -17 -17 -17 -17 -17 -18 -18 -17 -18 -17 -15 -15 -15 -15 -15 -14 -15 -14 -14 -15 -15 -15 -15
-23 -23 -23 -23 -23 -23 -22 -21 -21 -21 -21 -21 -21 -20 -20 -19 -19 -20 -19 -19 -18 -19 -18 -18 -18 -18 -18 -18 -18 -17 -17 -17 -16 -16 -15 -15 -15 -15 -14 -15 -15 -15 -16 -16
-23 -23 -22 -22 -22 -22 -22 -22 -21 -21 -21 -21 -20 -20 -20 -20 -20 -20 -20 -19 -19 -19 -18 -18 -18 -18 -18 -18 -18 -17 -17 -17 -16 -16 -14 -15 -15 -15 -15 -15 -15 -15 -15 -15
-23 -22 -22 -22 -22 -22 -22 -22 -22 -21 -21 -21 -21 -21 -20 -20 -20 -20 -20 -20 -19 -18 -18 -17 -17 -18 -17 -18 -17 -17 -17 -16 -16 -15 -15 -15 -15 -15 -15 -15 -16 -16 -15 -16
-23 -22 -23 -22 -22 -22 -22 -22 -22 -21 -21 -21 -21 -20 -20 -20 -20 -20 -19 -19 -18 -18 -18 -17 -17 -17 -17 -17 -17 -17 -16 -17 -16 -16 -16 -15 -15 -15 -16 -16 -16 -16 -16 -16
-23 -22 -22 -23 -22 -22 -22 -22 -22 -21 -21 -21 -21 -20 -21 -20 -20 -20 -20 -19 -19 -18 -18 -18 -18 -17 -17 -17 -17 -17 -17 -17 -17 -16 -16 -16 -16 -15 -16 -16 -16 -16 -16 -16
-22 -22 -22 -22 -22 -22 -22 -22 -22 -22 -22 -21 -21 -21 -20 -20 -20 -20 -20 -19 -19 -19 -19 -18 -18 -18 -17 -17 -17 -17 -17 -17 -17 -16 -16 -16 -16 -16 -16 -16 -16 -16 -16 -16
-23 -22 -22 -22 -22 -23 -22 -22 -22 -21 -21 -21 -21 -20 -20 -20 -20 -20 -19 -19 -19 -19 -19 -19 -18 -18 -18 -18 -18 -17 -17 -17 -17 -16 -16 -16 -17 -17 -17 -16 -16 -16 -16 -17
-23 -23 -23 -23 -22 -22 -22 -22 -22 -21 -21 -21 -21 -20 -20 -20 -20 -20 -20 -19 -19 -19 -19 -19 -19 -18 -18 -18 -18 -17 -17 -17 -17 -17 -16 -16 -17 -17 -17 -17 -17 -17 -17 -16
-23 -23 -23 -22 -22 -22 -22 -22 -22 -21 -21 -21 -21 -21 -21 -21 -21 -21 -20 -20 -20 -20 -19 -19 -19 -19 -19 -18 -18 -18 -18 -18 -18 -18 -17 -17 -17 -17 -17 -17 -17 -16 -17 -16
-23 -23 -23 -23 -22 -22 -22 -22 -22 -21 -21 -21 -21 -21 -21 -22 -22 -22 -22 -22 -21 -21 -21 -20 -20 -20 -20 -20 -19 -19 -19 -19 -19 -19 -19 -18 -18 -18 -17 -17 -17 -17 -17 -17
-24 -24 -23 -23 -22 -22 -22 -22 -21 -21 -21 -21 -22 -22 -22 -22 -22 -22 -22 -22 -22 -22 -22 -21 -21 -21 -21 -21 -21 -20 -20 -20 -20 -19 -19 -19 -19 -19 -18 -18 -18 -17 -17 -17
-25 -24 -23 -23 -22 -22 -22 -22 -22 -22 -22 -22 -22 -22 -22 -23 -23 -22 -22 -22 -22 -22 -22 -22 -22 -22 -22 -22 -22 -22 -21 -22 -21 -21 -21 -21 -20 -20 -20 -20 -19 -19 -19 -19

GFSCGP_500_temp_108.txt.gz
Temp
-14 -14 -15 -15 -15 -15 -15 -15 -14 -15 -15 -15 -15 -14 -13 -13 -14 -14 -14 -15 -15 -15 -14 -15 -15 -15 -14 -15 -14 -14 -14 -14 -14 -14 -14 -14 -14 -15 -15 -15 -15 -14 -14 -14
-15 -15 -16 -16 -16 -16 -16 -15 -15 -15 -16 -16 -16 -14 -14 -13 -14 -14 -15 -15 -15 -14 -14 -14 -14 -15 -15 -15 -15 -14 -14 -14 -14 -15 -14 -14 -14 -14 -15 -15 -14 -14 -14 -15
-15 -16 -17 -17 -17 -16 -17 -16 -16 -16 -16 -16 -16 -14 -14 -14 -14 -15 -15 -15 -14 -14 -14 -14 -14 -14 -15 -15 -16 -15 -14 -14 -14 -15 -15 -14 -14 -14 -15 -14 -14 -15 -14 -14
-16 -17 -18 -18 -18 -18 -17 -17 -17 -17 -16 -16 -16 -15 -13 -15 -15 -15 -15 -15 -15 -15 -15 -15 -16 -16 -16 -17 -16 -15 -15 -14 -14 -15 -15 -15 -15 -14 -15 -15 -14 -15 -15 -14
-17 -17 -18 -19 -18 -18 -18 -18 -17 -17 -17 -17 -15 -17 -15 -15 -14 -15 -16 -17 -18 -18 -18 -19 -19 -18 -18 -18 -18 -17 -15 -14 -14 -15 -15 -15 -15 -15 -15 -15 -14 -15 -15 -15
-18 -18 -19 -18 -18 -18 -18 -18 -17 -17 -17 -17 -16 -18 -15 -17 -16 -18 -20 -21 -21 -21 -20 -20 -20 -19 -19 -18 -18 -17 -16 -15 -15 -16 -16 -15 -15 -15 -15 -14 -15 -15 -15 -14
-19 -19 -19 -19 -18 -18 -18 -17 -17 -17 -17 -17 -18 -18 -18 -18 -20 -20 -20 -20 -20 -20 -20 -19 -19 -18 -18 -18 -18 -17 -17 -17 -16 -16 -16 -16 -15 -14 -15 -15 -15 -15 -15 -15
-19 -19 -19 -19 -19 -18 -18 -19 -19 -19 -18 -18 -20 -20 -20 -21 -20 -20 -19 -20 -20 -19 -19 -18 -18 -18 -18 -18 -18 -17 -17 -17 -17 -17 -17 -16 -15 -15 -15 -15 -15 -15 -15 -15
-20 -19 -18 -18 -18 -17 -17 -19 -20 -20 -20 -21 -21 -23 -20 -20 -21 -20 -19 -19 -19 -19 -18 -18 -18 -18 -17 -17 -17 -17 -17 -17 -17 -17 -17 -16 -16 -16 -16 -16 -15 -15 -15 -14
-19 -18 -18 -19 -18 -18 -19 -21 -23 -23 -23 -23 -22 -22 -20 -21 -21 -20 -19 -19 -19 -19 -18 -18 -18 -18 -17 -17 -17 -17 -17 -17 -17 -17 -16 -17 -16 -16 -16 -15 -15 -15 -15 -14
-18 -18 -20 -19 -20 -22 -23 -24 -24 -23 -23 -23 -22 -21 -21 -21 -21 -21 -20 -19 -19 -18 -18 -18 -17 -17 -17 -17 -17 -17 -17 -17 -17 -17 -17 -16 -16 -16 -15 -15 -15 -15 -15 -15
-20 -21 -22 -23 -24 -24 -24 -24 -24 -23 -23 -22 -22 -20 -21 -21 -21 -21 -20 -19 -18 -18 -18 -18 -17 -17 -17 -17 -17 -17 -17 -17 -17 -17 -17 -16 -16 -16 -15 -15 -15 -15 -15 -15
-23 -24 -24 -25 -24 -24 -24 -23 -23 -23 -23 -22 -22 -21 -21 -21 -21 -20 -20 -19 -18 -18 -18 -18 -17 -17 -17 -17 -17 -17 -17 -17 -17 -17 -16 -16 -16 -16 -16 -16 -15 -15 -15 -15
-24 -24 -24 -25 -24 -24 -23 -23 -22 -22 -22 -22 -21 -21 -21 -21 -20 -19 -19 -20 -18 -18 -18 -17 -17 -17 -18 -18 -18 -18 -18 -16 -16 -17 -17 -16 -16 -16 -16 -15 -15 -15 -14 -14
-24 -24 -24 -24 -24 -23 -23 -22 -21 -21 -21 -21 -21 -21 -21 -20 -20 -20 -19 -20 -19 -18 -18 -19 -19 -18 -18 -18 -18 -18 -19 -18 -17 -16 -16 -16 -16 -15 -15 -15 -14 -14 -14 -14
-24 -24 -24 -23 -23 -23 -22 -22 -22 -21 -21 -21 -21 -21 -21 -20 -20 -20 -20 -20 -20 -19 -20 -19 -18 -18 -19 -19 -19 -18 -19 -18 -18 -16 -16 -15 -15 -15 -15 -14 -14 -14 -14 -14
-23 -24 -24 -23 -23 -22 -23 -22 -22 -21 -21 -21 -21 -21 -21 -20 -20 -20 -20 -20 -19 -19 -19 -18 -18 -18 -18 -18 -19 -19 -18 -18 -18 -17 -16 -16 -15 -15 -15 -15 -15 -15 -15 -15
-23 -23 -23 -23 -23 -23 -22 -22 -21 -21 -21 -21 -21 -21 -21 -21 -21 -20 -20 -20 -19 -19 -19 -18 -18 -18 -18 -18 -18 -18 -19 -18 -18 -18 -17 -16 -15 -15 -15 -16 -16 -16 -16 -16
-23 -23 -23 -23 -23 -22 -22 -21 -22 -22 -21 -21 -21 -21 -21 -21 -21 -21 -20 -20 -19 -19 -19 -18 -18 -18 -18 -18 -18 -18 -18 -18 -18 -17 -17 -17 -17 -17 -15 -16 -16 -16 -16 -16
-23 -23 -23 -23 -23 -23 -23 -22 -22 -21 -21 -21 -21 -21 -21 -20 -20 -20 -20 -20 -19 -19 -19 -19 -18 -18 -18 -18 -18 -18 -18 -18 -17 -17 -17 -17 -17 -18 -17 -16 -17 -17 -17 -17
-23 -22 -23 -23 -23 -23 -22 -22 -22 -22 -22 -21 -21 -21 -21 -20 -20 -20 -20 -20 -19 -19 -19 -19 -19 -18 -18 -18 -18 -18 -18 -18 -18 -17 -17 -17 -17 -17 -17 -17 -17 -17 -17 -16
-23 -22 -23 -23 -22 -22 -23 -22 -22 -22 -21 -21 -21 -21 -20 -20 -20 -20 -20 -20 -20 -20 -19 -19 -19 -19 -19 -18 -18 -18 -18 -18 -18 -18 -17 -17 -17 -17 -17 -17 -17 -17 -17 -17
-23 -23 -23 -22 -23 -22 -22 -22 -22 -21 -21 -21 -21 -21 -21 -21 -21 -21 -21 -21 -21 -21 -20 -20 -20 -19 -19 -19 -19 -19 -19 -18 -18 -18 -18 -18 -18 -18 -18 -18 -18 -18 -18 -18
-23 -23 -23 -23 -22 -22 -22 -22 -22 -21 -21 -21 -21 -21 -21 -22 -22 -22 -22 -22 -22 -22 -21 -21 -21 -21 -20 -20 -20 -20 -20 -20 -20 -20 -20 -20 -19 -19 -19 -19 -19 -18 -18 -18
-24 -23 -23 -23 -22 -22 -22 -22 -22 -21 -22 -22 -21 -21 -22 -22 -22 -22 -22 -22 -22 -22 -22 -22 -22 -22 -22 -22 -22 -22 -21 -21 -21 -21 -21 -21 -20 -20 -20 -20 -19 -19 -19 -19
-24 -24 -23 -23 -23 -22 -22 -22 -22 -22 -22 -22 -22 -22 -22 -23 -23 -23 -23 -23 -22 -22 -22 -22 -22 -22 -22 -22 -22 -22 -22 -22 -22 -22 -22 -21 -21 -21 -21 -21 -21 -21 -21 -20

GFSCGP_500_temp_111.txt.gz
Temp
-13 -13 -13 -13 -13 -13 -13 -13 -13 -14 -15 -14 -14 -12 -13 -15 -15 -15 -15 -15 -15 -14 -14 -14 -15 -15 -15 -15 -15 -15 -14 -14 -14 -13 -13 -13 -12 -14 -14 -14 -15 -16 -16 -15
-14 -13 -14 -14 -14 -14 -14 -14 -14 -15 -16 -15 -15 -12 -13 -15 -15 -15 -15 -15 -15 -15 -15 -14 -14 -15 -15 -15 -15 -15 -15 -15 -14 -14 -13 -13 -13 -14 -14 -15 -15 -15 -16 -15
-15 -15 -15 -16 -16 -16 -16 -16 -17 -17 -17 -16 -16 -14 -14 -15 -15 -15 -15 -15 -15 -14 -14 -14 -14 -14 -15 -15 -15 -15 -15 -15 -15 -15 -14 -13 -13 -13 -14 -13 -14 -15 -16 -15
-16 -16 -16 -17 -17 -17 -16 -18 -17 -17 -18 -17 -17 -16 -14 -15 -15 -15 -15 -15 -15 -15 -14 -14 -14 -14 -14 -14 -14 -14 -15 -15 -16 -16 -15 -14 -13 -13 -13 -14 -15 -15 -15 -15
-17 -17 -17 -18 -18 -18 -18 -18 -18 -18 -19 -18 -18 -17 -14 -15 -15 -15 -15 -15 -15 -15 -14 -14 -14 -14 -15 -15 -16 -16 -17 -16 -17 -16 -16 -14 -14 -13 -14 -15 -15 -15 -16 -15
-18 -18 -18 -17 -18 -18 -19 -19 -19 -19 -20 -19 -18 -18 -15 -16 -16 -15 -15 -15 -15 -16 -16 -17 -18 -19 -19 -19 -18 -18 -18 -18 -18 -18 -16 -15 -14 -14 -15 -15 -15 -15 -15 -15
-19 -19 -18 -19 -20 -20 -19 -19 -20 -19 -19 -18 -17 -17 -17 -16 -16 -16 -16 -16 -17 -19 -20 -19 -19 -19 -19 -19 -20 -20 -19 -19 -19 -18 -17 -16 -15 -15 -15 -15 -15 -15 -15 -15
-19 -19 -20 -20 -20 -20 -20 -20 -20 -19 -19 -18 -18 -18 -17 -17 -18 -20 -20 -20 -20 -19 -19 -19 -20 -19 -19 -19 -19 -19 -19 -19 -19 -18 -17 -17 -16 -16 -16 -15 -15 -15 -15 -15
-20 -20 -21 -21 -21 -20 -20 -20 -19 -19 -19 -18 -19 -19 -19 -20 -20 -21 -20 -19 -19 -19 -19 -19 -19 -19 -18 -18 -19 -19 -19 -19 -18 -18 -18 -17 -17 -17 -16 -15 -15 -15 -15 -15
-21 -21 -21 -21 -20 -20 -20 -20 -20 -20 -21 -21 -22 -22 -22 -21 -21 -21 -20 -19 -19 -18 -18 -18 -18 -17 -17 -18 -18 -18 -18 -18 -19 -18 -18 -18 -18 -17 -16 -16 -15 -15 -16 -16
-21 -21 -21 -20 -20 -20 -21 -21 -22 -22 -22 -23 -22 -22 -21 -21 -21 -21 -20 -19 -20 -19 -19 -18 -18 -18 -18 -17 -17 -17 -18 -18 -18 -18 -17 -17 -17 -17 -17 -16 -16 -16 -16 -16
-21 -21 -21 -21 -22 -22 -24 -24 -24 -23 -23 -23 -23 -22 -21 -21 -21 -20 -20 -20 -19 -19 -19 -18 -18 -17 -17 -17 -16 -17 -17 -17 -18 -17 -18 -17 -17 -17 -17 -17 -17 -16 -16 -16
-21 -22 -23 -24 -24 -24 -24 -24 -24 -23 -23 -23 -22 -21 -21 -21 -21 -21 -21 -20 -19 -19 -18 -18 -18 -18 -16 -17 -17 -17 -17 -17 -17 -17 -17 -17 -17 -17 -17 -17 -16 -16 -16 -16
-22 -24 -24 -24 -24 -24 -23 -23 -23 -22 -23 -22 -22 -21 -22 -21 -21 -20 -20 -20 -20 -19 -19 -19 -18 -17 -17 -17 -16 -16 -17 -17 -17 -17 -17 -17 -17 -16 -16 -16 -16 -16 -16 -16
-24 -24 -24 -24 -24 -23 -23 -23 -23 -22 -22 -21 -21 -21 -21 -21 -21 -20 -20 -20 -20 -20 -19 -18 -18 -18 -18 -18 -18 -18 -18 -17 -16 -17 -16 -17 -16 -16 -16 -16 -16 -16 -16 -15
-24 -24 -24 -23 -22 -23 -23 -23 -22 -21 -21 -21 -21 -21 -21 -20 -20 -20 -20 -20 -21 -20 -20 -20 -20 -19 -19 -19 -19 -18 -18 -17 -17 -16 -17 -17 -16 -16 -16 -16 -16 -16 -16 -15
-24 -24 -23 -23 -23 -23 -23 -22 -22 -21 -22 -21 -21 -21 -21 -20 -21 -20 -20 -20 -20 -20 -19 -20 -19 -18 -18 -18 -18 -18 -18 -18 -18 -18 -17 -16 -16 -15 -16 -15 -15 -15 -15 -15
-24 -23 -23 -23 -22 -23 -23 -22 -22 -22 -22 -21 -21 -21 -21 -21 -21 -20 -20 -20 -20 -19 -19 -19 -18 -18 -18 -18 -18 -18 -18 -18 -18 -18 -17 -16 -16 -15 -16 -14 -15 -15 -15 -15
-23 -23 -23 -22 -23 -23 -23 -23 -22 -22 -22 -22 -22 -21 -21 -21 -20 -20 -20 -20 -20 -19 -19 -19 -19 -19 -18 -18 -18 -19 -19 -19 -19 -18 -18 -18 -16 -16 -16 -16 -15 -15 -15 -16
-23 -23 -23 -23 -23 -23 -23 -23 -22 -22 -21 -22 -22 -21 -21 -20 -20 -20 -20 -20 -19 -19 -19 -19 -19 -18 -19 -18 -18 -18 -19 -18 -19 -18 -19 -19 -18 -18 -18 -16 -16 -16 -16 -16
-23 -23 -23 -23 -23 -23 -23 -23 -22 -22 -22 -22 -21 -21 -21 -20 -20 -20 -20 -20 -19 -19 -19 -19 -19 -19 -19 -19 -19 -18 -18 -18 -18 -18 -18 -19 -19 -19 -18 -18 -17 -18 -17 -17
-23 -23 -23 -23 -23 -23 -23 -23 -23 -23 -22 -21 -21 -21 -21 -20 -20 -20 -20 -20 -20 -20 -20 -19 -19 -19 -19 -19 -19 -19 -19 -19 -18 -18 -18 -18 -18 -18 -18 -17 -17 -17 -17 -17
-23 -23 -23 -23 -23 -23 -23 -23 -23 -22 -22 -21 -21 -21 -20 -21 -21 -21 -22 -22 -21 -21 -21 -21 -20 -20 -20 -20 -20 -20 -20 -19 -19 -19 -19 -19 -19 -19 -19 -18 -18 -18 -18 -18
-24 -23 -23 -23 -23 -23 -23 -22 -22 -22 -21 -21 -21 -21 -21 -21 -22 -22 -22 -22 -22 -22 -22 -22 -22 -22 -21 -21 -21 -22 -22 -21 -21 -21 -21 -21 -21 -21 -21 -20 -20 -20 -19 -19
-24 -24 -24 -23 -23 -23 -22 -22 -22 -22 -22 -22 -21 -21 -22 -22 -22 -23 -23 -22 -22 -22 -22 -22 -23 -22 -22 -22 -22 -22 -22 -22 -22 -22 -22 -21 -21 -21 -21 -21 -21 -21 -21 -21
-24 -24 -24 -24 -23 -22 -22 -22 -22 -22 -22 -22 -22 -22 -22 -22 -23 -23 -23 -23 -23 -23 -23 -23 -23 -23 -23 -22 -22 -22 -22 -22 -22 -22 -22 -22 -22 -22 -22 -22 -22 -21 -21 -21

GFSCGP_500_temp_114.txt.gz
Temp
-14 -14 -14 -14 -13 -13 -13 -13 -13 -13 -13 -13 -13 -12 -13 -13 -13 -13 -14 -14 -15 -15 -14 -15 -14 -14 -14 -14 -14 -14 -14 -14 -14 -14 -14 -14 -14 -14 -15 -14 -14 -14 -14 -14
-15 -15 -15 -14 -14 -14 -14 -14 -14 -14 -13 -13 -13 -11 -15 -14 -15 -15 -15 -15 -15 -15 -15 -15 -15 -15 -15 -15 -15 -15 -15 -15 -15 -14 -14 -14 -14 -14 -14 -14 -13 -14 -15 -15
-16 -16 -15 -15 -15 -15 -15 -15 -16 -16 -15 -15 -15 -12 -16 -14 -14 -15 -15 -16 -16 -16 -15 -15 -15 -15 -15 -15 -15 -15 -15 -15 -15 -15 -15 -15 -14 -14 -13 -13 -13 -13 -14 -14
-17 -17 -16 -16 -16 -16 -17 -17 -17 -17 -17 -16 -16 -14 -14 -16 -16 -15 -16 -16 -16 -16 -15 -15 -15 -15 -15 -15 -15 -15 -15 -15 -15 -15 -15 -15 -15 -14 -14 -14 -13 -14 -15 -15
-17 -17 -17 -18 -17 -17 -18 -17 -18 -18 -18 -17 -16 -18 -13 -16 -16 -16 -16 -16 -16 -15 -15 -15 -15 -14 -14 -14 -14 -14 -14 -14 -15 -15 -15 -15 -15 -14 -14 -14 -14 -13 -14 -14
-18 -18 -18 -18 -18 -18 -18 -18 -18 -19 -19 -18 -18 -19 -16 -17 -16 -17 -17 -16 -16 -15 -15 -15 -15 -14 -15 -15 -15 -14 -14 -14 -14 -14 -15 -15 -15 -15 -15 -14 -14 -14 -13 -14
-19 -19 -19 -20 -19 -19 -19 -19 -20 -20 -20 -19 -18 -18 -18 -17 -17 -16 -16 -16 -16 -16 -15 -15 -16 -16 -17 -18 -18 -18 -18 -18 -18 -18 -17 -16 -16 -16 -16 -15 -15 -14 -14 -14
-19 -19 -19 -20 -20 -20 -20 -20 -21 -20 -21 -22 -20 -18 -19 -18 -17 -17 -17 -17 -16 -16 -18 -18 -19 -18 -19 -18 -18 -18 -19 -18 -19 -19 -19 -19 -19 -18 -17 -16 -15 -14 -15 -15
-19 -20 -20 -21 -20 -21 -20 -21 -21 -21 -21 -20 -19 -19 -19 -18 -18 -18 -18 -19 -20 -19 -19 -18 -18 -18 -18 -18 -17 -18 -18 -18 -19 -19 -19 -20 -20 -20 -18 -17 -16 -16 -16 -15
-20 -21 -21 -21 -21 -21 -22 -21 -21 -20 -20 -20 -21 -20 -21 -20 -20 -20 -20 -20 -19 -19 -18 -17 -18 -18 -17 -17 -17 -18 -18 -18 -19 -19 -19 -20 -20 -19 -19 -18 -17 -17 -16 -16
-21 -22 -22 -22 -22 -21 -21 -21 -20 -21 -21 -22 -22 -22 -23 -22 -21 -20 -20 -20 -19 -19 -18 -18 -18 -18 -17 -17 -17 -18 -17 -18 -19 -19 -19 -19 -19 -19 -19 -18 -18 -17 -17 -16
-22 -22 -21 -21 -21 -21 -21 -22 -22 -23 -24 -23 -24 -22 -22 -21 -21 -21 -21 -20 -19 -19 -18 -18 -18 -18 -17 -17 -17 -17 -17 -17 -18 -18 -19 -19 -19 -19 -19 -19 -18 -17 -17 -16
-21 -21 -21 -22 -23 -23 -24 -24 -24 -24 -24 -23 -23 -22 -21 -21 -21 -21 -21 -21 -20 -19 -18 -18 -18 -18 -17 -17 -17 -17 -17 -17 -17 -18 -18 -18 -18 -18 -18 -17 -17 -17 -17 -17
-21 -21 -22 -23 -24 -24 -24 -24 -24 -23 -23 -23 -23 -21 -21 -21 -21 -21 -21 -21 -20 -19 -19 -18 -18 -18 -17 -18 -17 -17 -17 -17 -17 -17 -17 -17 -17 -18 -18 -17 -17 -17 -17 -16
-23 -23 -23 -24 -24 -24 -24 -24 -24 -23 -23 -22 -22 -21 -21 -22 -22 -21 -21 -21 -21 -20 -19 -18 -18 -18 -19 -19 -18 -18 -19 -17 -17 -17 -17 -17 -17 -17 -17 -17 -17 -17 -17 -16
-23 -23 -23 -23 -23 -23 -23 -24 -23 -23 -22 -21 -21 -21 -21 -21 -21 -21 -22 -21 -21 -21 -20 -20 -19 -18 -18 -18 -18 -18 -18 -18 -18 -17 -16 -16 -16 -16 -16 -16 -16 -16 -16 -16
-23 -24 -23 -23 -23 -23 -23 -23 -23 -22 -22 -22 -21 -21 -21 -21 -21 -21 -21 -21 -21 -21 -21 -20 -19 -19 -18 -18 -18 -18 -19 -18 -18 -17 -17 -16 -16 -15 -16 -16 -15 -15 -16 -15
-23 -23 -23 -23 -23 -23 -23 -22 -22 -22 -21 -22 -22 -21 -21 -21 -21 -21 -20 -20 -20 -20 -19 -19 -19 -19 -18 -18 -18 -19 -19 -18 -18 -18 -17 -17 -16 -16 -16 -16 -15 -15 -14 -15
-23 -23 -23 -22 -23 -22 -22 -22 -22 -22 -22 -21 -21 -21 -21 -21 -21 -20 -20 -20 -20 -20 -19 -19 -19 -19 -19 -18 -18 -18 -19 -19 -19 -19 -18 -17 -17 -17 -16 -16 -16 -16 -15 -15
-23 -23 -23 -23 -23 -22 -22 -23 -23 -22 -22 -22 -22 -21 -21 -21 -21 -20 -20 -20 -20 -20 -19 -19 -19 -19 -19 -19 -19 -18 -19 -19 -19 -19 -18 -18 -18 -17 -17 -17 -16 -16 -15 -16
-23 -23 -23 -23 -23 -23 -23 -23 -22 -22 -22 -22 -21 -21 -21 -21 -21 -20 -20 -20 -20 -20 -19 -19 -19 -19 -19 -19 -19 -19 -19 -19 -19 -19 -19 -19 -19 -18 -18 -18 -18 -18 -17 -17
-24 -23 -23 -23 -23 -23 -23 -23 -22 -22 -22 -22 -21 -21 -21 -21 -21 -21 -21 -21 -20 -20 -20 -19 -19 -19 -19 -19 -19 -20 -19 -19 -19 -19 -19 -19 -19 -19 -19 -20 -19 -19 -19 -18
-24 -23 -23 -23 -23 -23 -23 -23 -23 -23 -22 -22 -22 -22 -21 -21 -21 -21 -21 -21 -21 -21 -21 -20 -20 -20 -20 -20 -20 -21 -21 -21 -21 -20 -20 -20 -20 -20 -19 -19 -19 -18 -19 -19
-24 -23 -23 -23 -23 -23 -23 -23 -23 -22 -22 -22 -22 -22 -22 -22 -21 -22 -22 -22 -22 -22 -22 -21 -22 -22 -22 -22 -22 -22 -22 -22 -22 -22 -21 -21 -21 -21 -21 -21 -21 -20 -20 -20
-24 -24 -23 -23 -23 -23 -23 -23 -23 -22 -22 -22 -21 -21 -21 -22 -22 -22 -22 -22 -22 -22 -22 -22 -23 -23 -23 -22 -22 -22 -22 -22 -22 -22 -22 -22 -22 -22 -21 -21 -21 -21 -21 -21
-25 -24 -24 -23 -23 -23 -23 -23 -23 -22 -22 -22 -21 -21 -21 -22 -22 -22 -23 -23 -23 -23 -23 -23 -23 -23 -23 -23 -23 -23 -23 -23 -23 -23 -22 -22 -22 -22 -22 -22 -22 -22 -22 -22

GFSCGP_500_temp_117.txt.gz
Temp
-13 -13 -13 -14 -14 -13 -13 -14 -14 -14 -14 -14 -13 -13 -13 -14 -14 -13 -13 -13 -14 -14 -14 -14 -14 -14 -14 -14 -14 -14 -14 -14 -13 -14 -14 -14 -14 -15 -14 -15 -14 -14 -15 -15
-14 -13 -14 -14 -14 -14 -15 -15 -15 -15 -15 -14 -14 -14 -14 -14 -14 -14 -14 -14 -14 -14 -15 -15 -14 -14 -14 -14 -14 -14 -15 -14 -14 -14 -14 -14 -14 -14 -14 -15 -14 -14 -14 -14
-15 -15 -15 -14 -15 -15 -15 -16 -16 -16 -15 -16 -15 -15 -16 -16 -15 -15 -14 -14 -15 -15 -15 -15 -15 -15 -14 -14 -15 -15 -15 -15 -15 -15 -15 -15 -15 -14 -14 -14 -14 -14 -14 -13
-16 -17 -16 -17 -16 -17 -16 -17 -16 -16 -17 -16 -17 -16 -16 -17 -18 -18 -15 -14 -15 -15 -15 -15 -15 -15 -15 -15 -15 -15 -15 -15 -15 -15 -15 -15 -15 -15 -15 -14 -14 -14 -14 -13
-17 -17 -16 -17 -18 -18 -17 -18 -18 -18 -18 -18 -16 -20 -16 -19 -20 -21 -16 -16 -17 -16 -16 -16 -16 -16 -16 -16 -15 -15 -15 -15 -15 -15 -15 -15 -15 -15 -15 -14 -14 -14 -14 -14
-18 -19 -18 -18 -18 -18 -18 -19 -18 -19 -19 -18 -17 -20 -16 -19 -18 -20 -19 -18 -17 -17 -17 -16 -16 -16 -16 -16 -15 -15 -15 -15 -15 -15 -15 -15 -15 -15 -15 -14 -14 -14 -14 -14
-19 -18 -18 -18 -19 -19 -19 -20 -19 -19 -22 -19 -20 -21 -21 -19 -18 -19 -20 -19 -18 -17 -16 -16 -16 -15 -15 -15 -14 -14 -14 -14 -14 -14 -14 -14 -14 -14 -14 -14 -14 -14 -14 -14
-19 -19 -19 -18 -19 -20 -20 -20 -20 -20 -22 -22 -22 -20 -22 -19 -18 -18 -18 -18 -17 -17 -16 -16 -16 -16 -15 -15 -15 -15 -16 -16 -17 -17 -17 -17 -17 -16 -15 -14 -14 -14 -14 -15
-20 -19 -19 -19 -19 -19 -20 -20 -21 -21 -21 -21 -20 -20 -22 -19 -19 -19 -18 -18 -17 -17 -17 -17 -18 -18 -18 -18 -17 -17 -18 -18 -18 -18 -18 -18 -18 -18 -18 -17 -16 -16 -15 -14
-20 -20 -21 -20 -19 -20 -21 -22 -21 -21 -21 -22 -22 -22 -22 -21 -21 -20 -20 -20 -20 -20 -20 -19 -19 -18 -17 -17 -17 -16 -17 -17 -17 -18 -18 -18 -18 -18 -19 -19 -19 -19 -18 -16
-21 -20 -21 -20 -20 -21 -21 -21 -22 -21 -21 -21 -23 -22 -21 -22 -23 -23 -22 -21 -21 -20 -19 -19 -18 -18 -17 -17 -17 -16 -17 -17 -17 -18 -18 -18 -18 -18 -19 -20 -21 -21 -19 -18
-21 -21 -21 -21 -21 -21 -21 -21 -21 -21 -22 -24 -24 -23 -22 -23 -22 -22 -21 -21 -21 -20 -19 -19 -18 -18 -18 -18 -17 -16 -16 -17 -17 -17 -18 -18 -19 -19 -20 -21 -21 -20 -19 -18
-21 -21 -22 -21 -21 -22 -22 -22 -23 -23 -24 -24 -24 -23 -23 -22 -22 -21 -21 -21 -21 -21 -19 -19 -18 -18 -18 -18 -17 -17 -16 -17 -17 -16 -17 -18 -19 -19 -19 -20 -20 -19 -19 -18
-23 -22 -21 -21 -22 -22 -23 -23 -23 -24 -24 -24 -24 -23 -22 -22 -22 -21 -21 -21 -21 -21 -20 -19 -19 -18 -18 -18 -18 -17 -17 -17 -17 -16 -16 -17 -18 -19 -19 -19 -18 -18 -18 -18
-22 -22 -22 -22 -23 -23 -24 -24 -24 -24 -24 -23 -23 -23 -22 -22 -22 -22 -22 -21 -21 -21 -20 -19 -18 -19 -19 -19 -18 -18 -17 -17 -17 -16 -16 -17 -17 -17 -18 -18 -18 -18 -18 -17
-23 -23 -23 -23 -23 -23 -24 -24 -24 -23 -23 -23 -23 -22 -22 -22 -22 -22 -22 -22 -21 -22 -22 -20 -20 -19 -19 -18 -19 -19 -18 -18 -17 -17 -16 -16 -16 -17 -17 -17 -18 -17 -17 -17
-23 -23 -23 -23 -23 -23 -23 -23 -23 -23 -23 -22 -22 -22 -22 -22 -22 -22 -22 -21 -21 -22 -21 -21 -20 -19 -19 -18 -18 -18 -19 -18 -18 -17 -16 -16 -16 -16 -16 -17 -17 -17 -17 -17
-24 -23 -24 -24 -23 -23 -22 -23 -23 -22 -22 -22 -22 -22 -22 -22 -22 -22 -22 -22 -22 -22 -21 -21 -19 -19 -19 -19 -18 -19 -19 -19 -19 -19 -18 -17 -17 -17 -16 -15 -17 -17 -17 -16
-24 -24 -24 -23 -23 -23 -22 -22 -22 -22 -22 -21 -22 -22 -22 -22 -22 -22 -22 -21 -22 -21 -21 -20 -19 -19 -19 -19 -19 -19 -18 -19 -19 -19 -18 -17 -17 -17 -17 -17 -16 -16 -15 -16
-24 -24 -23 -24 -23 -23 -23 -23 -22 -22 -22 -22 -21 -22 -21 -21 -21 -21 -21 -21 -21 -20 -20 -20 -20 -19 -19 -19 -19 -19 -19 -18 -18 -18 -18 -19 -18 -18 -17 -17 -16 -17 -16 -15
-24 -24 -23 -24 -24 -23 -23 -23 -23 -22 -22 -22 -22 -22 -21 -21 -21 -21 -21 -21 -21 -21 -20 -20 -20 -20 -19 -19 -19 -19 -19 -19 -19 -19 -19 -19 -19 -20 -19 -18 -17 -18 -17 -17
-24 -24 -23 -23 -23 -23 -23 -23 -23 -22 -22 -22 -22 -21 -21 -21 -22 -21 -21 -21 -21 -21 -21 -21 -21 -20 -21 -21 -20 -20 -20 -21 -20 -20 -20 -20 -20 -19 -19 -20 -20 -19 -19 -19
-24 -24 -23 -23 -23 -23 -23 -23 -22 -22 -22 -22 -22 -22 -21 -22 -22 -21 -21 -21 -22 -22 -21 -21 -21 -22 -22 -21 -22 -22 -22 -21 -21 -21 -21 -21 -21 -21 -20 -20 -20 -20 -20 -20
-24 -23 -23 -23 -22 -23 -23 -23 -23 -23 -23 -22 -22 -22 -22 -22 -22 -22 -22 -22 -22 -22 -22 -22 -22 -22 -22 -22 -22 -22 -22 -22 -22 -22 -22 -22 -22 -21 -21 -21 -21 -21 -21 -21
-24 -23 -23 -23 -23 -23 -22 -23 -23 -23 -22 -22 -22 -22 -22 -22 -22 -22 -22 -22 -22 -22 -22 -22 -22 -23 -23 -23 -23 -23 -23 -23 -23 -23 -23 -22 -22 -22 -22 -22 -22 -22 -21 -21
-24 -24 -23 -23 -23 -23 -23 -23 -23 -23 -23 -22 -22 -22 -22 -22 -22 -22 -22 -22 -23 -23 -23 -23 -23 -23 -23 -23 -23 -23 -23 -23 -23 -23 -23 -23 -23 -23 -23 -22 -22 -22 -22 -22

GFSCGP_500_temp_120.txt.gz
Temp
-13 -13 -13 -13 -13 -12 -12 -13 -13 -14 -15 -16 -14 -14 -13 -14 -14 -15 -15 -15 -15 -15 -13 -13 -14 -14 -14 -14 -14 -14 -13 -13 -13 -13 -13 -13 -13 -13 -13 -14 -13 -12 -14 -15
-13 -13 -13 -13 -13 -13 -14 -14 -14 -13 -15 -16 -14 -15 -14 -15 -15 -15 -16 -15 -15 -15 -14 -14 -14 -14 -14 -14 -14 -14 -14 -14 -13 -13 -13 -14 -14 -14 -13 -13 -14 -14 -14 -15
-14 -14 -14 -14 -14 -14 -15 -16 -16 -16 -15 -15 -16 -15 -16 -16 -16 -18 -19 -19 -17 -16 -15 -16 -16 -15 -15 -15 -15 -15 -14 -14 -14 -14 -14 -14 -14 -14 -14 -14 -14 -15 -14 -14
-14 -16 -16 -16 -15 -17 -16 -17 -17 -17 -17 -17 -16 -17 -17 -16 -17 -19 -20 -19 -16 -16 -17 -18 -17 -16 -16 -15 -15 -14 -14 -15 -15 -14 -14 -14 -14 -14 -14 -14 -14 -14 -14 -14
-16 -16 -17 -16 -17 -18 -18 -18 -18 -18 -18 -18 -16 -19 -18 -17 -18 -19 -18 -17 -18 -19 -18 -18 -18 -17 -17 -16 -16 -15 -14 -14 -15 -15 -15 -15 -15 -15 -15 -15 -15 -14 -14 -14
-17 -18 -17 -18 -18 -18 -18 -18 -19 -19 -19 -19 -18 -19 -17 -19 -19 -19 -19 -20 -20 -19 -19 -18 -17 -17 -17 -17 -16 -16 -16 -15 -16 -15 -15 -15 -15 -15 -15 -15 -15 -15 -14 -15
-18 -18 -18 -18 -18 -19 -19 -19 -19 -19 -19 -20 -18 -21 -20 -20 -19 -19 -20 -21 -21 -20 -19 -19 -18 -17 -17 -17 -16 -16 -15 -15 -15 -15 -15 -15 -15 -15 -15 -15 -15 -15 -15 -15
-20 -20 -20 -20 -19 -19 -19 -20 -21 -20 -20 -19 -19 -20 -21 -21 -18 -20 -20 -20 -21 -20 -19 -18 -17 -17 -16 -16 -16 -15 -15 -15 -15 -14 -14 -15 -15 -15 -15 -15 -15 -15 -15 -15
-20 -19 -20 -20 -20 -20 -20 -20 -21 -21 -20 -20 -19 -20 -21 -19 -20 -21 -21 -22 -21 -21 -20 -19 -18 -17 -18 -17 -17 -17 -17 -16 -16 -17 -17 -17 -17 -16 -16 -16 -16 -15 -15 -15
-20 -20 -20 -21 -21 -20 -20 -21 -21 -21 -21 -21 -21 -22 -22 -22 -22 -22 -22 -22 -22 -21 -21 -20 -20 -20 -19 -19 -18 -17 -17 -17 -16 -16 -16 -17 -17 -17 -17 -18 -18 -17 -17 -16
-21 -21 -20 -20 -21 -21 -21 -21 -21 -22 -22 -22 -21 -22 -23 -22 -22 -22 -22 -22 -22 -21 -21 -20 -20 -19 -19 -19 -18 -18 -17 -16 -15 -15 -16 -16 -17 -17 -18 -18 -18 -18 -18 -18
-21 -20 -20 -20 -21 -21 -21 -22 -22 -22 -22 -22 -23 -22 -23 -23 -22 -22 -22 -22 -22 -21 -21 -20 -20 -19 -19 -18 -18 -18 -17 -16 -16 -16 -16 -16 -17 -17 -18 -18 -18 -18 -19 -19
-20 -20 -20 -21 -22 -22 -22 -22 -22 -23 -24 -23 -24 -23 -23 -23 -23 -23 -22 -22 -21 -21 -21 -20 -20 -19 -19 -18 -18 -17 -17 -17 -16 -16 -16 -16 -17 -17 -19 -19 -18 -19 -19 -19
-21 -21 -21 -22 -22 -22 -22 -24 -24 -23 -24 -24 -24 -23 -23 -23 -23 -22 -22 -22 -22 -21 -21 -21 -20 -19 -18 -19 -18 -18 -18 -17 -17 -16 -16 -17 -17 -17 -18 -18 -18 -19 -19 -19
-21 -21 -22 -22 -22 -22 -22 -23 -24 -24 -24 -24 -24 -24 -23 -23 -22 -22 -22 -22 -21 -22 -21 -21 -20 -19 -19 -19 -19 -18 -18 -18 -17 -17 -17 -16 -16 -17 -17 -18 -18 -18 -19 -18
-22 -22 -22 -23 -22 -23 -23 -24 -24 -24 -24 -24 -23 -23 -23 -22 -22 -22 -22 -22 -21 -21 -21 -21 -21 -21 -20 -19 -19 -19 -19 -18 -18 -18 -17 -17 -16 -16 -17 -17 -18 -18 -18 -17
-22 -22 -22 -23 -23 -23 -23 -23 -23 -23 -23 -23 -23 -23 -22 -22 -22 -22 -22 -22 -21 -22 -22 -21 -22 -21 -20 -19 -19 -19 -19 -19 -19 -18 -17 -17 -17 -17 -17 -17 -17 -18 -18 -18
-22 -22 -23 -23 -23 -23 -23 -23 -23 -23 -23 -22 -22 -22 -22 -22 -22 -22 -22 -22 -22 -21 -21 -22 -21 -21 -20 -20 -19 -19 -19 -19 -19 -19 -18 -17 -17 -17 -17 -17 -17 -17 -17 -17
-23 -23 -23 -23 -24 -23 -23 -23 -23 -22 -22 -22 -22 -22 -22 -22 -22 -22 -22 -22 -22 -22 -22 -21 -21 -21 -20 -20 -19 -19 -19 -19 -19 -19 -19 -19 -18 -17 -18 -18 -17 -17 -17 -17
-23 -24 -24 -24 -24 -23 -22 -23 -23 -22 -22 -22 -22 -21 -22 -22 -22 -22 -22 -22 -22 -22 -22 -21 -21 -21 -20 -20 -20 -20 -20 -20 -20 -20 -19 -19 -19 -19 -18 -18 -18 -18 -18 -17
-24 -24 -24 -24 -24 -23 -23 -23 -23 -23 -22 -22 -22 -22 -22 -22 -22 -22 -22 -22 -22 -22 -22 -22 -21 -21 -21 -21 -21 -21 -21 -21 -21 -20 -20 -20 -20 -20 -19 -19 -19 -19 -19 -18
-24 -24 -24 -24 -24 -23 -23 -23 -23 -22 -22 -22 -22 -22 -22 -22 -22 -22 -22 -22 -22 -22 -22 -22 -22 -22 -22 -22 -22 -22 -22 -22 -22 -21 -21 -21 -21 -21 -21 -21 -21 -20 -20 -20
-24 -24 -24 -24 -23 -23 -23 -23 -23 -23 -22 -22 -22 -22 -22 -22 -22 -22 -22 -22 -22 -23 -23 -22 -22 -23 -23 -22 -22 -22 -22 -22 -22 -22 -22 -22 -22 -21 -21 -21 -21 -21 -21 -22
-25 -24 -24 -24 -23 -23 -23 -23 -23 -23 -23 -23 -22 -22 -22 -22 -22 -23 -22 -22 -23 -23 -23 -23 -23 -23 -23 -23 -22 -22 -22 -22 -22 -22 -22 -22 -22 -21 -22 -21 -21 -21 -21 -21
-25 -25 -24 -24 -24 -23 -23 -22 -23 -23 -23 -23 -22 -22 -22 -22 -23 -22 -23 -23 -23 -22 -22 -22 -22 -23 -23 -23 -23 -23 -23 -23 -23 -23 -23 -23 -23 -23 -23 -22 -22 -22 -22 -22
-25 -25 -24 -24 -23 -24 -23 -23 -23 -22 -23 -23 -22 -22 -22 -22 -22 -22 -22 -22 -22 -23 -23 -23 -23 -23 -23 -23 -23 -23 -23 -23 -23 -23 -23 -23 -23 -23 -23 -23 -22 -22 -22 -22

GFSCGP_500_temp_123.txt.gz
Temp
-13 -13 -13 -14 -14 -13 -13 -13 -13 -13 -13 -14 -14 -12 -13 -14 -14 -15 -18 -18 -17 -16 -14 -11 -13 -15 -15 -15 -14 -14 -14 -14 -13 -13 -14 -13 -13 -13 -13 -12 -13 -13 -13 -12
-13 -13 -14 -14 -14 -14 -14 -14 -13 -13 -15 -15 -14 -13 -14 -15 -16 -18 -17 -17 -17 -16 -16 -15 -15 -16 -16 -16 -16 -15 -14 -14 -14 -14 -14 -14 -14 -13 -13 -13 -13 -13 -13 -13
-14 -14 -14 -14 -14 -14 -14 -14 -15 -15 -15 -15 -15 -14 -15 -15 -17 -19 -18 -17 -17 -17 -17 -17 -17 -17 -18 -18 -17 -16 -16 -15 -14 -14 -14 -14 -14 -14 -13 -13 -13 -13 -12 -13
-14 -15 -15 -15 -15 -16 -14 -17 -16 -16 -15 -16 -16 -17 -16 -17 -18 -19 -19 -18 -18 -18 -18 -19 -20 -19 -19 -19 -18 -18 -16 -16 -16 -15 -14 -14 -14 -14 -14 -14 -13 -13 -13 -13
-15 -15 -15 -15 -16 -17 -16 -17 -17 -18 -18 -18 -14 -19 -19 -18 -19 -18 -17 -18 -18 -19 -19 -20 -19 -19 -19 -18 -18 -18 -17 -16 -16 -16 -15 -14 -14 -14 -14 -14 -14 -14 -14 -14
-16 -16 -16 -16 -15 -17 -17 -17 -18 -19 -19 -19 -18 -20 -20 -19 -18 -18 -18 -18 -19 -19 -19 -19 -19 -19 -19 -19 -18 -18 -17 -17 -16 -16 -16 -15 -15 -15 -15 -15 -15 -14 -14 -14
-16 -16 -17 -17 -17 -17 -18 -19 -19 -19 -19 -19 -19 -20 -21 -20 -19 -19 -19 -19 -20 -20 -20 -20 -20 -20 -19 -18 -18 -17 -17 -17 -17 -17 -16 -16 -15 -15 -15 -16 -16 -16 -15 -15
-17 -16 -19 -18 -18 -18 -18 -20 -21 -21 -20 -20 -20 -20 -21 -20 -19 -21 -21 -21 -21 -21 -20 -20 -20 -19 -18 -18 -18 -17 -16 -16 -16 -16 -16 -16 -16 -16 -15 -15 -16 -16 -15 -15
-18 -17 -19 -20 -21 -20 -20 -20 -21 -22 -21 -21 -20 -21 -21 -19 -20 -21 -21 -21 -21 -21 -21 -21 -20 -20 -19 -19 -18 -18 -17 -17 -16 -16 -15 -15 -15 -15 -15 -16 -16 -16 -16 -16
-19 -19 -20 -21 -21 -21 -21 -21 -21 -22 -22 -21 -20 -22 -22 -22 -22 -22 -22 -22 -22 -22 -21 -22 -21 -21 -20 -20 -19 -19 -19 -18 -18 -17 -17 -16 -16 -16 -16 -17 -16 -16 -16 -16
-20 -20 -20 -21 -21 -21 -22 -21 -21 -21 -21 -22 -21 -21 -23 -23 -23 -22 -22 -23 -23 -23 -22 -22 -21 -20 -20 -19 -19 -19 -18 -18 -18 -17 -17 -16 -15 -16 -16 -17 -17 -17 -18 -18
-21 -21 -21 -21 -21 -21 -21 -21 -22 -22 -22 -22 -22 -21 -23 -23 -23 -23 -23 -23 -23 -22 -22 -21 -21 -21 -20 -20 -19 -18 -18 -18 -17 -17 -16 -15 -15 -16 -16 -17 -17 -18 -18 -18
-21 -21 -21 -20 -21 -21 -21 -21 -22 -22 -22 -22 -23 -22 -24 -23 -24 -24 -23 -23 -23 -22 -22 -21 -21 -21 -20 -19 -19 -19 -18 -17 -17 -17 -16 -15 -15 -16 -16 -17 -17 -18 -18 -19
-22 -21 -21 -21 -21 -21 -21 -22 -22 -23 -23 -24 -24 -24 -24 -24 -24 -24 -23 -23 -22 -22 -22 -21 -21 -21 -20 -20 -20 -19 -19 -18 -18 -17 -16 -15 -15 -16 -17 -16 -17 -18 -19 -19
-22 -21 -21 -21 -21 -22 -21 -22 -22 -24 -24 -24 -24 -24 -24 -24 -23 -23 -23 -22 -22 -22 -22 -21 -21 -21 -21 -20 -20 -20 -20 -19 -18 -18 -16 -15 -15 -16 -17 -17 -17 -17 -18 -19
-22 -21 -21 -22 -22 -22 -22 -22 -23 -23 -24 -24 -24 -23 -24 -23 -23 -23 -23 -22 -22 -22 -22 -21 -22 -21 -21 -21 -21 -20 -20 -19 -19 -18 -18 -17 -17 -17 -16 -17 -17 -18 -18 -18
-22 -22 -22 -22 -22 -22 -23 -23 -24 -24 -24 -23 -23 -23 -23 -23 -23 -22 -22 -22 -22 -22 -22 -21 -21 -22 -22 -21 -21 -20 -20 -20 -20 -19 -18 -18 -17 -17 -17 -18 -17 -17 -17 -17
-22 -22 -22 -22 -22 -23 -23 -23 -23 -23 -23 -23 -22 -22 -22 -22 -22 -22 -22 -22 -22 -22 -22 -21 -21 -21 -21 -21 -21 -20 -20 -20 -19 -19 -19 -19 -18 -18 -18 -18 -18 -17 -17 -17
-23 -23 -22 -23 -23 -23 -23 -23 -23 -23 -23 -23 -22 -22 -22 -22 -22 -22 -22 -22 -22 -22 -22 -21 -21 -21 -21 -21 -21 -20 -20 -21 -21 -21 -20 -19 -19 -19 -19 -19 -18 -17 -18 -18
-23 -23 -23 -23 -23 -23 -23 -23 -23 -23 -23 -23 -22 -22 -22 -22 -22 -22 -22 -22 -22 -22 -22 -22 -22 -22 -22 -22 -22 -21 -22 -22 -22 -21 -21 -21 -20 -20 -19 -19 -19 -19 -19 -18
-23 -23 -23 -24 -24 -23 -23 -23 -23 -23 -23 -23 -22 -22 -22 -22 -22 -22 -22 -22 -22 -22 -22 -22 -22 -22 -22 -22 -22 -22 -22 -22 -22 -22 -22 -22 -21 -21 -21 -21 -21 -20 -19 -19
-24 -24 -24 -24 -24 -23 -23 -23 -23 -23 -23 -23 -22 -22 -22 -22 -22 -22 -22 -22 -22 -22 -22 -23 -23 -23 -23 -22 -22 -22 -22 -22 -22 -22 -22 -22 -21 -21 -21 -21 -21 -21 -21 -21
-24 -24 -24 -24 -24 -24 -23 -24 -23 -23 -23 -23 -23 -23 -23 -22 -22 -22 -22 -23 -23 -23 -23 -23 -23 -23 -23 -23 -23 -23 -23 -22 -22 -22 -22 -22 -22 -22 -21 -21 -21 -21 -21 -21
-24 -24 -24 -24 -24 -24 -24 -23 -23 -23 -23 -23 -23 -23 -23 -23 -23 -23 -23 -23 -23 -23 -23 -23 -23 -23 -23 -23 -23 -23 -23 -23 -22 -23 -23 -23 -23 -23 -22 -22 -22 -22 -22 -22
-24 -25 -25 -25 -25 -24 -24 -23 -23 -23 -23 -23 -23 -23 -23 -23 -23 -23 -23 -23 -23 -23 -23 -23 -23 -23 -23 -23 -23 -23 -23 -23 -23 -23 -23 -23 -23 -23 -23 -23 -23 -23 -23 -22
-24 -25 -25 -25 -25 -25 -24 -24 -23 -23 -23 -23 -23 -23 -23 -23 -23 -23 -23 -23 -23 -23 -23 -23 -23 -23 -23 -23 -23 -23 -23 -23 -23 -23 -23 -23 -23 -23 -23 -23 -23 -23 -23 -23

GFSCGP_500_temp_129.txt.gz
Temp
-14 -14 -15 -14 -14 -14 -14 -14 -13 -13 -13 -13 -14 -14 -14 -14 -14 -14 -14 -14 -13 -13 -13 -13 -12 -12 -13 -13 -14 -14 -14 -14 -15 -16 -16 -16 -16 -14 -15 -14 -13 -13 -13 -13
-14 -14 -14 -14 -14 -14 -14 -14 -13 -13 -13 -14 -14 -14 -14 -14 -14 -15 -15 -15 -16 -15 -15 -15 -15 -15 -15 -15 -15 -16 -16 -16 -16 -16 -16 -17 -17 -16 -15 -15 -15 -14 -14 -14
-14 -14 -14 -14 -14 -14 -14 -14 -14 -14 -14 -14 -14 -14 -14 -14 -15 -15 -16 -16 -16 -16 -16 -16 -16 -16 -16 -16 -16 -16 -17 -17 -17 -17 -17 -17 -17 -17 -17 -16 -15 -15 -15 -14
-14 -15 -15 -15 -15 -15 -14 -15 -15 -15 -14 -14 -14 -14 -14 -14 -15 -15 -16 -17 -17 -17 -17 -17 -17 -17 -17 -17 -18 -18 -18 -17 -17 -17 -17 -17 -17 -17 -17 -16 -16 -16 -16 -15
-15 -15 -15 -15 -15 -15 -15 -15 -15 -15 -15 -15 -15 -16 -14 -15 -15 -16 -16 -17 -18 -18 -18 -19 -19 -19 -19 -19 -19 -18 -18 -18 -18 -18 -18 -18 -18 -17 -17 -17 -17 -16 -17 -16
-16 -15 -15 -16 -16 -16 -16 -16 -16 -16 -16 -15 -16 -17 -14 -15 -16 -17 -18 -19 -20 -20 -20 -20 -20 -19 -19 -19 -18 -18 -18 -19 -19 -18 -18 -18 -17 -17 -17 -17 -17 -17 -17 -17
-16 -16 -17 -17 -16 -17 -17 -17 -17 -16 -17 -16 -16 -16 -15 -16 -17 -18 -19 -19 -20 -20 -20 -20 -19 -19 -19 -19 -19 -19 -19 -19 -18 -18 -18 -17 -17 -17 -17 -17 -17 -17 -17 -17
-17 -16 -17 -18 -18 -18 -18 -18 -19 -18 -18 -17 -17 -17 -17 -18 -19 -20 -20 -20 -20 -20 -20 -20 -20 -20 -20 -20 -20 -20 -19 -19 -18 -18 -17 -17 -16 -16 -16 -17 -17 -17 -17 -17
-18 -17 -18 -19 -19 -19 -19 -19 -20 -21 -20 -20 -18 -18 -19 -19 -20 -20 -20 -20 -20 -20 -20 -21 -21 -21 -21 -20 -20 -19 -19 -19 -19 -19 -19 -18 -17 -16 -16 -16 -16 -16 -17 -17
-19 -19 -19 -19 -20 -20 -21 -21 -21 -21 -22 -21 -19 -19 -20 -20 -21 -21 -21 -21 -21 -21 -21 -21 -21 -21 -21 -20 -20 -20 -19 -19 -19 -19 -18 -17 -18 -18 -17 -17 -16 -16 -16 -16
-20 -20 -19 -20 -20 -21 -21 -21 -22 -23 -22 -22 -21 -20 -20 -21 -21 -21 -22 -22 -22 -22 -22 -22 -22 -22 -21 -21 -20 -20 -19 -19 -19 -18 -18 -17 -17 -17 -17 -17 -17 -16 -16 -15
-21 -21 -20 -20 -21 -21 -21 -22 -22 -23 -22 -22 -22 -19 -21 -22 -23 -23 -23 -22 -23 -23 -23 -23 -23 -22 -21 -21 -21 -20 -20 -20 -19 -18 -18 -17 -17 -16 -17 -17 -17 -16 -17 -16
-21 -20 -21 -21 -21 -22 -22 -22 -22 -23 -22 -21 -22 -20 -22 -22 -23 -23 -23 -24 -24 -24 -24 -23 -23 -22 -22 -21 -21 -20 -20 -20 -20 -19 -18 -17 -17 -17 -17 -17 -16 -16 -16 -17
-22 -21 -21 -21 -22 -22 -22 -22 -22 -22 -21 -21 -21 -21 -22 -22 -23 -24 -24 -24 -24 -24 -23 -23 -22 -22 -22 -21 -21 -21 -20 -20 -20 -19 -18 -18 -17 -17 -17 -17 -17 -17 -17 -17
-22 -22 -22 -22 -22 -22 -22 -21 -22 -22 -22 -21 -22 -22 -22 -23 -23 -23 -24 -24 -24 -23 -23 -23 -22 -22 -22 -22 -21 -20 -21 -21 -21 -20 -19 -18 -18 -18 -18 -17 -17 -17 -18 -17
-22 -23 -22 -22 -22 -22 -21 -21 -22 -22 -22 -22 -22 -22 -23 -23 -23 -23 -23 -23 -23 -23 -23 -22 -22 -22 -22 -22 -21 -21 -21 -21 -21 -20 -20 -20 -19 -18 -18 -18 -18 -17 -18 -18
-23 -22 -23 -22 -22 -22 -21 -22 -22 -22 -22 -22 -23 -23 -23 -22 -22 -22 -22 -23 -23 -23 -23 -22 -22 -22 -22 -22 -21 -21 -22 -21 -22 -21 -20 -20 -20 -20 -20 -19 -19 -19 -18 -18
-22 -23 -23 -22 -22 -22 -22 -22 -23 -22 -23 -23 -23 -23 -22 -22 -22 -22 -22 -22 -22 -23 -22 -22 -22 -22 -22 -21 -22 -23 -23 -22 -22 -22 -21 -21 -21 -20 -20 -20 -20 -20 -20 -19
-23 -23 -23 -23 -22 -22 -22 -23 -23 -23 -23 -23 -23 -23 -22 -22 -22 -22 -22 -22 -23 -22 -22 -22 -22 -22 -22 -22 -23 -23 -22 -22 -22 -22 -22 -21 -21 -21 -21 -21 -21 -20 -20 -20
-23 -23 -23 -23 -22 -22 -23 -23 -24 -24 -24 -23 -23 -23 -22 -22 -22 -22 -23 -23 -23 -22 -22 -22 -22 -22 -22 -23 -23 -23 -22 -23 -23 -23 -22 -22 -22 -22 -22 -22 -22 -21 -21 -21
-23 -23 -23 -23 -23 -23 -23 -24 -24 -24 -23 -23 -23 -23 -23 -22 -22 -23 -23 -23 -23 -22 -22 -22 -22 -22 -23 -23 -23 -23 -23 -23 -23 -23 -22 -22 -22 -22 -22 -22 -22 -22 -22 -22
-24 -23 -23 -23 -24 -23 -24 -24 -24 -24 -24 -23 -23 -23 -23 -22 -23 -23 -23 -23 -23 -23 -23 -22 -22 -23 -23 -23 -23 -23 -23 -23 -23 -23 -22 -22 -22 -22 -22 -22 -22 -22 -22 -22
-23 -23 -23 -24 -24 -24 -24 -24 -24 -24 -24 -24 -23 -23 -23 -23 -23 -23 -23 -23 -23 -23 -22 -23 -23 -23 -23 -23 -23 -23 -23 -23 -24 -23 -23 -23 -23 -23 -23 -23 -23 -23 -23 -23
-23 -23 -24 -24 -24 -24 -24 -24 -24 -24 -24 -24 -24 -23 -23 -23 -23 -23 -23 -23 -23 -23 -23 -23 -23 -23 -24 -24 -24 -24 -24 -23 -24 -23 -23 -23 -23 -23 -23 -23 -23 -23 -23 -23
-23 -24 -24 -24 -25 -25 -24 -24 -24 -25 -25 -24 -24 -24 -23 -24 -23 -23 -23 -23 -23 -23 -23 -24 -23 -24 -24 -24 -24 -24 -24 -24 -24 -24 -24 -24 -24 -24 -24 -24 -24 -24 -24 -24
-24 -24 -24 -24 -24 -24 -25 -25 -25 -24 -24 -24 -24 -24 -24 -24 -24 -24 -24 -23 -23 -23 -23 -24 -24 -24 -24 -24 -24 -24 -24 -24 -24 -24 -24 -24 -24 -24 -24 -24 -24 -24 -23 -24

GFSCGP_500_temp_132.txt.gz
Temp
-13 -13 -15 -14 -14 -13 -14 -14 -13 -14 -14 -13 -14 -13 -13 -13 -13 -13 -13 -13 -14 -14 -14 -14 -14 -13 -13 -13 -13 -13 -13 -13 -13 -13 -13 -13 -13 -13 -14 -14 -14 -14 -14 -13
-13 -13 -14 -14 -14 -14 -14 -13 -13 -13 -14 -13 -13 -13 -13 -13 -13 -14 -14 -15 -15 -15 -15 -15 -15 -14 -14 -14 -14 -14 -14 -14 -14 -14 -14 -14 -15 -15 -15 -15 -15 -16 -15 -14
-14 -14 -15 -14 -14 -14 -14 -14 -14 -13 -14 -14 -14 -13 -14 -14 -14 -14 -15 -16 -16 -15 -15 -15 -15 -15 -15 -15 -15 -15 -15 -16 -16 -16 -16 -16 -17 -17 -18 -18 -17 -16 -17 -16
-14 -15 -15 -15 -15 -15 -14 -15 -14 -14 -14 -14 -14 -13 -14 -14 -14 -15 -15 -15 -16 -16 -16 -16 -16 -16 -16 -16 -16 -17 -17 -18 -18 -18 -18 -18 -18 -18 -18 -18 -18 -18 -17 -17
-15 -15 -15 -16 -16 -16 -16 -16 -16 -16 -16 -15 -15 -15 -13 -14 -15 -15 -16 -16 -16 -16 -17 -17 -17 -17 -17 -18 -18 -19 -19 -19 -19 -19 -19 -19 -18 -18 -18 -17 -17 -17 -17 -17
-16 -15 -16 -16 -16 -16 -17 -17 -17 -16 -16 -15 -15 -17 -14 -15 -15 -16 -17 -18 -18 -18 -18 -18 -19 -19 -19 -19 -19 -19 -19 -19 -19 -18 -18 -18 -18 -18 -17 -17 -17 -17 -17 -17
-16 -16 -16 -17 -17 -17 -17 -17 -17 -17 -17 -16 -16 -16 -15 -16 -16 -17 -18 -19 -19 -19 -19 -19 -19 -19 -19 -19 -19 -19 -19 -19 -19 -19 -18 -18 -18 -17 -17 -17 -16 -17 -17 -17
-17 -17 -17 -17 -18 -18 -18 -18 -19 -18 -18 -17 -17 -16 -16 -17 -17 -18 -19 -20 -20 -20 -20 -20 -19 -19 -19 -19 -20 -20 -19 -19 -18 -18 -18 -17 -17 -17 -17 -16 -16 -16 -16 -16
-18 -18 -18 -18 -18 -19 -19 -19 -19 -20 -20 -19 -18 -18 -18 -18 -19 -19 -20 -21 -21 -20 -20 -20 -20 -20 -20 -20 -20 -19 -19 -19 -18 -18 -19 -18 -18 -18 -18 -17 -18 -17 -16 -16
-18 -19 -19 -19 -19 -19 -20 -20 -20 -21 -21 -20 -19 -19 -18 -19 -20 -20 -21 -22 -21 -21 -21 -21 -21 -20 -20 -20 -20 -20 -20 -20 -19 -19 -18 -18 -18 -18 -18 -18 -18 -18 -17 -16
-19 -20 -19 -20 -20 -20 -20 -21 -21 -21 -21 -22 -21 -19 -19 -21 -21 -22 -22 -22 -21 -22 -22 -22 -22 -22 -21 -22 -22 -21 -21 -20 -20 -19 -18 -17 -18 -18 -18 -18 -18 -18 -18 -18
-21 -21 -21 -21 -20 -20 -21 -21 -21 -22 -21 -21 -22 -20 -20 -21 -22 -22 -22 -22 -22 -23 -23 -23 -24 -23 -23 -22 -22 -21 -21 -21 -20 -19 -18 -18 -18 -18 -18 -17 -18 -18 -18 -18
-21 -21 -21 -21 -21 -21 -21 -21 -21 -22 -22 -20 -23 -20 -22 -21 -22 -22 -22 -22 -23 -23 -24 -24 -24 -23 -23 -22 -22 -21 -21 -21 -20 -20 -19 -18 -19 -19 -19 -19 -18 -18 -17 -18
-22 -22 -22 -22 -22 -22 -22 -21 -21 -22 -22 -22 -20 -21 -22 -22 -22 -22 -22 -23 -23 -24 -24 -24 -23 -23 -22 -22 -22 -22 -21 -21 -21 -20 -20 -20 -19 -19 -18 -18 -18 -18 -18 -18
-22 -22 -22 -22 -22 -23 -22 -21 -22 -22 -22 -22 -21 -21 -22 -22 -22 -22 -23 -23 -23 -23 -23 -23 -23 -23 -22 -22 -22 -22 -21 -21 -21 -21 -21 -20 -20 -19 -19 -19 -18 -18 -18 -18
-22 -22 -22 -22 -22 -22 -21 -21 -22 -22 -22 -21 -21 -21 -23 -22 -23 -23 -23 -23 -22 -23 -23 -23 -23 -22 -22 -22 -22 -21 -22 -21 -21 -21 -21 -21 -20 -20 -20 -20 -20 -19 -19 -18
-23 -23 -22 -22 -22 -23 -22 -22 -22 -22 -22 -22 -22 -22 -22 -23 -23 -23 -23 -22 -22 -22 -22 -22 -23 -22 -22 -22 -22 -22 -23 -23 -23 -23 -23 -23 -23 -22 -22 -21 -20 -21 -20 -19
-23 -23 -23 -23 -23 -22 -22 -22 -22 -22 -22 -22 -22 -23 -23 -23 -23 -22 -22 -22 -22 -22 -22 -22 -22 -22 -22 -22 -23 -24 -24 -23 -23 -22 -22 -22 -22 -22 -21 -21 -21 -21 -21 -21
-23 -23 -24 -23 -23 -22 -22 -23 -22 -22 -23 -23 -23 -23 -23 -23 -23 -22 -22 -22 -22 -22 -22 -22 -22 -22 -23 -22 -23 -23 -24 -23 -23 -22 -23 -23 -22 -22 -22 -22 -22 -22 -21 -21
-23 -24 -24 -23 -23 -22 -23 -23 -22 -22 -23 -24 -23 -24 -23 -23 -23 -22 -22 -22 -22 -23 -22 -22 -22 -22 -22 -23 -24 -23 -23 -23 -23 -23 -23 -23 -23 -23 -23 -23 -22 -22 -22 -22
-24 -24 -24 -24 -24 -23 -23 -23 -23 -23 -23 -23 -24 -24 -23 -23 -23 -22 -23 -23 -23 -23 -23 -23 -23 -23 -23 -24 -24 -23 -23 -23 -24 -24 -24 -23 -23 -23 -23 -23 -23 -23 -23 -22
-24 -24 -24 -24 -24 -23 -24 -24 -24 -24 -24 -24 -24 -24 -23 -23 -23 -23 -23 -23 -23 -23 -23 -23 -23 -23 -23 -24 -23 -23 -23 -24 -24 -24 -24 -24 -23 -23 -23 -23 -23 -23 -23 -23
-24 -24 -24 -24 -23 -23 -23 -24 -24 -24 -24 -24 -24 -24 -24 -23 -23 -23 -23 -23 -23 -23 -23 -23 -23 -23 -24 -23 -23 -24 -24 -24 -24 -24 -24 -24 -23 -23 -23 -23 -23 -23 -23 -23
-24 -24 -24 -24 -23 -23 -24 -24 -24 -24 -24 -24 -24 -24 -24 -24 -23 -23 -23 -23 -23 -23 -23 -23 -23 -23 -24 -23 -24 -24 -24 -24 -24 -24 -24 -24 -24 -24 -24 -24 -24 -24 -24 -24
-24 -24 -24 -23 -24 -24 -24 -24 -25 -25 -25 -25 -24 -24 -24 -24 -24 -24 -24 -24 -24 -23 -23 -23 -23 -24 -24 -24 -24 -24 -24 -24 -24 -24 -24 -24 -24 -24 -24 -24 -24 -24 -24 -24
-24 -24 -23 -24 -24 -24 -25 -24 -24 -24 -25 -25 -24 -24 -24 -24 -24 -24 -24 -24 -24 -24 -23 -23 -23 -24 -24 -24 -24 -24 -24 -24 -24 -24 -24 -24 -24 -25 -25 -24 -24 -24 -24 -24